<?xml version="1.0" encoding="UTF-8" standalone="no" ?>
<gpx xmlns="http://www.topografix.com/GPX/1/1" xmlns:xsi="http://www.w3.org/2001/XMLSchema-instance" xsi:schemaLocation="http://www.topografix.com/GPX/1/1 http://www.topografix.com/GPX/1/1/gpx.xsd" version="1.1" creator="VisuGPX - https://www.visugpx.com">
  <metadata>
    <name>2019-05-22 15:28:00</name>
    <desc><![CDATA[

]]></desc>
  </metadata>
  <trk>
    <name><![CDATA[2019-05-22 15:28:00]]></name>
    <trkseg>
      <trkpt lat="40.20755" lon="-8.42899">
        <ele>17.92</ele>
        <time>2019-05-22T06:20:46Z</time>
      </trkpt>
      <trkpt lat="40.20755" lon="-8.429">
        <ele>17.92</ele>
        <time>2019-05-22T06:20:47Z</time>
      </trkpt>
      <trkpt lat="40.20749" lon="-8.42918">
        <ele>16.96</ele>
        <time>2019-05-22T06:21:05Z</time>
      </trkpt>
      <trkpt lat="40.20747" lon="-8.42921">
        <ele>17.92</ele>
        <time>2019-05-22T06:21:21Z</time>
      </trkpt>
      <trkpt lat="40.20742" lon="-8.42923">
        <ele>17.92</ele>
        <time>2019-05-22T06:21:41Z</time>
      </trkpt>
      <trkpt lat="40.2074" lon="-8.42923">
        <ele>17.92</ele>
        <time>2019-05-22T06:21:56Z</time>
      </trkpt>
      <trkpt lat="40.20738" lon="-8.42931">
        <ele>18.4</ele>
        <time>2019-05-22T06:22:14Z</time>
      </trkpt>
      <trkpt lat="40.20743" lon="-8.42929">
        <ele>18.88</ele>
        <time>2019-05-22T06:22:25Z</time>
      </trkpt>
      <trkpt lat="40.20753" lon="-8.42928">
        <ele>19.36</ele>
        <time>2019-05-22T06:22:35Z</time>
      </trkpt>
      <trkpt lat="40.20763" lon="-8.42925">
        <ele>20.32</ele>
        <time>2019-05-22T06:22:46Z</time>
      </trkpt>
      <trkpt lat="40.20768" lon="-8.42919">
        <ele>20.81</ele>
        <time>2019-05-22T06:22:59Z</time>
      </trkpt>
      <trkpt lat="40.20778" lon="-8.42917">
        <ele>20.32</ele>
        <time>2019-05-22T06:23:13Z</time>
      </trkpt>
      <trkpt lat="40.20794" lon="-8.42913">
        <ele>20.81</ele>
        <time>2019-05-22T06:23:27Z</time>
      </trkpt>
      <trkpt lat="40.20812" lon="-8.42911">
        <ele>20.81</ele>
        <time>2019-05-22T06:23:43Z</time>
      </trkpt>
      <trkpt lat="40.20832" lon="-8.42908">
        <ele>21.77</ele>
        <time>2019-05-22T06:23:57Z</time>
      </trkpt>
      <trkpt lat="40.20839" lon="-8.42909">
        <ele>21.29</ele>
        <time>2019-05-22T06:24:08Z</time>
      </trkpt>
      <trkpt lat="40.20854" lon="-8.42916">
        <ele>21.29</ele>
        <time>2019-05-22T06:24:17Z</time>
      </trkpt>
      <trkpt lat="40.20855" lon="-8.42914">
        <ele>20.81</ele>
        <time>2019-05-22T06:24:19Z</time>
      </trkpt>
      <trkpt lat="40.20874" lon="-8.42904">
        <ele>21.29</ele>
        <time>2019-05-22T06:24:35Z</time>
      </trkpt>
      <trkpt lat="40.20885" lon="-8.42902">
        <ele>21.77</ele>
        <time>2019-05-22T06:24:48Z</time>
      </trkpt>
      <trkpt lat="40.20892" lon="-8.42904">
        <ele>21.77</ele>
        <time>2019-05-22T06:25:00Z</time>
      </trkpt>
      <trkpt lat="40.20904" lon="-8.42903">
        <ele>22.25</ele>
        <time>2019-05-22T06:25:16Z</time>
      </trkpt>
      <trkpt lat="40.20921" lon="-8.42908">
        <ele>21.77</ele>
        <time>2019-05-22T06:25:29Z</time>
      </trkpt>
      <trkpt lat="40.20938" lon="-8.4291">
        <ele>21.29</ele>
        <time>2019-05-22T06:25:41Z</time>
      </trkpt>
      <trkpt lat="40.20948" lon="-8.42906">
        <ele>20.81</ele>
        <time>2019-05-22T06:25:53Z</time>
      </trkpt>
      <trkpt lat="40.20961" lon="-8.42906">
        <ele>20.32</ele>
        <time>2019-05-22T06:26:06Z</time>
      </trkpt>
      <trkpt lat="40.20973" lon="-8.42906">
        <ele>19.84</ele>
        <time>2019-05-22T06:26:18Z</time>
      </trkpt>
      <trkpt lat="40.20988" lon="-8.42905">
        <ele>18.4</ele>
        <time>2019-05-22T06:26:34Z</time>
      </trkpt>
      <trkpt lat="40.21004" lon="-8.42903">
        <ele>16.96</ele>
        <time>2019-05-22T06:26:50Z</time>
      </trkpt>
      <trkpt lat="40.21021" lon="-8.42905">
        <ele>16.48</ele>
        <time>2019-05-22T06:27:05Z</time>
      </trkpt>
      <trkpt lat="40.21031" lon="-8.42911">
        <ele>15.52</ele>
        <time>2019-05-22T06:27:18Z</time>
      </trkpt>
      <trkpt lat="40.21049" lon="-8.42911">
        <ele>15.04</ele>
        <time>2019-05-22T06:27:34Z</time>
      </trkpt>
      <trkpt lat="40.21062" lon="-8.42913">
        <ele>13.6</ele>
        <time>2019-05-22T06:27:49Z</time>
      </trkpt>
      <trkpt lat="40.21072" lon="-8.42918">
        <ele>12.63</ele>
        <time>2019-05-22T06:28:02Z</time>
      </trkpt>
      <trkpt lat="40.21076" lon="-8.42915">
        <ele>13.12</ele>
        <time>2019-05-22T06:28:21Z</time>
      </trkpt>
      <trkpt lat="40.21083" lon="-8.42915">
        <ele>13.12</ele>
        <time>2019-05-22T06:28:27Z</time>
      </trkpt>
      <trkpt lat="40.21085" lon="-8.42916">
        <ele>13.12</ele>
        <time>2019-05-22T06:28:29Z</time>
      </trkpt>
      <trkpt lat="40.21097" lon="-8.42919">
        <ele>14.56</ele>
        <time>2019-05-22T06:28:41Z</time>
      </trkpt>
      <trkpt lat="40.21104" lon="-8.42916">
        <ele>15.52</ele>
        <time>2019-05-22T06:28:52Z</time>
      </trkpt>
      <trkpt lat="40.21106" lon="-8.42914">
        <ele>15.52</ele>
        <time>2019-05-22T06:29:12Z</time>
      </trkpt>
      <trkpt lat="40.21102" lon="-8.42913">
        <ele>16.48</ele>
        <time>2019-05-22T06:29:32Z</time>
      </trkpt>
      <trkpt lat="40.21108" lon="-8.42907">
        <ele>16.48</ele>
        <time>2019-05-22T06:29:54Z</time>
      </trkpt>
      <trkpt lat="40.21108" lon="-8.42903">
        <ele>16.96</ele>
        <time>2019-05-22T06:30:12Z</time>
      </trkpt>
      <trkpt lat="40.21102" lon="-8.42904">
        <ele>17.44</ele>
        <time>2019-05-22T06:30:33Z</time>
      </trkpt>
      <trkpt lat="40.21105" lon="-8.42903">
        <ele>17.44</ele>
        <time>2019-05-22T06:31:12Z</time>
      </trkpt>
      <trkpt lat="40.21113" lon="-8.42901">
        <ele>17.44</ele>
        <time>2019-05-22T06:31:38Z</time>
      </trkpt>
      <trkpt lat="40.21117" lon="-8.42899">
        <ele>17.92</ele>
        <time>2019-05-22T06:32:01Z</time>
      </trkpt>
      <trkpt lat="40.21121" lon="-8.429">
        <ele>18.88</ele>
        <time>2019-05-22T06:32:24Z</time>
      </trkpt>
      <trkpt lat="40.21117" lon="-8.42901">
        <ele>18.88</ele>
        <time>2019-05-22T06:32:45Z</time>
      </trkpt>
      <trkpt lat="40.21122" lon="-8.42901">
        <ele>19.36</ele>
        <time>2019-05-22T06:33:05Z</time>
      </trkpt>
      <trkpt lat="40.21134" lon="-8.4291">
        <ele>19.84</ele>
        <time>2019-05-22T06:33:20Z</time>
      </trkpt>
      <trkpt lat="40.21155" lon="-8.42921">
        <ele>19.84</ele>
        <time>2019-05-22T06:33:31Z</time>
      </trkpt>
      <trkpt lat="40.21163" lon="-8.42933">
        <ele>19.84</ele>
        <time>2019-05-22T06:33:41Z</time>
      </trkpt>
      <trkpt lat="40.21173" lon="-8.42937">
        <ele>20.32</ele>
        <time>2019-05-22T06:33:55Z</time>
      </trkpt>
      <trkpt lat="40.21187" lon="-8.4295">
        <ele>20.32</ele>
        <time>2019-05-22T06:34:11Z</time>
      </trkpt>
      <trkpt lat="40.21198" lon="-8.42964">
        <ele>20.81</ele>
        <time>2019-05-22T06:34:25Z</time>
      </trkpt>
      <trkpt lat="40.21205" lon="-8.4297">
        <ele>20.81</ele>
        <time>2019-05-22T06:34:40Z</time>
      </trkpt>
      <trkpt lat="40.21212" lon="-8.42971">
        <ele>20.32</ele>
        <time>2019-05-22T06:35:02Z</time>
      </trkpt>
      <trkpt lat="40.21225" lon="-8.42981">
        <ele>21.29</ele>
        <time>2019-05-22T06:35:16Z</time>
      </trkpt>
      <trkpt lat="40.21239" lon="-8.42993">
        <ele>20.81</ele>
        <time>2019-05-22T06:35:34Z</time>
      </trkpt>
      <trkpt lat="40.21253" lon="-8.43006">
        <ele>20.32</ele>
        <time>2019-05-22T06:35:48Z</time>
      </trkpt>
      <trkpt lat="40.21269" lon="-8.43016">
        <ele>20.32</ele>
        <time>2019-05-22T06:36:04Z</time>
      </trkpt>
      <trkpt lat="40.2128" lon="-8.43034">
        <ele>20.32</ele>
        <time>2019-05-22T06:36:18Z</time>
      </trkpt>
      <trkpt lat="40.21292" lon="-8.43049">
        <ele>19.84</ele>
        <time>2019-05-22T06:36:33Z</time>
      </trkpt>
      <trkpt lat="40.21307" lon="-8.43056">
        <ele>20.32</ele>
        <time>2019-05-22T06:36:47Z</time>
      </trkpt>
      <trkpt lat="40.21315" lon="-8.43068">
        <ele>20.32</ele>
        <time>2019-05-22T06:37:00Z</time>
      </trkpt>
      <trkpt lat="40.21317" lon="-8.43072">
        <ele>20.32</ele>
        <time>2019-05-22T06:37:05Z</time>
      </trkpt>
      <trkpt lat="40.21326" lon="-8.43085">
        <ele>20.32</ele>
        <time>2019-05-22T06:37:18Z</time>
      </trkpt>
      <trkpt lat="40.21337" lon="-8.43092">
        <ele>19.84</ele>
        <time>2019-05-22T06:37:31Z</time>
      </trkpt>
      <trkpt lat="40.21352" lon="-8.43103">
        <ele>20.81</ele>
        <time>2019-05-22T06:37:46Z</time>
      </trkpt>
      <trkpt lat="40.21359" lon="-8.43106">
        <ele>20.81</ele>
        <time>2019-05-22T06:37:51Z</time>
      </trkpt>
      <trkpt lat="40.21374" lon="-8.43119">
        <ele>20.32</ele>
        <time>2019-05-22T06:38:05Z</time>
      </trkpt>
      <trkpt lat="40.21381" lon="-8.43127">
        <ele>20.81</ele>
        <time>2019-05-22T06:38:16Z</time>
      </trkpt>
      <trkpt lat="40.21387" lon="-8.43129">
        <ele>20.81</ele>
        <time>2019-05-22T06:38:21Z</time>
      </trkpt>
      <trkpt lat="40.21403" lon="-8.4314">
        <ele>20.81</ele>
        <time>2019-05-22T06:38:39Z</time>
      </trkpt>
      <trkpt lat="40.21407" lon="-8.43152">
        <ele>20.81</ele>
        <time>2019-05-22T06:38:43Z</time>
      </trkpt>
      <trkpt lat="40.21412" lon="-8.43167">
        <ele>20.32</ele>
        <time>2019-05-22T06:38:55Z</time>
      </trkpt>
      <trkpt lat="40.21413" lon="-8.4317">
        <ele>20.81</ele>
        <time>2019-05-22T06:39:00Z</time>
      </trkpt>
      <trkpt lat="40.21411" lon="-8.43181">
        <ele>20.32</ele>
        <time>2019-05-22T06:39:12Z</time>
      </trkpt>
      <trkpt lat="40.21412" lon="-8.43189">
        <ele>20.32</ele>
        <time>2019-05-22T06:39:22Z</time>
      </trkpt>
      <trkpt lat="40.21389" lon="-8.43208">
        <ele>19.84</ele>
        <time>2019-05-22T06:39:32Z</time>
      </trkpt>
      <trkpt lat="40.21377" lon="-8.43219">
        <ele>19.84</ele>
        <time>2019-05-22T06:39:44Z</time>
      </trkpt>
      <trkpt lat="40.21377" lon="-8.43221">
        <ele>19.84</ele>
        <time>2019-05-22T06:39:46Z</time>
      </trkpt>
      <trkpt lat="40.2137" lon="-8.43238">
        <ele>20.32</ele>
        <time>2019-05-22T06:40:02Z</time>
      </trkpt>
      <trkpt lat="40.21365" lon="-8.43263">
        <ele>20.32</ele>
        <time>2019-05-22T06:40:16Z</time>
      </trkpt>
      <trkpt lat="40.2136" lon="-8.43273">
        <ele>20.32</ele>
        <time>2019-05-22T06:40:33Z</time>
      </trkpt>
      <trkpt lat="40.21357" lon="-8.4329">
        <ele>19.36</ele>
        <time>2019-05-22T06:40:49Z</time>
      </trkpt>
      <trkpt lat="40.21349" lon="-8.43299">
        <ele>18.88</ele>
        <time>2019-05-22T06:41:00Z</time>
      </trkpt>
      <trkpt lat="40.21334" lon="-8.43306">
        <ele>19.36</ele>
        <time>2019-05-22T06:41:12Z</time>
      </trkpt>
      <trkpt lat="40.21335" lon="-8.43313">
        <ele>19.36</ele>
        <time>2019-05-22T06:41:16Z</time>
      </trkpt>
      <trkpt lat="40.2134" lon="-8.43326">
        <ele>19.84</ele>
        <time>2019-05-22T06:41:28Z</time>
      </trkpt>
      <trkpt lat="40.21345" lon="-8.43333">
        <ele>19.84</ele>
        <time>2019-05-22T06:41:34Z</time>
      </trkpt>
      <trkpt lat="40.21347" lon="-8.43334">
        <ele>19.84</ele>
        <time>2019-05-22T06:41:36Z</time>
      </trkpt>
      <trkpt lat="40.21349" lon="-8.43338">
        <ele>19.36</ele>
        <time>2019-05-22T06:41:39Z</time>
      </trkpt>
      <trkpt lat="40.21351" lon="-8.43338">
        <ele>19.84</ele>
        <time>2019-05-22T06:41:41Z</time>
      </trkpt>
      <trkpt lat="40.21358" lon="-8.43347">
        <ele>19.36</ele>
        <time>2019-05-22T06:41:51Z</time>
      </trkpt>
      <trkpt lat="40.21359" lon="-8.43357">
        <ele>19.84</ele>
        <time>2019-05-22T06:42:04Z</time>
      </trkpt>
      <trkpt lat="40.21366" lon="-8.43358">
        <ele>19.84</ele>
        <time>2019-05-22T06:42:16Z</time>
      </trkpt>
      <trkpt lat="40.21365" lon="-8.43371">
        <ele>19.84</ele>
        <time>2019-05-22T06:42:39Z</time>
      </trkpt>
      <trkpt lat="40.21365" lon="-8.43374">
        <ele>19.84</ele>
        <time>2019-05-22T06:42:53Z</time>
      </trkpt>
      <trkpt lat="40.21368" lon="-8.43383">
        <ele>19.84</ele>
        <time>2019-05-22T06:43:03Z</time>
      </trkpt>
      <trkpt lat="40.21371" lon="-8.43382">
        <ele>20.32</ele>
        <time>2019-05-22T06:43:07Z</time>
      </trkpt>
      <trkpt lat="40.21377" lon="-8.43383">
        <ele>20.32</ele>
        <time>2019-05-22T06:43:19Z</time>
      </trkpt>
      <trkpt lat="40.21381" lon="-8.43384">
        <ele>20.32</ele>
        <time>2019-05-22T06:43:31Z</time>
      </trkpt>
      <trkpt lat="40.21381" lon="-8.43385">
        <ele>20.32</ele>
        <time>2019-05-22T06:43:33Z</time>
      </trkpt>
      <trkpt lat="40.21383" lon="-8.43387">
        <ele>20.32</ele>
        <time>2019-05-22T06:43:35Z</time>
      </trkpt>
      <trkpt lat="40.2139" lon="-8.43392">
        <ele>20.32</ele>
        <time>2019-05-22T06:43:41Z</time>
      </trkpt>
      <trkpt lat="40.21395" lon="-8.43398">
        <ele>20.32</ele>
        <time>2019-05-22T06:43:47Z</time>
      </trkpt>
      <trkpt lat="40.21399" lon="-8.43402">
        <ele>20.32</ele>
        <time>2019-05-22T06:43:51Z</time>
      </trkpt>
      <trkpt lat="40.21408" lon="-8.43407">
        <ele>20.32</ele>
        <time>2019-05-22T06:43:59Z</time>
      </trkpt>
      <trkpt lat="40.2141" lon="-8.43408">
        <ele>20.32</ele>
        <time>2019-05-22T06:44:01Z</time>
      </trkpt>
      <trkpt lat="40.21424" lon="-8.43423">
        <ele>20.81</ele>
        <time>2019-05-22T06:44:16Z</time>
      </trkpt>
      <trkpt lat="40.21436" lon="-8.43435">
        <ele>20.32</ele>
        <time>2019-05-22T06:44:30Z</time>
      </trkpt>
      <trkpt lat="40.21446" lon="-8.43445">
        <ele>19.84</ele>
        <time>2019-05-22T06:44:42Z</time>
      </trkpt>
      <trkpt lat="40.21449" lon="-8.43448">
        <ele>19.84</ele>
        <time>2019-05-22T06:44:44Z</time>
      </trkpt>
      <trkpt lat="40.21454" lon="-8.43452">
        <ele>19.84</ele>
        <time>2019-05-22T06:44:49Z</time>
      </trkpt>
      <trkpt lat="40.21461" lon="-8.43461">
        <ele>20.32</ele>
        <time>2019-05-22T06:45:03Z</time>
      </trkpt>
      <trkpt lat="40.21463" lon="-8.43462">
        <ele>20.32</ele>
        <time>2019-05-22T06:45:05Z</time>
      </trkpt>
      <trkpt lat="40.21464" lon="-8.43464">
        <ele>20.32</ele>
        <time>2019-05-22T06:45:07Z</time>
      </trkpt>
      <trkpt lat="40.21468" lon="-8.43468">
        <ele>19.84</ele>
        <time>2019-05-22T06:45:12Z</time>
      </trkpt>
      <trkpt lat="40.21474" lon="-8.43471">
        <ele>20.32</ele>
        <time>2019-05-22T06:45:19Z</time>
      </trkpt>
      <trkpt lat="40.21476" lon="-8.43473">
        <ele>19.84</ele>
        <time>2019-05-22T06:45:22Z</time>
      </trkpt>
      <trkpt lat="40.21479" lon="-8.43474">
        <ele>19.84</ele>
        <time>2019-05-22T06:45:24Z</time>
      </trkpt>
      <trkpt lat="40.21479" lon="-8.43476">
        <ele>19.84</ele>
        <time>2019-05-22T06:45:25Z</time>
      </trkpt>
      <trkpt lat="40.21481" lon="-8.43477">
        <ele>19.84</ele>
        <time>2019-05-22T06:45:26Z</time>
      </trkpt>
      <trkpt lat="40.21481" lon="-8.43479">
        <ele>19.84</ele>
        <time>2019-05-22T06:45:27Z</time>
      </trkpt>
      <trkpt lat="40.21486" lon="-8.43484">
        <ele>19.84</ele>
        <time>2019-05-22T06:45:32Z</time>
      </trkpt>
      <trkpt lat="40.21487" lon="-8.43486">
        <ele>19.84</ele>
        <time>2019-05-22T06:45:34Z</time>
      </trkpt>
      <trkpt lat="40.21494" lon="-8.43495">
        <ele>19.84</ele>
        <time>2019-05-22T06:45:41Z</time>
      </trkpt>
      <trkpt lat="40.21502" lon="-8.43502">
        <ele>19.84</ele>
        <time>2019-05-22T06:45:49Z</time>
      </trkpt>
      <trkpt lat="40.21505" lon="-8.43502">
        <ele>20.32</ele>
        <time>2019-05-22T06:45:51Z</time>
      </trkpt>
      <trkpt lat="40.21511" lon="-8.43506">
        <ele>20.32</ele>
        <time>2019-05-22T06:45:58Z</time>
      </trkpt>
      <trkpt lat="40.21519" lon="-8.43516">
        <ele>19.36</ele>
        <time>2019-05-22T06:46:06Z</time>
      </trkpt>
      <trkpt lat="40.21524" lon="-8.43521">
        <ele>19.84</ele>
        <time>2019-05-22T06:46:11Z</time>
      </trkpt>
      <trkpt lat="40.21528" lon="-8.43532">
        <ele>19.36</ele>
        <time>2019-05-22T06:46:18Z</time>
      </trkpt>
      <trkpt lat="40.21535" lon="-8.4354">
        <ele>19.84</ele>
        <time>2019-05-22T06:46:29Z</time>
      </trkpt>
      <trkpt lat="40.21534" lon="-8.4354">
        <ele>19.84</ele>
        <time>2019-05-22T06:46:35Z</time>
      </trkpt>
      <trkpt lat="40.21529" lon="-8.43551">
        <ele>19.84</ele>
        <time>2019-05-22T06:46:44Z</time>
      </trkpt>
      <trkpt lat="40.21528" lon="-8.43565">
        <ele>19.84</ele>
        <time>2019-05-22T06:46:56Z</time>
      </trkpt>
      <trkpt lat="40.2153" lon="-8.43571">
        <ele>19.84</ele>
        <time>2019-05-22T06:47:02Z</time>
      </trkpt>
      <trkpt lat="40.2153" lon="-8.43572">
        <ele>19.36</ele>
        <time>2019-05-22T06:47:03Z</time>
      </trkpt>
      <trkpt lat="40.21531" lon="-8.43575">
        <ele>20.32</ele>
        <time>2019-05-22T06:47:06Z</time>
      </trkpt>
      <trkpt lat="40.21532" lon="-8.43575">
        <ele>20.32</ele>
        <time>2019-05-22T06:47:08Z</time>
      </trkpt>
      <trkpt lat="40.21538" lon="-8.43578">
        <ele>19.84</ele>
        <time>2019-05-22T06:47:19Z</time>
      </trkpt>
      <trkpt lat="40.21541" lon="-8.43585">
        <ele>19.84</ele>
        <time>2019-05-22T06:47:32Z</time>
      </trkpt>
      <trkpt lat="40.21541" lon="-8.43621">
        <ele>19.84</ele>
        <time>2019-05-22T06:47:45Z</time>
      </trkpt>
      <trkpt lat="40.2154" lon="-8.4364">
        <ele>19.84</ele>
        <time>2019-05-22T06:47:58Z</time>
      </trkpt>
      <trkpt lat="40.21523" lon="-8.43648">
        <ele>19.84</ele>
        <time>2019-05-22T06:48:09Z</time>
      </trkpt>
      <trkpt lat="40.2153" lon="-8.43648">
        <ele>19.84</ele>
        <time>2019-05-22T06:48:23Z</time>
      </trkpt>
      <trkpt lat="40.21533" lon="-8.43646">
        <ele>19.84</ele>
        <time>2019-05-22T06:48:30Z</time>
      </trkpt>
      <trkpt lat="40.21532" lon="-8.43647">
        <ele>19.84</ele>
        <time>2019-05-22T06:48:33Z</time>
      </trkpt>
      <trkpt lat="40.21532" lon="-8.43648">
        <ele>19.84</ele>
        <time>2019-05-22T06:48:36Z</time>
      </trkpt>
      <trkpt lat="40.21533" lon="-8.43656">
        <ele>19.84</ele>
        <time>2019-05-22T06:48:48Z</time>
      </trkpt>
      <trkpt lat="40.21535" lon="-8.43659">
        <ele>19.84</ele>
        <time>2019-05-22T06:48:51Z</time>
      </trkpt>
      <trkpt lat="40.21537" lon="-8.4366">
        <ele>20.32</ele>
        <time>2019-05-22T06:48:54Z</time>
      </trkpt>
      <trkpt lat="40.21538" lon="-8.43662">
        <ele>20.32</ele>
        <time>2019-05-22T06:48:55Z</time>
      </trkpt>
      <trkpt lat="40.21541" lon="-8.43664">
        <ele>19.84</ele>
        <time>2019-05-22T06:48:59Z</time>
      </trkpt>
      <trkpt lat="40.21548" lon="-8.43671">
        <ele>19.84</ele>
        <time>2019-05-22T06:49:08Z</time>
      </trkpt>
      <trkpt lat="40.2155" lon="-8.43672">
        <ele>19.84</ele>
        <time>2019-05-22T06:49:10Z</time>
      </trkpt>
      <trkpt lat="40.21556" lon="-8.4368">
        <ele>19.84</ele>
        <time>2019-05-22T06:49:17Z</time>
      </trkpt>
      <trkpt lat="40.21556" lon="-8.43682">
        <ele>19.36</ele>
        <time>2019-05-22T06:49:18Z</time>
      </trkpt>
      <trkpt lat="40.21558" lon="-8.43685">
        <ele>19.36</ele>
        <time>2019-05-22T06:49:20Z</time>
      </trkpt>
      <trkpt lat="40.2156" lon="-8.43686">
        <ele>19.84</ele>
        <time>2019-05-22T06:49:22Z</time>
      </trkpt>
      <trkpt lat="40.21564" lon="-8.43689">
        <ele>19.84</ele>
        <time>2019-05-22T06:49:26Z</time>
      </trkpt>
      <trkpt lat="40.21574" lon="-8.43698">
        <ele>19.36</ele>
        <time>2019-05-22T06:49:37Z</time>
      </trkpt>
      <trkpt lat="40.21575" lon="-8.437">
        <ele>19.84</ele>
        <time>2019-05-22T06:49:39Z</time>
      </trkpt>
      <trkpt lat="40.21576" lon="-8.43701">
        <ele>19.36</ele>
        <time>2019-05-22T06:49:40Z</time>
      </trkpt>
      <trkpt lat="40.2158" lon="-8.43703">
        <ele>19.36</ele>
        <time>2019-05-22T06:49:43Z</time>
      </trkpt>
      <trkpt lat="40.2158" lon="-8.43708">
        <ele>18.88</ele>
        <time>2019-05-22T06:49:46Z</time>
      </trkpt>
      <trkpt lat="40.2158" lon="-8.43711">
        <ele>19.36</ele>
        <time>2019-05-22T06:49:47Z</time>
      </trkpt>
      <trkpt lat="40.21581" lon="-8.43714">
        <ele>19.36</ele>
        <time>2019-05-22T06:49:48Z</time>
      </trkpt>
      <trkpt lat="40.21583" lon="-8.43716">
        <ele>19.36</ele>
        <time>2019-05-22T06:49:50Z</time>
      </trkpt>
      <trkpt lat="40.21583" lon="-8.43717">
        <ele>19.36</ele>
        <time>2019-05-22T06:49:51Z</time>
      </trkpt>
      <trkpt lat="40.21584" lon="-8.43719">
        <ele>19.84</ele>
        <time>2019-05-22T06:49:52Z</time>
      </trkpt>
      <trkpt lat="40.21584" lon="-8.43721">
        <ele>19.36</ele>
        <time>2019-05-22T06:49:53Z</time>
      </trkpt>
      <trkpt lat="40.21589" lon="-8.43734">
        <ele>19.84</ele>
        <time>2019-05-22T06:50:07Z</time>
      </trkpt>
      <trkpt lat="40.21591" lon="-8.43737">
        <ele>20.32</ele>
        <time>2019-05-22T06:50:09Z</time>
      </trkpt>
      <trkpt lat="40.21592" lon="-8.43738">
        <ele>19.36</ele>
        <time>2019-05-22T06:50:10Z</time>
      </trkpt>
      <trkpt lat="40.21593" lon="-8.43739">
        <ele>20.32</ele>
        <time>2019-05-22T06:50:11Z</time>
      </trkpt>
      <trkpt lat="40.21594" lon="-8.4374">
        <ele>19.84</ele>
        <time>2019-05-22T06:50:12Z</time>
      </trkpt>
      <trkpt lat="40.21595" lon="-8.43741">
        <ele>19.84</ele>
        <time>2019-05-22T06:50:13Z</time>
      </trkpt>
      <trkpt lat="40.21595" lon="-8.43742">
        <ele>19.84</ele>
        <time>2019-05-22T06:50:14Z</time>
      </trkpt>
      <trkpt lat="40.21596" lon="-8.43744">
        <ele>19.84</ele>
        <time>2019-05-22T06:50:15Z</time>
      </trkpt>
      <trkpt lat="40.21597" lon="-8.43745">
        <ele>20.32</ele>
        <time>2019-05-22T06:50:16Z</time>
      </trkpt>
      <trkpt lat="40.21598" lon="-8.43746">
        <ele>20.81</ele>
        <time>2019-05-22T06:50:17Z</time>
      </trkpt>
      <trkpt lat="40.21604" lon="-8.43758">
        <ele>20.81</ele>
        <time>2019-05-22T06:50:27Z</time>
      </trkpt>
      <trkpt lat="40.21605" lon="-8.4376">
        <ele>19.84</ele>
        <time>2019-05-22T06:50:28Z</time>
      </trkpt>
      <trkpt lat="40.21605" lon="-8.43762">
        <ele>20.32</ele>
        <time>2019-05-22T06:50:29Z</time>
      </trkpt>
      <trkpt lat="40.21607" lon="-8.43765">
        <ele>20.32</ele>
        <time>2019-05-22T06:50:31Z</time>
      </trkpt>
      <trkpt lat="40.21606" lon="-8.43767">
        <ele>20.32</ele>
        <time>2019-05-22T06:50:32Z</time>
      </trkpt>
      <trkpt lat="40.21607" lon="-8.43768">
        <ele>20.32</ele>
        <time>2019-05-22T06:50:33Z</time>
      </trkpt>
      <trkpt lat="40.21608" lon="-8.43774">
        <ele>20.32</ele>
        <time>2019-05-22T06:50:41Z</time>
      </trkpt>
      <trkpt lat="40.21607" lon="-8.43775">
        <ele>20.32</ele>
        <time>2019-05-22T06:50:42Z</time>
      </trkpt>
      <trkpt lat="40.21606" lon="-8.43779">
        <ele>20.32</ele>
        <time>2019-05-22T06:50:46Z</time>
      </trkpt>
      <trkpt lat="40.216" lon="-8.43788">
        <ele>20.81</ele>
        <time>2019-05-22T06:50:55Z</time>
      </trkpt>
      <trkpt lat="40.21592" lon="-8.43789">
        <ele>20.81</ele>
        <time>2019-05-22T06:51:07Z</time>
      </trkpt>
      <trkpt lat="40.21591" lon="-8.43788">
        <ele>20.81</ele>
        <time>2019-05-22T06:51:08Z</time>
      </trkpt>
      <trkpt lat="40.2159" lon="-8.43788">
        <ele>20.32</ele>
        <time>2019-05-22T06:51:09Z</time>
      </trkpt>
      <trkpt lat="40.21589" lon="-8.43787">
        <ele>20.32</ele>
        <time>2019-05-22T06:51:10Z</time>
      </trkpt>
      <trkpt lat="40.21571" lon="-8.4378">
        <ele>19.84</ele>
        <time>2019-05-22T06:51:23Z</time>
      </trkpt>
      <trkpt lat="40.2156" lon="-8.43777">
        <ele>20.81</ele>
        <time>2019-05-22T06:51:32Z</time>
      </trkpt>
      <trkpt lat="40.21551" lon="-8.43773">
        <ele>21.29</ele>
        <time>2019-05-22T06:51:43Z</time>
      </trkpt>
      <trkpt lat="40.2155" lon="-8.43772">
        <ele>20.81</ele>
        <time>2019-05-22T06:51:47Z</time>
      </trkpt>
      <trkpt lat="40.21547" lon="-8.43771">
        <ele>20.32</ele>
        <time>2019-05-22T06:51:49Z</time>
      </trkpt>
      <trkpt lat="40.21546" lon="-8.43771">
        <ele>20.32</ele>
        <time>2019-05-22T06:51:50Z</time>
      </trkpt>
      <trkpt lat="40.21545" lon="-8.4377">
        <ele>20.32</ele>
        <time>2019-05-22T06:51:51Z</time>
      </trkpt>
      <trkpt lat="40.21534" lon="-8.43766">
        <ele>20.32</ele>
        <time>2019-05-22T06:52:02Z</time>
      </trkpt>
      <trkpt lat="40.21525" lon="-8.43759">
        <ele>20.32</ele>
        <time>2019-05-22T06:52:13Z</time>
      </trkpt>
      <trkpt lat="40.21512" lon="-8.43749">
        <ele>20.81</ele>
        <time>2019-05-22T06:52:27Z</time>
      </trkpt>
      <trkpt lat="40.21497" lon="-8.43739">
        <ele>20.81</ele>
        <time>2019-05-22T06:52:40Z</time>
      </trkpt>
      <trkpt lat="40.21488" lon="-8.43722">
        <ele>20.32</ele>
        <time>2019-05-22T06:52:53Z</time>
      </trkpt>
      <trkpt lat="40.21486" lon="-8.43726">
        <ele>19.84</ele>
        <time>2019-05-22T06:53:00Z</time>
      </trkpt>
      <trkpt lat="40.21481" lon="-8.43735">
        <ele>19.36</ele>
        <time>2019-05-22T06:53:07Z</time>
      </trkpt>
      <trkpt lat="40.21476" lon="-8.43744">
        <ele>20.32</ele>
        <time>2019-05-22T06:53:14Z</time>
      </trkpt>
      <trkpt lat="40.21474" lon="-8.43751">
        <ele>20.81</ele>
        <time>2019-05-22T06:53:20Z</time>
      </trkpt>
      <trkpt lat="40.21472" lon="-8.43758">
        <ele>20.32</ele>
        <time>2019-05-22T06:53:33Z</time>
      </trkpt>
      <trkpt lat="40.21475" lon="-8.43766">
        <ele>19.84</ele>
        <time>2019-05-22T06:53:53Z</time>
      </trkpt>
      <trkpt lat="40.21476" lon="-8.43766">
        <ele>19.84</ele>
        <time>2019-05-22T06:53:54Z</time>
      </trkpt>
      <trkpt lat="40.21478" lon="-8.43772">
        <ele>20.32</ele>
        <time>2019-05-22T06:53:59Z</time>
      </trkpt>
      <trkpt lat="40.21478" lon="-8.43774">
        <ele>19.36</ele>
        <time>2019-05-22T06:54:00Z</time>
      </trkpt>
      <trkpt lat="40.21488" lon="-8.43789">
        <ele>19.36</ele>
        <time>2019-05-22T06:54:14Z</time>
      </trkpt>
      <trkpt lat="40.21488" lon="-8.43791">
        <ele>19.36</ele>
        <time>2019-05-22T06:54:15Z</time>
      </trkpt>
      <trkpt lat="40.21487" lon="-8.43792">
        <ele>19.36</ele>
        <time>2019-05-22T06:54:17Z</time>
      </trkpt>
      <trkpt lat="40.21486" lon="-8.43794">
        <ele>19.36</ele>
        <time>2019-05-22T06:54:18Z</time>
      </trkpt>
      <trkpt lat="40.21486" lon="-8.43798">
        <ele>19.36</ele>
        <time>2019-05-22T06:54:19Z</time>
      </trkpt>
      <trkpt lat="40.21487" lon="-8.438">
        <ele>18.88</ele>
        <time>2019-05-22T06:54:20Z</time>
      </trkpt>
      <trkpt lat="40.21488" lon="-8.43802">
        <ele>19.36</ele>
        <time>2019-05-22T06:54:21Z</time>
      </trkpt>
      <trkpt lat="40.21488" lon="-8.43804">
        <ele>18.88</ele>
        <time>2019-05-22T06:54:22Z</time>
      </trkpt>
      <trkpt lat="40.21492" lon="-8.43812">
        <ele>19.84</ele>
        <time>2019-05-22T06:54:28Z</time>
      </trkpt>
      <trkpt lat="40.21501" lon="-8.43823">
        <ele>19.36</ele>
        <time>2019-05-22T06:54:40Z</time>
      </trkpt>
      <trkpt lat="40.2151" lon="-8.43835">
        <ele>19.36</ele>
        <time>2019-05-22T06:54:52Z</time>
      </trkpt>
      <trkpt lat="40.21524" lon="-8.43848">
        <ele>19.36</ele>
        <time>2019-05-22T06:55:05Z</time>
      </trkpt>
      <trkpt lat="40.21526" lon="-8.43849">
        <ele>19.84</ele>
        <time>2019-05-22T06:55:07Z</time>
      </trkpt>
      <trkpt lat="40.21527" lon="-8.4385">
        <ele>19.36</ele>
        <time>2019-05-22T06:55:08Z</time>
      </trkpt>
      <trkpt lat="40.21533" lon="-8.43857">
        <ele>18.88</ele>
        <time>2019-05-22T06:55:18Z</time>
      </trkpt>
      <trkpt lat="40.21548" lon="-8.43868">
        <ele>19.84</ele>
        <time>2019-05-22T06:55:33Z</time>
      </trkpt>
      <trkpt lat="40.2156" lon="-8.43886">
        <ele>19.84</ele>
        <time>2019-05-22T06:55:47Z</time>
      </trkpt>
      <trkpt lat="40.21563" lon="-8.4389">
        <ele>20.32</ele>
        <time>2019-05-22T06:55:51Z</time>
      </trkpt>
      <trkpt lat="40.21566" lon="-8.43898">
        <ele>20.32</ele>
        <time>2019-05-22T06:55:57Z</time>
      </trkpt>
      <trkpt lat="40.21567" lon="-8.43899">
        <ele>20.32</ele>
        <time>2019-05-22T06:55:58Z</time>
      </trkpt>
      <trkpt lat="40.21568" lon="-8.439">
        <ele>20.32</ele>
        <time>2019-05-22T06:55:59Z</time>
      </trkpt>
      <trkpt lat="40.21569" lon="-8.439">
        <ele>19.84</ele>
        <time>2019-05-22T06:56:00Z</time>
      </trkpt>
      <trkpt lat="40.2157" lon="-8.43901">
        <ele>20.32</ele>
        <time>2019-05-22T06:56:01Z</time>
      </trkpt>
      <trkpt lat="40.21572" lon="-8.43902">
        <ele>20.32</ele>
        <time>2019-05-22T06:56:02Z</time>
      </trkpt>
      <trkpt lat="40.21577" lon="-8.43905">
        <ele>20.32</ele>
        <time>2019-05-22T06:56:07Z</time>
      </trkpt>
      <trkpt lat="40.21578" lon="-8.43906">
        <ele>19.84</ele>
        <time>2019-05-22T06:56:08Z</time>
      </trkpt>
      <trkpt lat="40.21579" lon="-8.43907">
        <ele>20.32</ele>
        <time>2019-05-22T06:56:09Z</time>
      </trkpt>
      <trkpt lat="40.2158" lon="-8.43908">
        <ele>19.36</ele>
        <time>2019-05-22T06:56:10Z</time>
      </trkpt>
      <trkpt lat="40.21585" lon="-8.43912">
        <ele>20.32</ele>
        <time>2019-05-22T06:56:15Z</time>
      </trkpt>
      <trkpt lat="40.21593" lon="-8.43915">
        <ele>21.29</ele>
        <time>2019-05-22T06:56:28Z</time>
      </trkpt>
      <trkpt lat="40.21596" lon="-8.43916">
        <ele>21.77</ele>
        <time>2019-05-22T06:56:38Z</time>
      </trkpt>
      <trkpt lat="40.21606" lon="-8.4391">
        <ele>21.29</ele>
        <time>2019-05-22T06:56:52Z</time>
      </trkpt>
      <trkpt lat="40.21609" lon="-8.43908">
        <ele>20.81</ele>
        <time>2019-05-22T06:56:55Z</time>
      </trkpt>
      <trkpt lat="40.2162" lon="-8.43909">
        <ele>19.84</ele>
        <time>2019-05-22T06:57:07Z</time>
      </trkpt>
      <trkpt lat="40.21628" lon="-8.43914">
        <ele>20.32</ele>
        <time>2019-05-22T06:57:20Z</time>
      </trkpt>
      <trkpt lat="40.21646" lon="-8.43921">
        <ele>20.32</ele>
        <time>2019-05-22T06:57:36Z</time>
      </trkpt>
      <trkpt lat="40.2166" lon="-8.43926">
        <ele>19.84</ele>
        <time>2019-05-22T06:57:50Z</time>
      </trkpt>
      <trkpt lat="40.21673" lon="-8.43935">
        <ele>19.36</ele>
        <time>2019-05-22T06:58:04Z</time>
      </trkpt>
      <trkpt lat="40.2169" lon="-8.43944">
        <ele>19.84</ele>
        <time>2019-05-22T06:58:20Z</time>
      </trkpt>
      <trkpt lat="40.21706" lon="-8.4395">
        <ele>20.32</ele>
        <time>2019-05-22T06:58:35Z</time>
      </trkpt>
      <trkpt lat="40.21722" lon="-8.43958">
        <ele>19.84</ele>
        <time>2019-05-22T06:58:50Z</time>
      </trkpt>
      <trkpt lat="40.21737" lon="-8.43963">
        <ele>20.32</ele>
        <time>2019-05-22T06:59:03Z</time>
      </trkpt>
      <trkpt lat="40.21746" lon="-8.43967">
        <ele>20.32</ele>
        <time>2019-05-22T06:59:11Z</time>
      </trkpt>
      <trkpt lat="40.21763" lon="-8.43976">
        <ele>20.32</ele>
        <time>2019-05-22T06:59:27Z</time>
      </trkpt>
      <trkpt lat="40.21779" lon="-8.43983">
        <ele>19.84</ele>
        <time>2019-05-22T06:59:41Z</time>
      </trkpt>
      <trkpt lat="40.21797" lon="-8.4399">
        <ele>19.84</ele>
        <time>2019-05-22T06:59:56Z</time>
      </trkpt>
      <trkpt lat="40.21816" lon="-8.43998">
        <ele>19.36</ele>
        <time>2019-05-22T07:00:13Z</time>
      </trkpt>
      <trkpt lat="40.21835" lon="-8.44004">
        <ele>20.32</ele>
        <time>2019-05-22T07:00:29Z</time>
      </trkpt>
      <trkpt lat="40.21838" lon="-8.44006">
        <ele>20.32</ele>
        <time>2019-05-22T07:00:32Z</time>
      </trkpt>
      <trkpt lat="40.21856" lon="-8.44014">
        <ele>20.32</ele>
        <time>2019-05-22T07:00:48Z</time>
      </trkpt>
      <trkpt lat="40.21872" lon="-8.44019">
        <ele>20.32</ele>
        <time>2019-05-22T07:01:01Z</time>
      </trkpt>
      <trkpt lat="40.21889" lon="-8.44028">
        <ele>20.32</ele>
        <time>2019-05-22T07:01:16Z</time>
      </trkpt>
      <trkpt lat="40.21906" lon="-8.44035">
        <ele>20.32</ele>
        <time>2019-05-22T07:01:31Z</time>
      </trkpt>
      <trkpt lat="40.21923" lon="-8.44045">
        <ele>19.84</ele>
        <time>2019-05-22T07:01:47Z</time>
      </trkpt>
      <trkpt lat="40.2194" lon="-8.44054">
        <ele>19.36</ele>
        <time>2019-05-22T07:02:02Z</time>
      </trkpt>
      <trkpt lat="40.21947" lon="-8.44058">
        <ele>18.88</ele>
        <time>2019-05-22T07:02:08Z</time>
      </trkpt>
      <trkpt lat="40.21958" lon="-8.44065">
        <ele>17.92</ele>
        <time>2019-05-22T07:02:19Z</time>
      </trkpt>
      <trkpt lat="40.21963" lon="-8.44068">
        <ele>17.92</ele>
        <time>2019-05-22T07:02:24Z</time>
      </trkpt>
      <trkpt lat="40.21967" lon="-8.44072">
        <ele>17.92</ele>
        <time>2019-05-22T07:02:28Z</time>
      </trkpt>
      <trkpt lat="40.21984" lon="-8.44086">
        <ele>16.48</ele>
        <time>2019-05-22T07:02:44Z</time>
      </trkpt>
      <trkpt lat="40.21991" lon="-8.4409">
        <ele>16.48</ele>
        <time>2019-05-22T07:02:50Z</time>
      </trkpt>
      <trkpt lat="40.21993" lon="-8.44092">
        <ele>16.48</ele>
        <time>2019-05-22T07:02:53Z</time>
      </trkpt>
      <trkpt lat="40.22008" lon="-8.44103">
        <ele>16</ele>
        <time>2019-05-22T07:03:08Z</time>
      </trkpt>
      <trkpt lat="40.22011" lon="-8.44106">
        <ele>16</ele>
        <time>2019-05-22T07:03:12Z</time>
      </trkpt>
      <trkpt lat="40.22015" lon="-8.44105">
        <ele>16.48</ele>
        <time>2019-05-22T07:03:15Z</time>
      </trkpt>
      <trkpt lat="40.22021" lon="-8.4411">
        <ele>16</ele>
        <time>2019-05-22T07:03:20Z</time>
      </trkpt>
      <trkpt lat="40.22032" lon="-8.44118">
        <ele>16.48</ele>
        <time>2019-05-22T07:03:30Z</time>
      </trkpt>
      <trkpt lat="40.2204" lon="-8.44124">
        <ele>16.48</ele>
        <time>2019-05-22T07:03:38Z</time>
      </trkpt>
      <trkpt lat="40.22055" lon="-8.44137">
        <ele>15.52</ele>
        <time>2019-05-22T07:03:52Z</time>
      </trkpt>
      <trkpt lat="40.22077" lon="-8.44144">
        <ele>16</ele>
        <time>2019-05-22T07:04:10Z</time>
      </trkpt>
      <trkpt lat="40.22091" lon="-8.44149">
        <ele>16</ele>
        <time>2019-05-22T07:04:23Z</time>
      </trkpt>
      <trkpt lat="40.22106" lon="-8.44153">
        <ele>15.52</ele>
        <time>2019-05-22T07:04:36Z</time>
      </trkpt>
      <trkpt lat="40.2212" lon="-8.44157">
        <ele>15.52</ele>
        <time>2019-05-22T07:04:49Z</time>
      </trkpt>
      <trkpt lat="40.22123" lon="-8.44157">
        <ele>15.52</ele>
        <time>2019-05-22T07:04:51Z</time>
      </trkpt>
      <trkpt lat="40.22142" lon="-8.44162">
        <ele>15.52</ele>
        <time>2019-05-22T07:05:07Z</time>
      </trkpt>
      <trkpt lat="40.22161" lon="-8.44167">
        <ele>15.52</ele>
        <time>2019-05-22T07:05:22Z</time>
      </trkpt>
      <trkpt lat="40.22178" lon="-8.44171">
        <ele>15.52</ele>
        <time>2019-05-22T07:05:36Z</time>
      </trkpt>
      <trkpt lat="40.22185" lon="-8.44173">
        <ele>15.04</ele>
        <time>2019-05-22T07:05:42Z</time>
      </trkpt>
      <trkpt lat="40.22205" lon="-8.44179">
        <ele>15.52</ele>
        <time>2019-05-22T07:05:59Z</time>
      </trkpt>
      <trkpt lat="40.22224" lon="-8.44187">
        <ele>15.52</ele>
        <time>2019-05-22T07:06:15Z</time>
      </trkpt>
      <trkpt lat="40.22239" lon="-8.44194">
        <ele>15.52</ele>
        <time>2019-05-22T07:06:28Z</time>
      </trkpt>
      <trkpt lat="40.22254" lon="-8.44202">
        <ele>15.04</ele>
        <time>2019-05-22T07:06:43Z</time>
      </trkpt>
      <trkpt lat="40.22255" lon="-8.44203">
        <ele>16</ele>
        <time>2019-05-22T07:06:56Z</time>
      </trkpt>
      <trkpt lat="40.22254" lon="-8.44201">
        <ele>15.52</ele>
        <time>2019-05-22T07:07:14Z</time>
      </trkpt>
      <trkpt lat="40.22259" lon="-8.44203">
        <ele>15.04</ele>
        <time>2019-05-22T07:07:42Z</time>
      </trkpt>
      <trkpt lat="40.22262" lon="-8.44204">
        <ele>15.04</ele>
        <time>2019-05-22T07:07:45Z</time>
      </trkpt>
      <trkpt lat="40.22272" lon="-8.4421">
        <ele>15.52</ele>
        <time>2019-05-22T07:08:01Z</time>
      </trkpt>
      <trkpt lat="40.22274" lon="-8.44211">
        <ele>15.52</ele>
        <time>2019-05-22T07:08:11Z</time>
      </trkpt>
      <trkpt lat="40.22284" lon="-8.44212">
        <ele>16</ele>
        <time>2019-05-22T07:08:25Z</time>
      </trkpt>
      <trkpt lat="40.22296" lon="-8.44218">
        <ele>16.48</ele>
        <time>2019-05-22T07:08:40Z</time>
      </trkpt>
      <trkpt lat="40.22297" lon="-8.44218">
        <ele>16.48</ele>
        <time>2019-05-22T07:08:41Z</time>
      </trkpt>
      <trkpt lat="40.22304" lon="-8.44222">
        <ele>16.48</ele>
        <time>2019-05-22T07:08:47Z</time>
      </trkpt>
      <trkpt lat="40.22315" lon="-8.44229">
        <ele>17.44</ele>
        <time>2019-05-22T07:08:57Z</time>
      </trkpt>
      <trkpt lat="40.22335" lon="-8.44235">
        <ele>18.4</ele>
        <time>2019-05-22T07:09:14Z</time>
      </trkpt>
      <trkpt lat="40.22339" lon="-8.44235">
        <ele>18.4</ele>
        <time>2019-05-22T07:09:17Z</time>
      </trkpt>
      <trkpt lat="40.22357" lon="-8.44242">
        <ele>18.4</ele>
        <time>2019-05-22T07:09:33Z</time>
      </trkpt>
      <trkpt lat="40.22373" lon="-8.44252">
        <ele>18.88</ele>
        <time>2019-05-22T07:09:48Z</time>
      </trkpt>
      <trkpt lat="40.22375" lon="-8.44254">
        <ele>18.88</ele>
        <time>2019-05-22T07:09:50Z</time>
      </trkpt>
      <trkpt lat="40.22378" lon="-8.44256">
        <ele>18.4</ele>
        <time>2019-05-22T07:09:53Z</time>
      </trkpt>
      <trkpt lat="40.22387" lon="-8.44276">
        <ele>18.88</ele>
        <time>2019-05-22T07:10:08Z</time>
      </trkpt>
      <trkpt lat="40.22388" lon="-8.44281">
        <ele>19.36</ele>
        <time>2019-05-22T07:10:12Z</time>
      </trkpt>
      <trkpt lat="40.22392" lon="-8.44286">
        <ele>19.36</ele>
        <time>2019-05-22T07:10:17Z</time>
      </trkpt>
      <trkpt lat="40.22405" lon="-8.44286">
        <ele>18.88</ele>
        <time>2019-05-22T07:10:32Z</time>
      </trkpt>
      <trkpt lat="40.22408" lon="-8.44281">
        <ele>18.88</ele>
        <time>2019-05-22T07:10:37Z</time>
      </trkpt>
      <trkpt lat="40.22412" lon="-8.44275">
        <ele>19.36</ele>
        <time>2019-05-22T07:10:42Z</time>
      </trkpt>
      <trkpt lat="40.22413" lon="-8.44272">
        <ele>18.88</ele>
        <time>2019-05-22T07:10:44Z</time>
      </trkpt>
      <trkpt lat="40.22421" lon="-8.44265">
        <ele>18.88</ele>
        <time>2019-05-22T07:10:51Z</time>
      </trkpt>
      <trkpt lat="40.22432" lon="-8.44261">
        <ele>17.92</ele>
        <time>2019-05-22T07:11:01Z</time>
      </trkpt>
      <trkpt lat="40.22441" lon="-8.44259">
        <ele>18.88</ele>
        <time>2019-05-22T07:11:10Z</time>
      </trkpt>
      <trkpt lat="40.22443" lon="-8.4425">
        <ele>18.4</ele>
        <time>2019-05-22T07:11:16Z</time>
      </trkpt>
      <trkpt lat="40.22443" lon="-8.44246">
        <ele>17.44</ele>
        <time>2019-05-22T07:11:19Z</time>
      </trkpt>
      <trkpt lat="40.22449" lon="-8.44239">
        <ele>17.44</ele>
        <time>2019-05-22T07:11:26Z</time>
      </trkpt>
      <trkpt lat="40.22451" lon="-8.44239">
        <ele>17.92</ele>
        <time>2019-05-22T07:11:28Z</time>
      </trkpt>
      <trkpt lat="40.22457" lon="-8.4424">
        <ele>18.4</ele>
        <time>2019-05-22T07:11:34Z</time>
      </trkpt>
      <trkpt lat="40.22464" lon="-8.44249">
        <ele>17.92</ele>
        <time>2019-05-22T07:11:48Z</time>
      </trkpt>
      <trkpt lat="40.2248" lon="-8.44255">
        <ele>17.92</ele>
        <time>2019-05-22T07:12:03Z</time>
      </trkpt>
      <trkpt lat="40.22499" lon="-8.44264">
        <ele>17.44</ele>
        <time>2019-05-22T07:12:19Z</time>
      </trkpt>
      <trkpt lat="40.22518" lon="-8.44271">
        <ele>17.92</ele>
        <time>2019-05-22T07:12:35Z</time>
      </trkpt>
      <trkpt lat="40.22535" lon="-8.44276">
        <ele>17.44</ele>
        <time>2019-05-22T07:12:49Z</time>
      </trkpt>
      <trkpt lat="40.2255" lon="-8.44282">
        <ele>17.44</ele>
        <time>2019-05-22T07:13:02Z</time>
      </trkpt>
      <trkpt lat="40.2257" lon="-8.44289">
        <ele>16.48</ele>
        <time>2019-05-22T07:13:18Z</time>
      </trkpt>
      <trkpt lat="40.22586" lon="-8.44296">
        <ele>16.48</ele>
        <time>2019-05-22T07:13:32Z</time>
      </trkpt>
      <trkpt lat="40.22599" lon="-8.44311">
        <ele>16.48</ele>
        <time>2019-05-22T07:13:47Z</time>
      </trkpt>
      <trkpt lat="40.22612" lon="-8.44332">
        <ele>16.48</ele>
        <time>2019-05-22T07:14:03Z</time>
      </trkpt>
      <trkpt lat="40.22618" lon="-8.44348">
        <ele>16</ele>
        <time>2019-05-22T07:14:15Z</time>
      </trkpt>
      <trkpt lat="40.22626" lon="-8.44369">
        <ele>16.48</ele>
        <time>2019-05-22T07:14:30Z</time>
      </trkpt>
      <trkpt lat="40.2263" lon="-8.44381">
        <ele>16</ele>
        <time>2019-05-22T07:14:42Z</time>
      </trkpt>
      <trkpt lat="40.22643" lon="-8.44394">
        <ele>16</ele>
        <time>2019-05-22T07:14:56Z</time>
      </trkpt>
      <trkpt lat="40.22652" lon="-8.44396">
        <ele>15.52</ele>
        <time>2019-05-22T07:15:10Z</time>
      </trkpt>
      <trkpt lat="40.22668" lon="-8.44403">
        <ele>15.04</ele>
        <time>2019-05-22T07:15:24Z</time>
      </trkpt>
      <trkpt lat="40.22672" lon="-8.44404">
        <ele>15.52</ele>
        <time>2019-05-22T07:15:27Z</time>
      </trkpt>
      <trkpt lat="40.2269" lon="-8.44411">
        <ele>15.52</ele>
        <time>2019-05-22T07:15:44Z</time>
      </trkpt>
      <trkpt lat="40.22701" lon="-8.44414">
        <ele>15.52</ele>
        <time>2019-05-22T07:15:58Z</time>
      </trkpt>
      <trkpt lat="40.22712" lon="-8.44419">
        <ele>16</ele>
        <time>2019-05-22T07:16:10Z</time>
      </trkpt>
      <trkpt lat="40.22717" lon="-8.4442">
        <ele>16</ele>
        <time>2019-05-22T07:16:15Z</time>
      </trkpt>
      <trkpt lat="40.22738" lon="-8.44429">
        <ele>16</ele>
        <time>2019-05-22T07:16:33Z</time>
      </trkpt>
      <trkpt lat="40.2274" lon="-8.4443">
        <ele>15.52</ele>
        <time>2019-05-22T07:16:36Z</time>
      </trkpt>
      <trkpt lat="40.22747" lon="-8.44433">
        <ele>15.52</ele>
        <time>2019-05-22T07:16:42Z</time>
      </trkpt>
      <trkpt lat="40.22767" lon="-8.44445">
        <ele>16.48</ele>
        <time>2019-05-22T07:16:59Z</time>
      </trkpt>
      <trkpt lat="40.22785" lon="-8.44456">
        <ele>15.52</ele>
        <time>2019-05-22T07:17:15Z</time>
      </trkpt>
      <trkpt lat="40.22802" lon="-8.44469">
        <ele>15.52</ele>
        <time>2019-05-22T07:17:30Z</time>
      </trkpt>
      <trkpt lat="40.22816" lon="-8.44479">
        <ele>15.52</ele>
        <time>2019-05-22T07:17:43Z</time>
      </trkpt>
      <trkpt lat="40.22819" lon="-8.44485">
        <ele>15.52</ele>
        <time>2019-05-22T07:17:48Z</time>
      </trkpt>
      <trkpt lat="40.22826" lon="-8.44491">
        <ele>15.04</ele>
        <time>2019-05-22T07:17:55Z</time>
      </trkpt>
      <trkpt lat="40.22833" lon="-8.44498">
        <ele>16</ele>
        <time>2019-05-22T07:18:06Z</time>
      </trkpt>
      <trkpt lat="40.22848" lon="-8.44508">
        <ele>15.52</ele>
        <time>2019-05-22T07:18:19Z</time>
      </trkpt>
      <trkpt lat="40.22865" lon="-8.44519">
        <ele>15.52</ele>
        <time>2019-05-22T07:18:35Z</time>
      </trkpt>
      <trkpt lat="40.22879" lon="-8.4453">
        <ele>16</ele>
        <time>2019-05-22T07:18:48Z</time>
      </trkpt>
      <trkpt lat="40.22894" lon="-8.44542">
        <ele>15.52</ele>
        <time>2019-05-22T07:19:03Z</time>
      </trkpt>
      <trkpt lat="40.2291" lon="-8.44557">
        <ele>15.52</ele>
        <time>2019-05-22T07:19:20Z</time>
      </trkpt>
      <trkpt lat="40.22924" lon="-8.44568">
        <ele>15.52</ele>
        <time>2019-05-22T07:19:33Z</time>
      </trkpt>
      <trkpt lat="40.22934" lon="-8.44573">
        <ele>16</ele>
        <time>2019-05-22T07:19:47Z</time>
      </trkpt>
      <trkpt lat="40.22945" lon="-8.44582">
        <ele>15.52</ele>
        <time>2019-05-22T07:19:59Z</time>
      </trkpt>
      <trkpt lat="40.22959" lon="-8.44595">
        <ele>16</ele>
        <time>2019-05-22T07:20:13Z</time>
      </trkpt>
      <trkpt lat="40.22974" lon="-8.44606">
        <ele>15.52</ele>
        <time>2019-05-22T07:20:27Z</time>
      </trkpt>
      <trkpt lat="40.22988" lon="-8.44616">
        <ele>15.04</ele>
        <time>2019-05-22T07:20:40Z</time>
      </trkpt>
      <trkpt lat="40.23002" lon="-8.44628">
        <ele>15.52</ele>
        <time>2019-05-22T07:20:54Z</time>
      </trkpt>
      <trkpt lat="40.23019" lon="-8.4464">
        <ele>15.04</ele>
        <time>2019-05-22T07:21:09Z</time>
      </trkpt>
      <trkpt lat="40.23035" lon="-8.44653">
        <ele>15.04</ele>
        <time>2019-05-22T07:21:25Z</time>
      </trkpt>
      <trkpt lat="40.2305" lon="-8.44664">
        <ele>15.52</ele>
        <time>2019-05-22T07:21:39Z</time>
      </trkpt>
      <trkpt lat="40.23065" lon="-8.44674">
        <ele>15.52</ele>
        <time>2019-05-22T07:21:53Z</time>
      </trkpt>
      <trkpt lat="40.23068" lon="-8.44677">
        <ele>15.52</ele>
        <time>2019-05-22T07:21:56Z</time>
      </trkpt>
      <trkpt lat="40.23075" lon="-8.44682">
        <ele>16</ele>
        <time>2019-05-22T07:22:02Z</time>
      </trkpt>
      <trkpt lat="40.23092" lon="-8.44695">
        <ele>15.52</ele>
        <time>2019-05-22T07:22:19Z</time>
      </trkpt>
      <trkpt lat="40.2311" lon="-8.44708">
        <ele>15.52</ele>
        <time>2019-05-22T07:22:35Z</time>
      </trkpt>
      <trkpt lat="40.23119" lon="-8.44715">
        <ele>15.52</ele>
        <time>2019-05-22T07:22:46Z</time>
      </trkpt>
      <trkpt lat="40.23136" lon="-8.44727">
        <ele>15.52</ele>
        <time>2019-05-22T07:23:02Z</time>
      </trkpt>
      <trkpt lat="40.23149" lon="-8.44736">
        <ele>15.52</ele>
        <time>2019-05-22T07:23:15Z</time>
      </trkpt>
      <trkpt lat="40.23166" lon="-8.44749">
        <ele>16</ele>
        <time>2019-05-22T07:23:32Z</time>
      </trkpt>
      <trkpt lat="40.23181" lon="-8.44761">
        <ele>15.52</ele>
        <time>2019-05-22T07:23:47Z</time>
      </trkpt>
      <trkpt lat="40.23195" lon="-8.44771">
        <ele>15.52</ele>
        <time>2019-05-22T07:24:00Z</time>
      </trkpt>
      <trkpt lat="40.23211" lon="-8.44784">
        <ele>15.04</ele>
        <time>2019-05-22T07:24:16Z</time>
      </trkpt>
      <trkpt lat="40.23227" lon="-8.44794">
        <ele>16</ele>
        <time>2019-05-22T07:24:31Z</time>
      </trkpt>
      <trkpt lat="40.23242" lon="-8.44807">
        <ele>15.52</ele>
        <time>2019-05-22T07:24:46Z</time>
      </trkpt>
      <trkpt lat="40.23258" lon="-8.44819">
        <ele>16</ele>
        <time>2019-05-22T07:25:02Z</time>
      </trkpt>
      <trkpt lat="40.23274" lon="-8.44831">
        <ele>15.52</ele>
        <time>2019-05-22T07:25:17Z</time>
      </trkpt>
      <trkpt lat="40.23291" lon="-8.44844">
        <ele>16</ele>
        <time>2019-05-22T07:25:33Z</time>
      </trkpt>
      <trkpt lat="40.23303" lon="-8.44853">
        <ele>16.48</ele>
        <time>2019-05-22T07:25:44Z</time>
      </trkpt>
      <trkpt lat="40.23315" lon="-8.44859">
        <ele>16.48</ele>
        <time>2019-05-22T07:25:58Z</time>
      </trkpt>
      <trkpt lat="40.23325" lon="-8.44866">
        <ele>16</ele>
        <time>2019-05-22T07:26:10Z</time>
      </trkpt>
      <trkpt lat="40.23343" lon="-8.44876">
        <ele>16.96</ele>
        <time>2019-05-22T07:26:25Z</time>
      </trkpt>
      <trkpt lat="40.23361" lon="-8.44886">
        <ele>16.96</ele>
        <time>2019-05-22T07:26:41Z</time>
      </trkpt>
      <trkpt lat="40.2338" lon="-8.44892">
        <ele>16.48</ele>
        <time>2019-05-22T07:26:57Z</time>
      </trkpt>
      <trkpt lat="40.23398" lon="-8.44897">
        <ele>16.96</ele>
        <time>2019-05-22T07:27:11Z</time>
      </trkpt>
      <trkpt lat="40.23415" lon="-8.44902">
        <ele>16.48</ele>
        <time>2019-05-22T07:27:25Z</time>
      </trkpt>
      <trkpt lat="40.23432" lon="-8.44907">
        <ele>17.44</ele>
        <time>2019-05-22T07:27:38Z</time>
      </trkpt>
      <trkpt lat="40.23447" lon="-8.44912">
        <ele>16.96</ele>
        <time>2019-05-22T07:27:51Z</time>
      </trkpt>
      <trkpt lat="40.23461" lon="-8.44918">
        <ele>16.96</ele>
        <time>2019-05-22T07:28:04Z</time>
      </trkpt>
      <trkpt lat="40.23463" lon="-8.44917">
        <ele>16.96</ele>
        <time>2019-05-22T07:28:05Z</time>
      </trkpt>
      <trkpt lat="40.23481" lon="-8.44922">
        <ele>16.96</ele>
        <time>2019-05-22T07:28:21Z</time>
      </trkpt>
      <trkpt lat="40.23495" lon="-8.44927">
        <ele>16.96</ele>
        <time>2019-05-22T07:28:34Z</time>
      </trkpt>
      <trkpt lat="40.2351" lon="-8.44935">
        <ele>17.44</ele>
        <time>2019-05-22T07:28:48Z</time>
      </trkpt>
      <trkpt lat="40.23526" lon="-8.44945">
        <ele>16.96</ele>
        <time>2019-05-22T07:29:03Z</time>
      </trkpt>
      <trkpt lat="40.23545" lon="-8.44952">
        <ele>17.44</ele>
        <time>2019-05-22T07:29:18Z</time>
      </trkpt>
      <trkpt lat="40.23564" lon="-8.4496">
        <ele>16.96</ele>
        <time>2019-05-22T07:29:34Z</time>
      </trkpt>
      <trkpt lat="40.23582" lon="-8.44969">
        <ele>16.48</ele>
        <time>2019-05-22T07:29:50Z</time>
      </trkpt>
      <trkpt lat="40.23599" lon="-8.44977">
        <ele>16</ele>
        <time>2019-05-22T07:30:04Z</time>
      </trkpt>
      <trkpt lat="40.23617" lon="-8.44986">
        <ele>16.96</ele>
        <time>2019-05-22T07:30:19Z</time>
      </trkpt>
      <trkpt lat="40.23634" lon="-8.44995">
        <ele>16.48</ele>
        <time>2019-05-22T07:30:33Z</time>
      </trkpt>
      <trkpt lat="40.23653" lon="-8.45004">
        <ele>16.48</ele>
        <time>2019-05-22T07:30:49Z</time>
      </trkpt>
      <trkpt lat="40.23671" lon="-8.45012">
        <ele>16.48</ele>
        <time>2019-05-22T07:31:05Z</time>
      </trkpt>
      <trkpt lat="40.23689" lon="-8.45022">
        <ele>16.48</ele>
        <time>2019-05-22T07:31:21Z</time>
      </trkpt>
      <trkpt lat="40.23709" lon="-8.45031">
        <ele>16.48</ele>
        <time>2019-05-22T07:31:38Z</time>
      </trkpt>
      <trkpt lat="40.23729" lon="-8.45041">
        <ele>16.48</ele>
        <time>2019-05-22T07:31:55Z</time>
      </trkpt>
      <trkpt lat="40.23746" lon="-8.4505">
        <ele>16</ele>
        <time>2019-05-22T07:32:10Z</time>
      </trkpt>
      <trkpt lat="40.23759" lon="-8.45056">
        <ele>16.96</ele>
        <time>2019-05-22T07:32:25Z</time>
      </trkpt>
      <trkpt lat="40.23771" lon="-8.45063">
        <ele>16.48</ele>
        <time>2019-05-22T07:32:40Z</time>
      </trkpt>
      <trkpt lat="40.23787" lon="-8.45073">
        <ele>16.96</ele>
        <time>2019-05-22T07:32:54Z</time>
      </trkpt>
      <trkpt lat="40.23802" lon="-8.45085">
        <ele>16.96</ele>
        <time>2019-05-22T07:33:08Z</time>
      </trkpt>
      <trkpt lat="40.23822" lon="-8.45097">
        <ele>16</ele>
        <time>2019-05-22T07:33:26Z</time>
      </trkpt>
      <trkpt lat="40.23844" lon="-8.45111">
        <ele>16</ele>
        <time>2019-05-22T07:33:44Z</time>
      </trkpt>
      <trkpt lat="40.23862" lon="-8.45121">
        <ele>16.96</ele>
        <time>2019-05-22T07:33:59Z</time>
      </trkpt>
      <trkpt lat="40.2388" lon="-8.45134">
        <ele>16.48</ele>
        <time>2019-05-22T07:34:16Z</time>
      </trkpt>
      <trkpt lat="40.239" lon="-8.45145">
        <ele>16.48</ele>
        <time>2019-05-22T07:34:34Z</time>
      </trkpt>
      <trkpt lat="40.23925" lon="-8.45161">
        <ele>16.96</ele>
        <time>2019-05-22T07:34:55Z</time>
      </trkpt>
      <trkpt lat="40.23944" lon="-8.45172">
        <ele>16.96</ele>
        <time>2019-05-22T07:35:11Z</time>
      </trkpt>
      <trkpt lat="40.23963" lon="-8.45184">
        <ele>16.48</ele>
        <time>2019-05-22T07:35:28Z</time>
      </trkpt>
      <trkpt lat="40.2398" lon="-8.45194">
        <ele>16.48</ele>
        <time>2019-05-22T07:35:43Z</time>
      </trkpt>
      <trkpt lat="40.23989" lon="-8.45197">
        <ele>16.48</ele>
        <time>2019-05-22T07:35:51Z</time>
      </trkpt>
      <trkpt lat="40.24007" lon="-8.45204">
        <ele>16.96</ele>
        <time>2019-05-22T07:36:06Z</time>
      </trkpt>
      <trkpt lat="40.24018" lon="-8.45209">
        <ele>16.96</ele>
        <time>2019-05-22T07:36:16Z</time>
      </trkpt>
      <trkpt lat="40.2403" lon="-8.45211">
        <ele>16.96</ele>
        <time>2019-05-22T07:36:33Z</time>
      </trkpt>
      <trkpt lat="40.24048" lon="-8.45212">
        <ele>16.96</ele>
        <time>2019-05-22T07:36:48Z</time>
      </trkpt>
      <trkpt lat="40.24071" lon="-8.45213">
        <ele>16.96</ele>
        <time>2019-05-22T07:37:05Z</time>
      </trkpt>
      <trkpt lat="40.24084" lon="-8.45213">
        <ele>16.96</ele>
        <time>2019-05-22T07:37:21Z</time>
      </trkpt>
      <trkpt lat="40.24106" lon="-8.45214">
        <ele>16.96</ele>
        <time>2019-05-22T07:37:39Z</time>
      </trkpt>
      <trkpt lat="40.24127" lon="-8.45213">
        <ele>16.96</ele>
        <time>2019-05-22T07:37:56Z</time>
      </trkpt>
      <trkpt lat="40.24147" lon="-8.45214">
        <ele>17.44</ele>
        <time>2019-05-22T07:38:12Z</time>
      </trkpt>
      <trkpt lat="40.24168" lon="-8.45215">
        <ele>16.96</ele>
        <time>2019-05-22T07:38:28Z</time>
      </trkpt>
      <trkpt lat="40.2419" lon="-8.45215">
        <ele>17.44</ele>
        <time>2019-05-22T07:38:45Z</time>
      </trkpt>
      <trkpt lat="40.24202" lon="-8.45215">
        <ele>16.48</ele>
        <time>2019-05-22T07:38:55Z</time>
      </trkpt>
      <trkpt lat="40.24224" lon="-8.45214">
        <ele>17.44</ele>
        <time>2019-05-22T07:39:15Z</time>
      </trkpt>
      <trkpt lat="40.24235" lon="-8.45216">
        <ele>17.44</ele>
        <time>2019-05-22T07:39:30Z</time>
      </trkpt>
      <trkpt lat="40.24236" lon="-8.45215">
        <ele>16.96</ele>
        <time>2019-05-22T07:39:35Z</time>
      </trkpt>
      <trkpt lat="40.24241" lon="-8.45213">
        <ele>17.92</ele>
        <time>2019-05-22T07:39:39Z</time>
      </trkpt>
      <trkpt lat="40.24264" lon="-8.45214">
        <ele>17.92</ele>
        <time>2019-05-22T07:39:57Z</time>
      </trkpt>
      <trkpt lat="40.24283" lon="-8.45216">
        <ele>16.96</ele>
        <time>2019-05-22T07:40:12Z</time>
      </trkpt>
      <trkpt lat="40.24295" lon="-8.45215">
        <ele>16.96</ele>
        <time>2019-05-22T07:40:27Z</time>
      </trkpt>
      <trkpt lat="40.24306" lon="-8.45217">
        <ele>16</ele>
        <time>2019-05-22T07:40:41Z</time>
      </trkpt>
      <trkpt lat="40.24327" lon="-8.45217">
        <ele>16.96</ele>
        <time>2019-05-22T07:40:58Z</time>
      </trkpt>
      <trkpt lat="40.24347" lon="-8.45218">
        <ele>16</ele>
        <time>2019-05-22T07:41:14Z</time>
      </trkpt>
      <trkpt lat="40.24361" lon="-8.45218">
        <ele>16.48</ele>
        <time>2019-05-22T07:41:28Z</time>
      </trkpt>
      <trkpt lat="40.24384" lon="-8.45219">
        <ele>16</ele>
        <time>2019-05-22T07:41:46Z</time>
      </trkpt>
      <trkpt lat="40.24404" lon="-8.45221">
        <ele>15.52</ele>
        <time>2019-05-22T07:42:02Z</time>
      </trkpt>
      <trkpt lat="40.24423" lon="-8.4522">
        <ele>16</ele>
        <time>2019-05-22T07:42:19Z</time>
      </trkpt>
      <trkpt lat="40.24433" lon="-8.4522">
        <ele>16</ele>
        <time>2019-05-22T07:42:27Z</time>
      </trkpt>
      <trkpt lat="40.24446" lon="-8.4522">
        <ele>15.52</ele>
        <time>2019-05-22T07:42:37Z</time>
      </trkpt>
      <trkpt lat="40.24452" lon="-8.4522">
        <ele>15.52</ele>
        <time>2019-05-22T07:42:42Z</time>
      </trkpt>
      <trkpt lat="40.24454" lon="-8.45223">
        <ele>16.48</ele>
        <time>2019-05-22T07:42:55Z</time>
      </trkpt>
      <trkpt lat="40.24455" lon="-8.45222">
        <ele>15.52</ele>
        <time>2019-05-22T07:43:11Z</time>
      </trkpt>
      <trkpt lat="40.24453" lon="-8.45222">
        <ele>15.52</ele>
        <time>2019-05-22T07:43:39Z</time>
      </trkpt>
      <trkpt lat="40.24453" lon="-8.4522">
        <ele>16</ele>
        <time>2019-05-22T07:44:12Z</time>
      </trkpt>
      <trkpt lat="40.24456" lon="-8.45225">
        <ele>15.52</ele>
        <time>2019-05-22T07:44:31Z</time>
      </trkpt>
      <trkpt lat="40.24458" lon="-8.45224">
        <ele>15.52</ele>
        <time>2019-05-22T07:44:59Z</time>
      </trkpt>
      <trkpt lat="40.24458" lon="-8.45225">
        <ele>15.04</ele>
        <time>2019-05-22T07:45:08Z</time>
      </trkpt>
      <trkpt lat="40.24465" lon="-8.45234">
        <ele>15.52</ele>
        <time>2019-05-22T07:45:23Z</time>
      </trkpt>
      <trkpt lat="40.24466" lon="-8.45233">
        <ele>15.52</ele>
        <time>2019-05-22T07:45:53Z</time>
      </trkpt>
      <trkpt lat="40.24462" lon="-8.45227">
        <ele>15.04</ele>
        <time>2019-05-22T07:45:58Z</time>
      </trkpt>
      <trkpt lat="40.24463" lon="-8.45221">
        <ele>15.04</ele>
        <time>2019-05-22T07:46:03Z</time>
      </trkpt>
      <trkpt lat="40.24488" lon="-8.45222">
        <ele>15.04</ele>
        <time>2019-05-22T07:46:22Z</time>
      </trkpt>
      <trkpt lat="40.24512" lon="-8.45224">
        <ele>15.04</ele>
        <time>2019-05-22T07:46:41Z</time>
      </trkpt>
      <trkpt lat="40.24531" lon="-8.45225">
        <ele>15.04</ele>
        <time>2019-05-22T07:46:56Z</time>
      </trkpt>
      <trkpt lat="40.24548" lon="-8.45226">
        <ele>14.56</ele>
        <time>2019-05-22T07:47:09Z</time>
      </trkpt>
      <trkpt lat="40.24572" lon="-8.45227">
        <ele>15.04</ele>
        <time>2019-05-22T07:47:26Z</time>
      </trkpt>
      <trkpt lat="40.24591" lon="-8.45229">
        <ele>15.04</ele>
        <time>2019-05-22T07:47:41Z</time>
      </trkpt>
      <trkpt lat="40.24613" lon="-8.4523">
        <ele>15.04</ele>
        <time>2019-05-22T07:47:58Z</time>
      </trkpt>
      <trkpt lat="40.24634" lon="-8.4523">
        <ele>15.04</ele>
        <time>2019-05-22T07:48:14Z</time>
      </trkpt>
      <trkpt lat="40.24659" lon="-8.45228">
        <ele>15.04</ele>
        <time>2019-05-22T07:48:32Z</time>
      </trkpt>
      <trkpt lat="40.24681" lon="-8.45224">
        <ele>14.56</ele>
        <time>2019-05-22T07:48:50Z</time>
      </trkpt>
      <trkpt lat="40.24686" lon="-8.45223">
        <ele>14.08</ele>
        <time>2019-05-22T07:48:54Z</time>
      </trkpt>
      <trkpt lat="40.24708" lon="-8.45217">
        <ele>14.56</ele>
        <time>2019-05-22T07:49:11Z</time>
      </trkpt>
      <trkpt lat="40.24722" lon="-8.45214">
        <ele>15.04</ele>
        <time>2019-05-22T07:49:25Z</time>
      </trkpt>
      <trkpt lat="40.24736" lon="-8.45211">
        <ele>15.04</ele>
        <time>2019-05-22T07:49:38Z</time>
      </trkpt>
      <trkpt lat="40.24754" lon="-8.45208">
        <ele>14.56</ele>
        <time>2019-05-22T07:49:53Z</time>
      </trkpt>
      <trkpt lat="40.24777" lon="-8.45203">
        <ele>15.52</ele>
        <time>2019-05-22T07:50:12Z</time>
      </trkpt>
      <trkpt lat="40.248" lon="-8.45203">
        <ele>15.04</ele>
        <time>2019-05-22T07:50:30Z</time>
      </trkpt>
      <trkpt lat="40.2482" lon="-8.4521">
        <ele>15.52</ele>
        <time>2019-05-22T07:50:47Z</time>
      </trkpt>
      <trkpt lat="40.24821" lon="-8.45211">
        <ele>15.52</ele>
        <time>2019-05-22T07:51:00Z</time>
      </trkpt>
      <trkpt lat="40.24823" lon="-8.45212">
        <ele>15.04</ele>
        <time>2019-05-22T07:51:23Z</time>
      </trkpt>
      <trkpt lat="40.24839" lon="-8.45226">
        <ele>14.56</ele>
        <time>2019-05-22T07:51:39Z</time>
      </trkpt>
      <trkpt lat="40.24852" lon="-8.45242">
        <ele>15.52</ele>
        <time>2019-05-22T07:51:53Z</time>
      </trkpt>
      <trkpt lat="40.24862" lon="-8.45263">
        <ele>15.52</ele>
        <time>2019-05-22T07:52:09Z</time>
      </trkpt>
      <trkpt lat="40.24871" lon="-8.45287">
        <ele>16</ele>
        <time>2019-05-22T07:52:25Z</time>
      </trkpt>
      <trkpt lat="40.24878" lon="-8.45314">
        <ele>15.52</ele>
        <time>2019-05-22T07:52:42Z</time>
      </trkpt>
      <trkpt lat="40.24883" lon="-8.45334">
        <ele>15.04</ele>
        <time>2019-05-22T07:52:55Z</time>
      </trkpt>
      <trkpt lat="40.24888" lon="-8.45356">
        <ele>15.52</ele>
        <time>2019-05-22T07:53:10Z</time>
      </trkpt>
      <trkpt lat="40.24893" lon="-8.45381">
        <ele>15.04</ele>
        <time>2019-05-22T07:53:26Z</time>
      </trkpt>
      <trkpt lat="40.24898" lon="-8.45403">
        <ele>16</ele>
        <time>2019-05-22T07:53:42Z</time>
      </trkpt>
      <trkpt lat="40.249" lon="-8.45413">
        <ele>16</ele>
        <time>2019-05-22T07:53:55Z</time>
      </trkpt>
      <trkpt lat="40.24918" lon="-8.45422">
        <ele>16.96</ele>
        <time>2019-05-22T07:54:11Z</time>
      </trkpt>
      <trkpt lat="40.24921" lon="-8.45423">
        <ele>16.96</ele>
        <time>2019-05-22T07:54:13Z</time>
      </trkpt>
      <trkpt lat="40.24928" lon="-8.45419">
        <ele>16.96</ele>
        <time>2019-05-22T07:54:20Z</time>
      </trkpt>
      <trkpt lat="40.24942" lon="-8.45416">
        <ele>16.96</ele>
        <time>2019-05-22T07:54:31Z</time>
      </trkpt>
      <trkpt lat="40.24948" lon="-8.45415">
        <ele>16.96</ele>
        <time>2019-05-22T07:54:36Z</time>
      </trkpt>
      <trkpt lat="40.24968" lon="-8.4541">
        <ele>16</ele>
        <time>2019-05-22T07:54:52Z</time>
      </trkpt>
      <trkpt lat="40.24991" lon="-8.45402">
        <ele>17.44</ele>
        <time>2019-05-22T07:55:10Z</time>
      </trkpt>
      <trkpt lat="40.2501" lon="-8.45395">
        <ele>16</ele>
        <time>2019-05-22T07:55:27Z</time>
      </trkpt>
      <trkpt lat="40.25024" lon="-8.45387">
        <ele>16</ele>
        <time>2019-05-22T07:55:40Z</time>
      </trkpt>
      <trkpt lat="40.25043" lon="-8.45379">
        <ele>16.96</ele>
        <time>2019-05-22T07:55:56Z</time>
      </trkpt>
      <trkpt lat="40.25045" lon="-8.45377">
        <ele>17.44</ele>
        <time>2019-05-22T07:55:58Z</time>
      </trkpt>
      <trkpt lat="40.25057" lon="-8.45371">
        <ele>17.44</ele>
        <time>2019-05-22T07:56:12Z</time>
      </trkpt>
      <trkpt lat="40.25068" lon="-8.4536">
        <ele>17.44</ele>
        <time>2019-05-22T07:56:24Z</time>
      </trkpt>
      <trkpt lat="40.25078" lon="-8.45344">
        <ele>17.92</ele>
        <time>2019-05-22T07:56:37Z</time>
      </trkpt>
      <trkpt lat="40.25082" lon="-8.45337">
        <ele>17.92</ele>
        <time>2019-05-22T07:56:43Z</time>
      </trkpt>
      <trkpt lat="40.25083" lon="-8.45324">
        <ele>17.92</ele>
        <time>2019-05-22T07:56:55Z</time>
      </trkpt>
      <trkpt lat="40.25082" lon="-8.45322">
        <ele>17.92</ele>
        <time>2019-05-22T07:57:09Z</time>
      </trkpt>
      <trkpt lat="40.25091" lon="-8.4531">
        <ele>18.4</ele>
        <time>2019-05-22T07:57:20Z</time>
      </trkpt>
      <trkpt lat="40.25098" lon="-8.45302">
        <ele>18.4</ele>
        <time>2019-05-22T07:57:28Z</time>
      </trkpt>
      <trkpt lat="40.25101" lon="-8.45286">
        <ele>18.4</ele>
        <time>2019-05-22T07:57:39Z</time>
      </trkpt>
      <trkpt lat="40.25107" lon="-8.45275">
        <ele>19.36</ele>
        <time>2019-05-22T07:57:49Z</time>
      </trkpt>
      <trkpt lat="40.25119" lon="-8.45283">
        <ele>18.4</ele>
        <time>2019-05-22T07:58:01Z</time>
      </trkpt>
      <trkpt lat="40.25127" lon="-8.4528">
        <ele>18.4</ele>
        <time>2019-05-22T07:58:13Z</time>
      </trkpt>
      <trkpt lat="40.25138" lon="-8.45262">
        <ele>19.36</ele>
        <time>2019-05-22T07:58:29Z</time>
      </trkpt>
      <trkpt lat="40.25139" lon="-8.45261">
        <ele>18.88</ele>
        <time>2019-05-22T07:58:30Z</time>
      </trkpt>
      <trkpt lat="40.25152" lon="-8.45241">
        <ele>17.92</ele>
        <time>2019-05-22T07:58:45Z</time>
      </trkpt>
      <trkpt lat="40.25165" lon="-8.45225">
        <ele>18.88</ele>
        <time>2019-05-22T07:58:58Z</time>
      </trkpt>
      <trkpt lat="40.25177" lon="-8.45219">
        <ele>17.92</ele>
        <time>2019-05-22T07:59:09Z</time>
      </trkpt>
      <trkpt lat="40.25184" lon="-8.45212">
        <ele>17.92</ele>
        <time>2019-05-22T07:59:21Z</time>
      </trkpt>
      <trkpt lat="40.25186" lon="-8.45211">
        <ele>18.4</ele>
        <time>2019-05-22T07:59:23Z</time>
      </trkpt>
      <trkpt lat="40.25189" lon="-8.4521">
        <ele>17.92</ele>
        <time>2019-05-22T07:59:38Z</time>
      </trkpt>
      <trkpt lat="40.25186" lon="-8.45213">
        <ele>18.4</ele>
        <time>2019-05-22T07:59:52Z</time>
      </trkpt>
      <trkpt lat="40.25189" lon="-8.45211">
        <ele>17.44</ele>
        <time>2019-05-22T08:00:01Z</time>
      </trkpt>
      <trkpt lat="40.25199" lon="-8.45202">
        <ele>17.44</ele>
        <time>2019-05-22T08:00:12Z</time>
      </trkpt>
      <trkpt lat="40.25208" lon="-8.45195">
        <ele>17.92</ele>
        <time>2019-05-22T08:00:21Z</time>
      </trkpt>
      <trkpt lat="40.25212" lon="-8.45191">
        <ele>17.44</ele>
        <time>2019-05-22T08:00:25Z</time>
      </trkpt>
      <trkpt lat="40.25229" lon="-8.45178">
        <ele>16.48</ele>
        <time>2019-05-22T08:00:39Z</time>
      </trkpt>
      <trkpt lat="40.25243" lon="-8.45166">
        <ele>16.96</ele>
        <time>2019-05-22T08:00:52Z</time>
      </trkpt>
      <trkpt lat="40.25254" lon="-8.45157">
        <ele>16.48</ele>
        <time>2019-05-22T08:01:07Z</time>
      </trkpt>
      <trkpt lat="40.25267" lon="-8.45146">
        <ele>16</ele>
        <time>2019-05-22T08:01:20Z</time>
      </trkpt>
      <trkpt lat="40.25268" lon="-8.45145">
        <ele>16</ele>
        <time>2019-05-22T08:01:21Z</time>
      </trkpt>
      <trkpt lat="40.25283" lon="-8.4513">
        <ele>15.52</ele>
        <time>2019-05-22T08:01:35Z</time>
      </trkpt>
      <trkpt lat="40.25298" lon="-8.45114">
        <ele>15.04</ele>
        <time>2019-05-22T08:01:50Z</time>
      </trkpt>
      <trkpt lat="40.253" lon="-8.45106">
        <ele>15.52</ele>
        <time>2019-05-22T08:01:54Z</time>
      </trkpt>
      <trkpt lat="40.25312" lon="-8.45088">
        <ele>15.52</ele>
        <time>2019-05-22T08:02:09Z</time>
      </trkpt>
      <trkpt lat="40.25321" lon="-8.45086">
        <ele>14.56</ele>
        <time>2019-05-22T08:02:21Z</time>
      </trkpt>
      <trkpt lat="40.25324" lon="-8.45085">
        <ele>15.04</ele>
        <time>2019-05-22T08:02:24Z</time>
      </trkpt>
      <trkpt lat="40.25349" lon="-8.45096">
        <ele>15.04</ele>
        <time>2019-05-22T08:02:42Z</time>
      </trkpt>
      <trkpt lat="40.25371" lon="-8.45104">
        <ele>15.04</ele>
        <time>2019-05-22T08:03:00Z</time>
      </trkpt>
      <trkpt lat="40.25383" lon="-8.45109">
        <ele>14.56</ele>
        <time>2019-05-22T08:03:14Z</time>
      </trkpt>
      <trkpt lat="40.25394" lon="-8.45112">
        <ele>14.56</ele>
        <time>2019-05-22T08:03:28Z</time>
      </trkpt>
      <trkpt lat="40.25411" lon="-8.45118">
        <ele>15.04</ele>
        <time>2019-05-22T08:03:44Z</time>
      </trkpt>
      <trkpt lat="40.2543" lon="-8.45127">
        <ele>15.04</ele>
        <time>2019-05-22T08:03:58Z</time>
      </trkpt>
      <trkpt lat="40.25446" lon="-8.45136">
        <ele>15.04</ele>
        <time>2019-05-22T08:04:13Z</time>
      </trkpt>
      <trkpt lat="40.25468" lon="-8.45148">
        <ele>15.04</ele>
        <time>2019-05-22T08:04:29Z</time>
      </trkpt>
      <trkpt lat="40.25488" lon="-8.45159">
        <ele>15.04</ele>
        <time>2019-05-22T08:04:46Z</time>
      </trkpt>
      <trkpt lat="40.25505" lon="-8.45168">
        <ele>15.52</ele>
        <time>2019-05-22T08:05:00Z</time>
      </trkpt>
      <trkpt lat="40.25524" lon="-8.45178">
        <ele>15.52</ele>
        <time>2019-05-22T08:05:17Z</time>
      </trkpt>
      <trkpt lat="40.25543" lon="-8.45189">
        <ele>15.52</ele>
        <time>2019-05-22T08:05:33Z</time>
      </trkpt>
      <trkpt lat="40.25559" lon="-8.45198">
        <ele>16</ele>
        <time>2019-05-22T08:05:49Z</time>
      </trkpt>
      <trkpt lat="40.25571" lon="-8.45204">
        <ele>16.48</ele>
        <time>2019-05-22T08:06:02Z</time>
      </trkpt>
      <trkpt lat="40.25577" lon="-8.45205">
        <ele>16.96</ele>
        <time>2019-05-22T08:06:14Z</time>
      </trkpt>
      <trkpt lat="40.25598" lon="-8.45208">
        <ele>16.96</ele>
        <time>2019-05-22T08:06:30Z</time>
      </trkpt>
      <trkpt lat="40.25619" lon="-8.45207">
        <ele>16.96</ele>
        <time>2019-05-22T08:06:47Z</time>
      </trkpt>
      <trkpt lat="40.25638" lon="-8.45207">
        <ele>16.48</ele>
        <time>2019-05-22T08:07:02Z</time>
      </trkpt>
      <trkpt lat="40.25658" lon="-8.45207">
        <ele>16</ele>
        <time>2019-05-22T08:07:18Z</time>
      </trkpt>
      <trkpt lat="40.25665" lon="-8.45205">
        <ele>16</ele>
        <time>2019-05-22T08:07:27Z</time>
      </trkpt>
      <trkpt lat="40.25667" lon="-8.45201">
        <ele>15.52</ele>
        <time>2019-05-22T08:07:31Z</time>
      </trkpt>
      <trkpt lat="40.25673" lon="-8.45189">
        <ele>15.52</ele>
        <time>2019-05-22T08:07:46Z</time>
      </trkpt>
      <trkpt lat="40.25673" lon="-8.45189">
        <ele>15.52</ele>
        <time>2019-05-22T08:08:03Z</time>
      </trkpt>
      <trkpt lat="40.25672" lon="-8.45185">
        <ele>15.52</ele>
        <time>2019-05-22T08:08:19Z</time>
      </trkpt>
      <trkpt lat="40.25672" lon="-8.45184">
        <ele>15.04</ele>
        <time>2019-05-22T08:08:44Z</time>
      </trkpt>
      <trkpt lat="40.25673" lon="-8.45187">
        <ele>15.04</ele>
        <time>2019-05-22T08:08:56Z</time>
      </trkpt>
      <trkpt lat="40.25674" lon="-8.4519">
        <ele>15.52</ele>
        <time>2019-05-22T08:08:58Z</time>
      </trkpt>
      <trkpt lat="40.25679" lon="-8.45201">
        <ele>15.04</ele>
        <time>2019-05-22T08:09:06Z</time>
      </trkpt>
      <trkpt lat="40.25685" lon="-8.45202">
        <ele>16</ele>
        <time>2019-05-22T08:09:11Z</time>
      </trkpt>
      <trkpt lat="40.25706" lon="-8.45203">
        <ele>15.04</ele>
        <time>2019-05-22T08:09:27Z</time>
      </trkpt>
      <trkpt lat="40.25717" lon="-8.45203">
        <ele>15.52</ele>
        <time>2019-05-22T08:09:39Z</time>
      </trkpt>
      <trkpt lat="40.2574" lon="-8.45202">
        <ele>15.04</ele>
        <time>2019-05-22T08:09:55Z</time>
      </trkpt>
      <trkpt lat="40.25757" lon="-8.452">
        <ele>15.04</ele>
        <time>2019-05-22T08:10:10Z</time>
      </trkpt>
      <trkpt lat="40.25778" lon="-8.45194">
        <ele>15.52</ele>
        <time>2019-05-22T08:10:26Z</time>
      </trkpt>
      <trkpt lat="40.25791" lon="-8.45187">
        <ele>15.04</ele>
        <time>2019-05-22T08:10:37Z</time>
      </trkpt>
      <trkpt lat="40.25797" lon="-8.45183">
        <ele>15.04</ele>
        <time>2019-05-22T08:10:42Z</time>
      </trkpt>
      <trkpt lat="40.2581" lon="-8.45173">
        <ele>16</ele>
        <time>2019-05-22T08:10:55Z</time>
      </trkpt>
      <trkpt lat="40.25826" lon="-8.45161">
        <ele>15.52</ele>
        <time>2019-05-22T08:11:08Z</time>
      </trkpt>
      <trkpt lat="40.25839" lon="-8.45146">
        <ele>16</ele>
        <time>2019-05-22T08:11:22Z</time>
      </trkpt>
      <trkpt lat="40.25849" lon="-8.45132">
        <ele>15.52</ele>
        <time>2019-05-22T08:11:34Z</time>
      </trkpt>
      <trkpt lat="40.2585" lon="-8.4513">
        <ele>15.52</ele>
        <time>2019-05-22T08:11:36Z</time>
      </trkpt>
      <trkpt lat="40.25862" lon="-8.45111">
        <ele>14.56</ele>
        <time>2019-05-22T08:11:51Z</time>
      </trkpt>
      <trkpt lat="40.25872" lon="-8.45093">
        <ele>15.04</ele>
        <time>2019-05-22T08:12:06Z</time>
      </trkpt>
      <trkpt lat="40.25879" lon="-8.45076">
        <ele>15.04</ele>
        <time>2019-05-22T08:12:20Z</time>
      </trkpt>
      <trkpt lat="40.25886" lon="-8.45056">
        <ele>15.04</ele>
        <time>2019-05-22T08:12:34Z</time>
      </trkpt>
      <trkpt lat="40.25893" lon="-8.45039">
        <ele>15.52</ele>
        <time>2019-05-22T08:12:45Z</time>
      </trkpt>
      <trkpt lat="40.259" lon="-8.45019">
        <ele>15.04</ele>
        <time>2019-05-22T08:12:58Z</time>
      </trkpt>
      <trkpt lat="40.25906" lon="-8.44992">
        <ele>15.04</ele>
        <time>2019-05-22T08:13:13Z</time>
      </trkpt>
      <trkpt lat="40.25911" lon="-8.44983">
        <ele>14.56</ele>
        <time>2019-05-22T08:13:29Z</time>
      </trkpt>
      <trkpt lat="40.25919" lon="-8.4496">
        <ele>14.56</ele>
        <time>2019-05-22T08:13:43Z</time>
      </trkpt>
      <trkpt lat="40.25931" lon="-8.44943">
        <ele>15.04</ele>
        <time>2019-05-22T08:13:56Z</time>
      </trkpt>
      <trkpt lat="40.25931" lon="-8.44942">
        <ele>15.52</ele>
        <time>2019-05-22T08:13:57Z</time>
      </trkpt>
      <trkpt lat="40.25947" lon="-8.44931">
        <ele>14.56</ele>
        <time>2019-05-22T08:14:12Z</time>
      </trkpt>
      <trkpt lat="40.25965" lon="-8.44924">
        <ele>14.56</ele>
        <time>2019-05-22T08:14:28Z</time>
      </trkpt>
      <trkpt lat="40.25987" lon="-8.44917">
        <ele>14.56</ele>
        <time>2019-05-22T08:14:44Z</time>
      </trkpt>
      <trkpt lat="40.26004" lon="-8.44912">
        <ele>14.56</ele>
        <time>2019-05-22T08:14:56Z</time>
      </trkpt>
      <trkpt lat="40.26009" lon="-8.44909">
        <ele>15.04</ele>
        <time>2019-05-22T08:15:00Z</time>
      </trkpt>
      <trkpt lat="40.26012" lon="-8.44907">
        <ele>14.08</ele>
        <time>2019-05-22T08:15:03Z</time>
      </trkpt>
      <trkpt lat="40.26024" lon="-8.44895">
        <ele>14.56</ele>
        <time>2019-05-22T08:15:18Z</time>
      </trkpt>
      <trkpt lat="40.2604" lon="-8.44877">
        <ele>15.04</ele>
        <time>2019-05-22T08:15:34Z</time>
      </trkpt>
      <trkpt lat="40.26044" lon="-8.44872">
        <ele>14.56</ele>
        <time>2019-05-22T08:15:38Z</time>
      </trkpt>
      <trkpt lat="40.26057" lon="-8.44851">
        <ele>14.56</ele>
        <time>2019-05-22T08:15:54Z</time>
      </trkpt>
      <trkpt lat="40.26066" lon="-8.44836">
        <ele>15.04</ele>
        <time>2019-05-22T08:16:05Z</time>
      </trkpt>
      <trkpt lat="40.26072" lon="-8.44811">
        <ele>15.04</ele>
        <time>2019-05-22T08:16:21Z</time>
      </trkpt>
      <trkpt lat="40.26073" lon="-8.44809">
        <ele>15.04</ele>
        <time>2019-05-22T08:16:23Z</time>
      </trkpt>
      <trkpt lat="40.2608" lon="-8.44788">
        <ele>14.08</ele>
        <time>2019-05-22T08:16:36Z</time>
      </trkpt>
      <trkpt lat="40.26081" lon="-8.44782">
        <ele>14.08</ele>
        <time>2019-05-22T08:16:40Z</time>
      </trkpt>
      <trkpt lat="40.26085" lon="-8.44767">
        <ele>14.08</ele>
        <time>2019-05-22T08:16:49Z</time>
      </trkpt>
      <trkpt lat="40.26088" lon="-8.44757">
        <ele>13.6</ele>
        <time>2019-05-22T08:16:55Z</time>
      </trkpt>
      <trkpt lat="40.26089" lon="-8.44747">
        <ele>14.08</ele>
        <time>2019-05-22T08:17:01Z</time>
      </trkpt>
      <trkpt lat="40.26093" lon="-8.4473">
        <ele>14.08</ele>
        <time>2019-05-22T08:17:13Z</time>
      </trkpt>
      <trkpt lat="40.26096" lon="-8.44723">
        <ele>14.56</ele>
        <time>2019-05-22T08:17:17Z</time>
      </trkpt>
      <trkpt lat="40.26099" lon="-8.44716">
        <ele>14.56</ele>
        <time>2019-05-22T08:17:22Z</time>
      </trkpt>
      <trkpt lat="40.26113" lon="-8.44696">
        <ele>14.08</ele>
        <time>2019-05-22T08:17:37Z</time>
      </trkpt>
      <trkpt lat="40.26118" lon="-8.44696">
        <ele>13.6</ele>
        <time>2019-05-22T08:18:02Z</time>
      </trkpt>
      <trkpt lat="40.26119" lon="-8.44694">
        <ele>13.6</ele>
        <time>2019-05-22T08:18:04Z</time>
      </trkpt>
      <trkpt lat="40.26125" lon="-8.44676">
        <ele>13.12</ele>
        <time>2019-05-22T08:18:17Z</time>
      </trkpt>
      <trkpt lat="40.26126" lon="-8.44672">
        <ele>13.6</ele>
        <time>2019-05-22T08:18:20Z</time>
      </trkpt>
      <trkpt lat="40.26133" lon="-8.44646">
        <ele>14.08</ele>
        <time>2019-05-22T08:18:37Z</time>
      </trkpt>
      <trkpt lat="40.26151" lon="-8.44628">
        <ele>13.6</ele>
        <time>2019-05-22T08:18:51Z</time>
      </trkpt>
      <trkpt lat="40.26168" lon="-8.44617">
        <ele>13.12</ele>
        <time>2019-05-22T08:19:06Z</time>
      </trkpt>
      <trkpt lat="40.26189" lon="-8.44605">
        <ele>14.08</ele>
        <time>2019-05-22T08:19:22Z</time>
      </trkpt>
      <trkpt lat="40.2619" lon="-8.44604">
        <ele>13.6</ele>
        <time>2019-05-22T08:19:23Z</time>
      </trkpt>
      <trkpt lat="40.26208" lon="-8.44597">
        <ele>13.12</ele>
        <time>2019-05-22T08:19:37Z</time>
      </trkpt>
      <trkpt lat="40.26224" lon="-8.44592">
        <ele>13.6</ele>
        <time>2019-05-22T08:19:50Z</time>
      </trkpt>
      <trkpt lat="40.26231" lon="-8.44589">
        <ele>13.6</ele>
        <time>2019-05-22T08:19:55Z</time>
      </trkpt>
      <trkpt lat="40.26251" lon="-8.44584">
        <ele>13.6</ele>
        <time>2019-05-22T08:20:10Z</time>
      </trkpt>
      <trkpt lat="40.26267" lon="-8.44577">
        <ele>13.12</ele>
        <time>2019-05-22T08:20:25Z</time>
      </trkpt>
      <trkpt lat="40.26284" lon="-8.44571">
        <ele>13.12</ele>
        <time>2019-05-22T08:20:39Z</time>
      </trkpt>
      <trkpt lat="40.26301" lon="-8.44565">
        <ele>13.12</ele>
        <time>2019-05-22T08:20:53Z</time>
      </trkpt>
      <trkpt lat="40.26313" lon="-8.44557">
        <ele>13.6</ele>
        <time>2019-05-22T08:21:06Z</time>
      </trkpt>
      <trkpt lat="40.26325" lon="-8.44549">
        <ele>13.6</ele>
        <time>2019-05-22T08:21:18Z</time>
      </trkpt>
      <trkpt lat="40.26337" lon="-8.44544">
        <ele>13.6</ele>
        <time>2019-05-22T08:21:28Z</time>
      </trkpt>
      <trkpt lat="40.26355" lon="-8.44536">
        <ele>14.08</ele>
        <time>2019-05-22T08:21:44Z</time>
      </trkpt>
      <trkpt lat="40.26374" lon="-8.44531">
        <ele>13.6</ele>
        <time>2019-05-22T08:21:58Z</time>
      </trkpt>
      <trkpt lat="40.26393" lon="-8.44527">
        <ele>13.6</ele>
        <time>2019-05-22T08:22:13Z</time>
      </trkpt>
      <trkpt lat="40.26412" lon="-8.4452">
        <ele>14.08</ele>
        <time>2019-05-22T08:22:27Z</time>
      </trkpt>
      <trkpt lat="40.26428" lon="-8.44512">
        <ele>13.6</ele>
        <time>2019-05-22T08:22:41Z</time>
      </trkpt>
      <trkpt lat="40.26444" lon="-8.44502">
        <ele>14.56</ele>
        <time>2019-05-22T08:22:56Z</time>
      </trkpt>
      <trkpt lat="40.26456" lon="-8.44495">
        <ele>14.08</ele>
        <time>2019-05-22T08:23:07Z</time>
      </trkpt>
      <trkpt lat="40.26475" lon="-8.44484">
        <ele>15.04</ele>
        <time>2019-05-22T08:23:22Z</time>
      </trkpt>
      <trkpt lat="40.26487" lon="-8.44478">
        <ele>15.04</ele>
        <time>2019-05-22T08:23:37Z</time>
      </trkpt>
      <trkpt lat="40.26488" lon="-8.44477">
        <ele>14.56</ele>
        <time>2019-05-22T08:23:38Z</time>
      </trkpt>
      <trkpt lat="40.26493" lon="-8.44475">
        <ele>15.04</ele>
        <time>2019-05-22T08:23:42Z</time>
      </trkpt>
      <trkpt lat="40.26497" lon="-8.44473">
        <ele>14.08</ele>
        <time>2019-05-22T08:23:46Z</time>
      </trkpt>
      <trkpt lat="40.2652" lon="-8.44467">
        <ele>15.04</ele>
        <time>2019-05-22T08:24:04Z</time>
      </trkpt>
      <trkpt lat="40.26535" lon="-8.44464">
        <ele>15.52</ele>
        <time>2019-05-22T08:24:17Z</time>
      </trkpt>
      <trkpt lat="40.26548" lon="-8.44458">
        <ele>15.52</ele>
        <time>2019-05-22T08:24:30Z</time>
      </trkpt>
      <trkpt lat="40.26559" lon="-8.44458">
        <ele>15.52</ele>
        <time>2019-05-22T08:24:42Z</time>
      </trkpt>
      <trkpt lat="40.2656" lon="-8.44457">
        <ele>15.52</ele>
        <time>2019-05-22T08:24:43Z</time>
      </trkpt>
      <trkpt lat="40.26562" lon="-8.44449">
        <ele>15.52</ele>
        <time>2019-05-22T08:24:55Z</time>
      </trkpt>
      <trkpt lat="40.26572" lon="-8.44446">
        <ele>15.52</ele>
        <time>2019-05-22T08:25:08Z</time>
      </trkpt>
      <trkpt lat="40.26576" lon="-8.44445">
        <ele>15.52</ele>
        <time>2019-05-22T08:25:10Z</time>
      </trkpt>
      <trkpt lat="40.26593" lon="-8.44443">
        <ele>15.04</ele>
        <time>2019-05-22T08:25:22Z</time>
      </trkpt>
      <trkpt lat="40.26607" lon="-8.44451">
        <ele>15.04</ele>
        <time>2019-05-22T08:25:29Z</time>
      </trkpt>
      <trkpt lat="40.26613" lon="-8.4445">
        <ele>15.52</ele>
        <time>2019-05-22T08:25:43Z</time>
      </trkpt>
      <trkpt lat="40.26616" lon="-8.44447">
        <ele>15.04</ele>
        <time>2019-05-22T08:25:59Z</time>
      </trkpt>
      <trkpt lat="40.26619" lon="-8.44447">
        <ele>15.04</ele>
        <time>2019-05-22T08:26:25Z</time>
      </trkpt>
      <trkpt lat="40.26619" lon="-8.44443">
        <ele>15.04</ele>
        <time>2019-05-22T08:26:44Z</time>
      </trkpt>
      <trkpt lat="40.26618" lon="-8.44443">
        <ele>15.52</ele>
        <time>2019-05-22T08:27:15Z</time>
      </trkpt>
      <trkpt lat="40.26619" lon="-8.44443">
        <ele>16</ele>
        <time>2019-05-22T08:27:43Z</time>
      </trkpt>
      <trkpt lat="40.26618" lon="-8.44444">
        <ele>16.48</ele>
        <time>2019-05-22T08:28:07Z</time>
      </trkpt>
      <trkpt lat="40.26621" lon="-8.44446">
        <ele>16.48</ele>
        <time>2019-05-22T08:28:43Z</time>
      </trkpt>
      <trkpt lat="40.26621" lon="-8.44445">
        <ele>16.48</ele>
        <time>2019-05-22T08:29:08Z</time>
      </trkpt>
      <trkpt lat="40.26619" lon="-8.44444">
        <ele>16.48</ele>
        <time>2019-05-22T08:29:33Z</time>
      </trkpt>
      <trkpt lat="40.26616" lon="-8.44442">
        <ele>16</ele>
        <time>2019-05-22T08:29:53Z</time>
      </trkpt>
      <trkpt lat="40.26617" lon="-8.44446">
        <ele>16.48</ele>
        <time>2019-05-22T08:30:20Z</time>
      </trkpt>
      <trkpt lat="40.26616" lon="-8.44443">
        <ele>16</ele>
        <time>2019-05-22T08:30:46Z</time>
      </trkpt>
      <trkpt lat="40.26617" lon="-8.44445">
        <ele>16</ele>
        <time>2019-05-22T08:31:09Z</time>
      </trkpt>
      <trkpt lat="40.26618" lon="-8.44446">
        <ele>16.48</ele>
        <time>2019-05-22T08:31:45Z</time>
      </trkpt>
      <trkpt lat="40.26615" lon="-8.44447">
        <ele>16.96</ele>
        <time>2019-05-22T08:32:15Z</time>
      </trkpt>
      <trkpt lat="40.26614" lon="-8.44447">
        <ele>16.48</ele>
        <time>2019-05-22T08:32:50Z</time>
      </trkpt>
      <trkpt lat="40.26615" lon="-8.44444">
        <ele>16.96</ele>
        <time>2019-05-22T08:33:15Z</time>
      </trkpt>
      <trkpt lat="40.26616" lon="-8.44444">
        <ele>16.96</ele>
        <time>2019-05-22T08:33:32Z</time>
      </trkpt>
      <trkpt lat="40.26623" lon="-8.4445">
        <ele>16.96</ele>
        <time>2019-05-22T08:33:52Z</time>
      </trkpt>
      <trkpt lat="40.26626" lon="-8.44453">
        <ele>17.44</ele>
        <time>2019-05-22T08:33:55Z</time>
      </trkpt>
      <trkpt lat="40.26638" lon="-8.44461">
        <ele>17.44</ele>
        <time>2019-05-22T08:34:09Z</time>
      </trkpt>
      <trkpt lat="40.26654" lon="-8.44471">
        <ele>18.4</ele>
        <time>2019-05-22T08:34:24Z</time>
      </trkpt>
      <trkpt lat="40.26667" lon="-8.44478">
        <ele>18.88</ele>
        <time>2019-05-22T08:34:38Z</time>
      </trkpt>
      <trkpt lat="40.26682" lon="-8.44486">
        <ele>18.88</ele>
        <time>2019-05-22T08:34:52Z</time>
      </trkpt>
      <trkpt lat="40.26699" lon="-8.44495">
        <ele>19.36</ele>
        <time>2019-05-22T08:35:06Z</time>
      </trkpt>
      <trkpt lat="40.26707" lon="-8.44494">
        <ele>19.84</ele>
        <time>2019-05-22T08:35:14Z</time>
      </trkpt>
      <trkpt lat="40.2673" lon="-8.44477">
        <ele>19.84</ele>
        <time>2019-05-22T08:35:31Z</time>
      </trkpt>
      <trkpt lat="40.26731" lon="-8.44475">
        <ele>20.32</ele>
        <time>2019-05-22T08:35:34Z</time>
      </trkpt>
      <trkpt lat="40.26736" lon="-8.44473">
        <ele>20.32</ele>
        <time>2019-05-22T08:35:39Z</time>
      </trkpt>
      <trkpt lat="40.26754" lon="-8.44465">
        <ele>20.32</ele>
        <time>2019-05-22T08:35:55Z</time>
      </trkpt>
      <trkpt lat="40.26771" lon="-8.44457">
        <ele>20.81</ele>
        <time>2019-05-22T08:36:10Z</time>
      </trkpt>
      <trkpt lat="40.2679" lon="-8.44456">
        <ele>20.32</ele>
        <time>2019-05-22T08:36:25Z</time>
      </trkpt>
      <trkpt lat="40.26809" lon="-8.44458">
        <ele>21.29</ele>
        <time>2019-05-22T08:36:40Z</time>
      </trkpt>
      <trkpt lat="40.26827" lon="-8.4446">
        <ele>21.29</ele>
        <time>2019-05-22T08:36:55Z</time>
      </trkpt>
      <trkpt lat="40.26832" lon="-8.44464">
        <ele>21.77</ele>
        <time>2019-05-22T08:37:00Z</time>
      </trkpt>
      <trkpt lat="40.26834" lon="-8.44467">
        <ele>21.77</ele>
        <time>2019-05-22T08:37:03Z</time>
      </trkpt>
      <trkpt lat="40.26835" lon="-8.4447">
        <ele>21.77</ele>
        <time>2019-05-22T08:37:05Z</time>
      </trkpt>
      <trkpt lat="40.2684" lon="-8.44473">
        <ele>21.77</ele>
        <time>2019-05-22T08:37:21Z</time>
      </trkpt>
      <trkpt lat="40.2684" lon="-8.44474">
        <ele>21.77</ele>
        <time>2019-05-22T08:37:24Z</time>
      </trkpt>
      <trkpt lat="40.26844" lon="-8.44477">
        <ele>21.29</ele>
        <time>2019-05-22T08:37:28Z</time>
      </trkpt>
      <trkpt lat="40.26846" lon="-8.44479">
        <ele>21.77</ele>
        <time>2019-05-22T08:37:31Z</time>
      </trkpt>
      <trkpt lat="40.2686" lon="-8.44493">
        <ele>23.21</ele>
        <time>2019-05-22T08:37:46Z</time>
      </trkpt>
      <trkpt lat="40.26861" lon="-8.44493">
        <ele>22.73</ele>
        <time>2019-05-22T08:37:47Z</time>
      </trkpt>
      <trkpt lat="40.26869" lon="-8.44499">
        <ele>22.73</ele>
        <time>2019-05-22T08:37:55Z</time>
      </trkpt>
      <trkpt lat="40.26873" lon="-8.44502">
        <ele>23.21</ele>
        <time>2019-05-22T08:37:59Z</time>
      </trkpt>
      <trkpt lat="40.26892" lon="-8.44516">
        <ele>23.69</ele>
        <time>2019-05-22T08:38:17Z</time>
      </trkpt>
      <trkpt lat="40.26907" lon="-8.44526">
        <ele>24.65</ele>
        <time>2019-05-22T08:38:31Z</time>
      </trkpt>
      <trkpt lat="40.26921" lon="-8.44534">
        <ele>25.13</ele>
        <time>2019-05-22T08:38:43Z</time>
      </trkpt>
      <trkpt lat="40.26934" lon="-8.44544">
        <ele>25.61</ele>
        <time>2019-05-22T08:38:56Z</time>
      </trkpt>
      <trkpt lat="40.2695" lon="-8.44551">
        <ele>26.57</ele>
        <time>2019-05-22T08:39:11Z</time>
      </trkpt>
      <trkpt lat="40.26967" lon="-8.4456">
        <ele>27.53</ele>
        <time>2019-05-22T08:39:26Z</time>
      </trkpt>
      <trkpt lat="40.26971" lon="-8.44562">
        <ele>28.5</ele>
        <time>2019-05-22T08:39:30Z</time>
      </trkpt>
      <trkpt lat="40.26981" lon="-8.44569">
        <ele>28.5</ele>
        <time>2019-05-22T08:39:39Z</time>
      </trkpt>
      <trkpt lat="40.26983" lon="-8.44571">
        <ele>28.98</ele>
        <time>2019-05-22T08:39:42Z</time>
      </trkpt>
      <trkpt lat="40.26998" lon="-8.44581">
        <ele>29.94</ele>
        <time>2019-05-22T08:39:57Z</time>
      </trkpt>
      <trkpt lat="40.27007" lon="-8.44589">
        <ele>31.38</ele>
        <time>2019-05-22T08:40:09Z</time>
      </trkpt>
      <trkpt lat="40.27014" lon="-8.44594">
        <ele>31.86</ele>
        <time>2019-05-22T08:40:23Z</time>
      </trkpt>
      <trkpt lat="40.2702" lon="-8.44602">
        <ele>32.34</ele>
        <time>2019-05-22T08:40:38Z</time>
      </trkpt>
      <trkpt lat="40.27028" lon="-8.44622">
        <ele>33.78</ele>
        <time>2019-05-22T08:40:53Z</time>
      </trkpt>
      <trkpt lat="40.27037" lon="-8.44641">
        <ele>34.74</ele>
        <time>2019-05-22T08:41:08Z</time>
      </trkpt>
      <trkpt lat="40.27043" lon="-8.4466">
        <ele>35.71</ele>
        <time>2019-05-22T08:41:21Z</time>
      </trkpt>
      <trkpt lat="40.27046" lon="-8.44675">
        <ele>36.19</ele>
        <time>2019-05-22T08:41:32Z</time>
      </trkpt>
      <trkpt lat="40.27049" lon="-8.44699">
        <ele>37.63</ele>
        <time>2019-05-22T08:41:47Z</time>
      </trkpt>
      <trkpt lat="40.2705" lon="-8.44723">
        <ele>39.07</ele>
        <time>2019-05-22T08:42:03Z</time>
      </trkpt>
      <trkpt lat="40.2705" lon="-8.44744">
        <ele>40.51</ele>
        <time>2019-05-22T08:42:17Z</time>
      </trkpt>
      <trkpt lat="40.2705" lon="-8.44767">
        <ele>41.47</ele>
        <time>2019-05-22T08:42:32Z</time>
      </trkpt>
      <trkpt lat="40.2705" lon="-8.44769">
        <ele>41.47</ele>
        <time>2019-05-22T08:42:34Z</time>
      </trkpt>
      <trkpt lat="40.27051" lon="-8.44798">
        <ele>43.4</ele>
        <time>2019-05-22T08:42:53Z</time>
      </trkpt>
      <trkpt lat="40.2705" lon="-8.44823">
        <ele>44.36</ele>
        <time>2019-05-22T08:43:08Z</time>
      </trkpt>
      <trkpt lat="40.27051" lon="-8.44846">
        <ele>45.8</ele>
        <time>2019-05-22T08:43:24Z</time>
      </trkpt>
      <trkpt lat="40.27053" lon="-8.44868">
        <ele>47.24</ele>
        <time>2019-05-22T08:43:38Z</time>
      </trkpt>
      <trkpt lat="40.2706" lon="-8.44889">
        <ele>47.72</ele>
        <time>2019-05-22T08:43:53Z</time>
      </trkpt>
      <trkpt lat="40.27075" lon="-8.44907">
        <ele>49.65</ele>
        <time>2019-05-22T08:44:10Z</time>
      </trkpt>
      <trkpt lat="40.27082" lon="-8.44913">
        <ele>50.13</ele>
        <time>2019-05-22T08:44:17Z</time>
      </trkpt>
      <trkpt lat="40.2709" lon="-8.44919">
        <ele>50.61</ele>
        <time>2019-05-22T08:44:30Z</time>
      </trkpt>
      <trkpt lat="40.27091" lon="-8.44921">
        <ele>50.61</ele>
        <time>2019-05-22T08:44:32Z</time>
      </trkpt>
      <trkpt lat="40.27105" lon="-8.44925">
        <ele>51.09</ele>
        <time>2019-05-22T08:44:45Z</time>
      </trkpt>
      <trkpt lat="40.27112" lon="-8.44926">
        <ele>52.05</ele>
        <time>2019-05-22T08:44:52Z</time>
      </trkpt>
      <trkpt lat="40.27118" lon="-8.44932">
        <ele>53.01</ele>
        <time>2019-05-22T08:45:01Z</time>
      </trkpt>
      <trkpt lat="40.27128" lon="-8.44923">
        <ele>53.97</ele>
        <time>2019-05-22T08:45:10Z</time>
      </trkpt>
      <trkpt lat="40.2713" lon="-8.4492">
        <ele>53.49</ele>
        <time>2019-05-22T08:45:12Z</time>
      </trkpt>
      <trkpt lat="40.27147" lon="-8.44938">
        <ele>54.45</ele>
        <time>2019-05-22T08:45:27Z</time>
      </trkpt>
      <trkpt lat="40.27164" lon="-8.44945">
        <ele>55.89</ele>
        <time>2019-05-22T08:45:41Z</time>
      </trkpt>
      <trkpt lat="40.27179" lon="-8.44952">
        <ele>56.86</ele>
        <time>2019-05-22T08:45:55Z</time>
      </trkpt>
      <trkpt lat="40.27192" lon="-8.44957">
        <ele>57.34</ele>
        <time>2019-05-22T08:46:07Z</time>
      </trkpt>
      <trkpt lat="40.27194" lon="-8.44958">
        <ele>58.3</ele>
        <time>2019-05-22T08:46:09Z</time>
      </trkpt>
      <trkpt lat="40.27211" lon="-8.44967">
        <ele>59.74</ele>
        <time>2019-05-22T08:46:23Z</time>
      </trkpt>
      <trkpt lat="40.27215" lon="-8.44976">
        <ele>60.22</ele>
        <time>2019-05-22T08:46:37Z</time>
      </trkpt>
      <trkpt lat="40.27216" lon="-8.44973">
        <ele>60.22</ele>
        <time>2019-05-22T08:46:54Z</time>
      </trkpt>
      <trkpt lat="40.27222" lon="-8.44975">
        <ele>59.26</ele>
        <time>2019-05-22T08:47:20Z</time>
      </trkpt>
      <trkpt lat="40.27222" lon="-8.44979">
        <ele>59.74</ele>
        <time>2019-05-22T08:47:31Z</time>
      </trkpt>
      <trkpt lat="40.27232" lon="-8.44986">
        <ele>60.7</ele>
        <time>2019-05-22T08:47:45Z</time>
      </trkpt>
      <trkpt lat="40.27237" lon="-8.4499">
        <ele>62.14</ele>
        <time>2019-05-22T08:47:51Z</time>
      </trkpt>
      <trkpt lat="40.27253" lon="-8.45001">
        <ele>63.1</ele>
        <time>2019-05-22T08:48:05Z</time>
      </trkpt>
      <trkpt lat="40.27264" lon="-8.45015">
        <ele>64.55</ele>
        <time>2019-05-22T08:48:19Z</time>
      </trkpt>
      <trkpt lat="40.27276" lon="-8.45029">
        <ele>66.47</ele>
        <time>2019-05-22T08:48:34Z</time>
      </trkpt>
      <trkpt lat="40.27285" lon="-8.45046">
        <ele>67.91</ele>
        <time>2019-05-22T08:48:48Z</time>
      </trkpt>
      <trkpt lat="40.27294" lon="-8.45063">
        <ele>69.35</ele>
        <time>2019-05-22T08:49:03Z</time>
      </trkpt>
      <trkpt lat="40.27303" lon="-8.45079">
        <ele>70.79</ele>
        <time>2019-05-22T08:49:17Z</time>
      </trkpt>
      <trkpt lat="40.27308" lon="-8.45087">
        <ele>70.79</ele>
        <time>2019-05-22T08:49:25Z</time>
      </trkpt>
      <trkpt lat="40.27309" lon="-8.4509">
        <ele>71.27</ele>
        <time>2019-05-22T08:49:27Z</time>
      </trkpt>
      <trkpt lat="40.27318" lon="-8.45115">
        <ele>72.72</ele>
        <time>2019-05-22T08:49:44Z</time>
      </trkpt>
      <trkpt lat="40.27327" lon="-8.45133">
        <ele>74.16</ele>
        <time>2019-05-22T08:49:59Z</time>
      </trkpt>
      <trkpt lat="40.27334" lon="-8.4515">
        <ele>75.12</ele>
        <time>2019-05-22T08:50:12Z</time>
      </trkpt>
      <trkpt lat="40.27339" lon="-8.45159">
        <ele>76.08</ele>
        <time>2019-05-22T08:50:20Z</time>
      </trkpt>
      <trkpt lat="40.27348" lon="-8.45175">
        <ele>78</ele>
        <time>2019-05-22T08:50:34Z</time>
      </trkpt>
      <trkpt lat="40.27356" lon="-8.45188">
        <ele>78.97</ele>
        <time>2019-05-22T08:50:47Z</time>
      </trkpt>
      <trkpt lat="40.27357" lon="-8.4519">
        <ele>78.97</ele>
        <time>2019-05-22T08:50:49Z</time>
      </trkpt>
      <trkpt lat="40.27357" lon="-8.45194">
        <ele>79.45</ele>
        <time>2019-05-22T08:50:51Z</time>
      </trkpt>
      <trkpt lat="40.27361" lon="-8.452">
        <ele>79.93</ele>
        <time>2019-05-22T08:50:57Z</time>
      </trkpt>
      <trkpt lat="40.27362" lon="-8.45203">
        <ele>79.93</ele>
        <time>2019-05-22T08:50:59Z</time>
      </trkpt>
      <trkpt lat="40.27374" lon="-8.45221">
        <ele>81.37</ele>
        <time>2019-05-22T08:51:16Z</time>
      </trkpt>
      <trkpt lat="40.27375" lon="-8.45223">
        <ele>81.37</ele>
        <time>2019-05-22T08:51:17Z</time>
      </trkpt>
      <trkpt lat="40.27384" lon="-8.45232">
        <ele>82.81</ele>
        <time>2019-05-22T08:51:30Z</time>
      </trkpt>
      <trkpt lat="40.27394" lon="-8.45235">
        <ele>84.25</ele>
        <time>2019-05-22T08:51:42Z</time>
      </trkpt>
      <trkpt lat="40.27399" lon="-8.45228">
        <ele>83.29</ele>
        <time>2019-05-22T08:51:58Z</time>
      </trkpt>
      <trkpt lat="40.27401" lon="-8.45228">
        <ele>83.77</ele>
        <time>2019-05-22T08:52:14Z</time>
      </trkpt>
      <trkpt lat="40.274" lon="-8.4523">
        <ele>83.77</ele>
        <time>2019-05-22T08:52:28Z</time>
      </trkpt>
      <trkpt lat="40.27398" lon="-8.45227">
        <ele>84.25</ele>
        <time>2019-05-22T08:52:54Z</time>
      </trkpt>
      <trkpt lat="40.27397" lon="-8.45226">
        <ele>83.77</ele>
        <time>2019-05-22T08:53:06Z</time>
      </trkpt>
      <trkpt lat="40.274" lon="-8.45229">
        <ele>84.25</ele>
        <time>2019-05-22T08:53:28Z</time>
      </trkpt>
      <trkpt lat="40.27404" lon="-8.45234">
        <ele>84.73</ele>
        <time>2019-05-22T08:53:40Z</time>
      </trkpt>
      <trkpt lat="40.27405" lon="-8.45235">
        <ele>84.73</ele>
        <time>2019-05-22T08:53:52Z</time>
      </trkpt>
      <trkpt lat="40.27399" lon="-8.45246">
        <ele>84.25</ele>
        <time>2019-05-22T08:54:06Z</time>
      </trkpt>
      <trkpt lat="40.27399" lon="-8.45248">
        <ele>84.25</ele>
        <time>2019-05-22T08:54:18Z</time>
      </trkpt>
      <trkpt lat="40.27399" lon="-8.45248">
        <ele>85.21</ele>
        <time>2019-05-22T08:54:40Z</time>
      </trkpt>
      <trkpt lat="40.27401" lon="-8.45249">
        <ele>84.25</ele>
        <time>2019-05-22T08:54:57Z</time>
      </trkpt>
      <trkpt lat="40.27401" lon="-8.45254">
        <ele>84.25</ele>
        <time>2019-05-22T08:55:26Z</time>
      </trkpt>
      <trkpt lat="40.274" lon="-8.45251">
        <ele>84.25</ele>
        <time>2019-05-22T08:55:51Z</time>
      </trkpt>
      <trkpt lat="40.27405" lon="-8.45244">
        <ele>84.25</ele>
        <time>2019-05-22T08:56:19Z</time>
      </trkpt>
      <trkpt lat="40.27407" lon="-8.45249">
        <ele>84.73</ele>
        <time>2019-05-22T08:56:42Z</time>
      </trkpt>
      <trkpt lat="40.27398" lon="-8.45244">
        <ele>84.73</ele>
        <time>2019-05-22T08:57:13Z</time>
      </trkpt>
      <trkpt lat="40.274" lon="-8.45241">
        <ele>84.73</ele>
        <time>2019-05-22T08:57:44Z</time>
      </trkpt>
      <trkpt lat="40.27396" lon="-8.45244">
        <ele>85.21</ele>
        <time>2019-05-22T08:58:08Z</time>
      </trkpt>
      <trkpt lat="40.27398" lon="-8.45244">
        <ele>85.21</ele>
        <time>2019-05-22T08:58:40Z</time>
      </trkpt>
      <trkpt lat="40.27392" lon="-8.45237">
        <ele>85.21</ele>
        <time>2019-05-22T08:59:15Z</time>
      </trkpt>
      <trkpt lat="40.27392" lon="-8.45237">
        <ele>86.18</ele>
        <time>2019-05-22T08:59:49Z</time>
      </trkpt>
      <trkpt lat="40.27397" lon="-8.45241">
        <ele>87.14</ele>
        <time>2019-05-22T09:00:24Z</time>
      </trkpt>
      <trkpt lat="40.27394" lon="-8.45236">
        <ele>87.14</ele>
        <time>2019-05-22T09:01:02Z</time>
      </trkpt>
      <trkpt lat="40.27391" lon="-8.4523">
        <ele>88.1</ele>
        <time>2019-05-22T09:01:42Z</time>
      </trkpt>
      <trkpt lat="40.27397" lon="-8.4523">
        <ele>88.1</ele>
        <time>2019-05-22T09:02:22Z</time>
      </trkpt>
      <trkpt lat="40.274" lon="-8.45231">
        <ele>89.06</ele>
        <time>2019-05-22T09:02:58Z</time>
      </trkpt>
      <trkpt lat="40.27403" lon="-8.45232">
        <ele>89.06</ele>
        <time>2019-05-22T09:03:32Z</time>
      </trkpt>
      <trkpt lat="40.27402" lon="-8.45232">
        <ele>89.54</ele>
        <time>2019-05-22T09:04:00Z</time>
      </trkpt>
      <trkpt lat="40.27401" lon="-8.45238">
        <ele>90.02</ele>
        <time>2019-05-22T09:04:34Z</time>
      </trkpt>
      <trkpt lat="40.27403" lon="-8.45237">
        <ele>90.02</ele>
        <time>2019-05-22T09:05:04Z</time>
      </trkpt>
      <trkpt lat="40.27402" lon="-8.45241">
        <ele>90.02</ele>
        <time>2019-05-22T09:05:29Z</time>
      </trkpt>
      <trkpt lat="40.27399" lon="-8.45239">
        <ele>91.46</ele>
        <time>2019-05-22T09:05:43Z</time>
      </trkpt>
      <trkpt lat="40.27403" lon="-8.45235">
        <ele>91.46</ele>
        <time>2019-05-22T09:06:06Z</time>
      </trkpt>
      <trkpt lat="40.27406" lon="-8.45236">
        <ele>92.42</ele>
        <time>2019-05-22T09:06:17Z</time>
      </trkpt>
      <trkpt lat="40.27406" lon="-8.45242">
        <ele>92.9</ele>
        <time>2019-05-22T09:06:25Z</time>
      </trkpt>
      <trkpt lat="40.27411" lon="-8.45249">
        <ele>92.9</ele>
        <time>2019-05-22T09:06:31Z</time>
      </trkpt>
      <trkpt lat="40.27421" lon="-8.45265">
        <ele>93.39</ele>
        <time>2019-05-22T09:06:43Z</time>
      </trkpt>
      <trkpt lat="40.27432" lon="-8.45274">
        <ele>93.39</ele>
        <time>2019-05-22T09:06:55Z</time>
      </trkpt>
      <trkpt lat="40.27442" lon="-8.45284">
        <ele>93.87</ele>
        <time>2019-05-22T09:07:08Z</time>
      </trkpt>
      <trkpt lat="40.27453" lon="-8.45293">
        <ele>94.83</ele>
        <time>2019-05-22T09:07:19Z</time>
      </trkpt>
      <trkpt lat="40.27456" lon="-8.45297">
        <ele>94.35</ele>
        <time>2019-05-22T09:07:21Z</time>
      </trkpt>
      <trkpt lat="40.27468" lon="-8.4531">
        <ele>94.83</ele>
        <time>2019-05-22T09:07:33Z</time>
      </trkpt>
      <trkpt lat="40.27472" lon="-8.45317">
        <ele>94.83</ele>
        <time>2019-05-22T09:07:39Z</time>
      </trkpt>
      <trkpt lat="40.27474" lon="-8.4532">
        <ele>94.83</ele>
        <time>2019-05-22T09:07:42Z</time>
      </trkpt>
      <trkpt lat="40.27475" lon="-8.45323">
        <ele>94.83</ele>
        <time>2019-05-22T09:07:45Z</time>
      </trkpt>
      <trkpt lat="40.27478" lon="-8.45328">
        <ele>95.31</ele>
        <time>2019-05-22T09:07:49Z</time>
      </trkpt>
      <trkpt lat="40.27484" lon="-8.45349">
        <ele>95.31</ele>
        <time>2019-05-22T09:08:04Z</time>
      </trkpt>
      <trkpt lat="40.27487" lon="-8.45355">
        <ele>95.79</ele>
        <time>2019-05-22T09:08:09Z</time>
      </trkpt>
      <trkpt lat="40.275" lon="-8.45364">
        <ele>95.79</ele>
        <time>2019-05-22T09:08:20Z</time>
      </trkpt>
      <trkpt lat="40.27509" lon="-8.45372">
        <ele>96.27</ele>
        <time>2019-05-22T09:08:29Z</time>
      </trkpt>
      <trkpt lat="40.27513" lon="-8.45388">
        <ele>96.75</ele>
        <time>2019-05-22T09:08:42Z</time>
      </trkpt>
      <trkpt lat="40.27514" lon="-8.45393">
        <ele>96.75</ele>
        <time>2019-05-22T09:08:48Z</time>
      </trkpt>
      <trkpt lat="40.27518" lon="-8.45395">
        <ele>96.75</ele>
        <time>2019-05-22T09:09:04Z</time>
      </trkpt>
      <trkpt lat="40.27518" lon="-8.45399">
        <ele>96.75</ele>
        <time>2019-05-22T09:09:31Z</time>
      </trkpt>
      <trkpt lat="40.27516" lon="-8.45397">
        <ele>96.75</ele>
        <time>2019-05-22T09:10:01Z</time>
      </trkpt>
      <trkpt lat="40.27516" lon="-8.45397">
        <ele>96.27</ele>
        <time>2019-05-22T09:10:25Z</time>
      </trkpt>
      <trkpt lat="40.27516" lon="-8.45395">
        <ele>97.23</ele>
        <time>2019-05-22T09:10:46Z</time>
      </trkpt>
      <trkpt lat="40.27513" lon="-8.45397">
        <ele>96.75</ele>
        <time>2019-05-22T09:11:14Z</time>
      </trkpt>
      <trkpt lat="40.27511" lon="-8.4539">
        <ele>97.23</ele>
        <time>2019-05-22T09:11:45Z</time>
      </trkpt>
      <trkpt lat="40.27512" lon="-8.4539">
        <ele>97.23</ele>
        <time>2019-05-22T09:12:16Z</time>
      </trkpt>
      <trkpt lat="40.27518" lon="-8.45397">
        <ele>97.23</ele>
        <time>2019-05-22T09:12:34Z</time>
      </trkpt>
      <trkpt lat="40.27529" lon="-8.4541">
        <ele>97.71</ele>
        <time>2019-05-22T09:12:46Z</time>
      </trkpt>
      <trkpt lat="40.2753" lon="-8.45413">
        <ele>97.71</ele>
        <time>2019-05-22T09:12:48Z</time>
      </trkpt>
      <trkpt lat="40.27533" lon="-8.45416">
        <ele>98.19</ele>
        <time>2019-05-22T09:12:51Z</time>
      </trkpt>
      <trkpt lat="40.27551" lon="-8.45426">
        <ele>98.19</ele>
        <time>2019-05-22T09:13:06Z</time>
      </trkpt>
      <trkpt lat="40.27567" lon="-8.45433">
        <ele>99.63</ele>
        <time>2019-05-22T09:13:21Z</time>
      </trkpt>
      <trkpt lat="40.27583" lon="-8.45436">
        <ele>100.11</ele>
        <time>2019-05-22T09:13:34Z</time>
      </trkpt>
      <trkpt lat="40.27584" lon="-8.45436">
        <ele>100.11</ele>
        <time>2019-05-22T09:13:35Z</time>
      </trkpt>
      <trkpt lat="40.27599" lon="-8.45445">
        <ele>101.08</ele>
        <time>2019-05-22T09:13:49Z</time>
      </trkpt>
      <trkpt lat="40.27603" lon="-8.45448">
        <ele>101.08</ele>
        <time>2019-05-22T09:13:53Z</time>
      </trkpt>
      <trkpt lat="40.27621" lon="-8.45453">
        <ele>102.04</ele>
        <time>2019-05-22T09:14:09Z</time>
      </trkpt>
      <trkpt lat="40.27624" lon="-8.45451">
        <ele>102.04</ele>
        <time>2019-05-22T09:14:19Z</time>
      </trkpt>
      <trkpt lat="40.27628" lon="-8.45452">
        <ele>102.04</ele>
        <time>2019-05-22T09:14:23Z</time>
      </trkpt>
      <trkpt lat="40.27631" lon="-8.45453">
        <ele>102.04</ele>
        <time>2019-05-22T09:14:26Z</time>
      </trkpt>
      <trkpt lat="40.2765" lon="-8.4545">
        <ele>102.04</ele>
        <time>2019-05-22T09:14:41Z</time>
      </trkpt>
      <trkpt lat="40.2767" lon="-8.45446">
        <ele>103</ele>
        <time>2019-05-22T09:14:56Z</time>
      </trkpt>
      <trkpt lat="40.27688" lon="-8.45444">
        <ele>103</ele>
        <time>2019-05-22T09:15:11Z</time>
      </trkpt>
      <trkpt lat="40.27708" lon="-8.45443">
        <ele>103</ele>
        <time>2019-05-22T09:15:26Z</time>
      </trkpt>
      <trkpt lat="40.27718" lon="-8.45444">
        <ele>103</ele>
        <time>2019-05-22T09:15:39Z</time>
      </trkpt>
      <trkpt lat="40.2773" lon="-8.45439">
        <ele>103</ele>
        <time>2019-05-22T09:15:51Z</time>
      </trkpt>
      <trkpt lat="40.27736" lon="-8.45436">
        <ele>103.48</ele>
        <time>2019-05-22T09:15:56Z</time>
      </trkpt>
      <trkpt lat="40.27739" lon="-8.45436">
        <ele>103.48</ele>
        <time>2019-05-22T09:15:59Z</time>
      </trkpt>
      <trkpt lat="40.27763" lon="-8.45434">
        <ele>103.48</ele>
        <time>2019-05-22T09:16:17Z</time>
      </trkpt>
      <trkpt lat="40.27775" lon="-8.4543">
        <ele>103.96</ele>
        <time>2019-05-22T09:16:30Z</time>
      </trkpt>
      <trkpt lat="40.27782" lon="-8.45429">
        <ele>103.96</ele>
        <time>2019-05-22T09:16:36Z</time>
      </trkpt>
      <trkpt lat="40.27784" lon="-8.45431">
        <ele>103.96</ele>
        <time>2019-05-22T09:16:39Z</time>
      </trkpt>
      <trkpt lat="40.27793" lon="-8.4543">
        <ele>103.96</ele>
        <time>2019-05-22T09:16:54Z</time>
      </trkpt>
      <trkpt lat="40.27795" lon="-8.4543">
        <ele>104.44</ele>
        <time>2019-05-22T09:16:56Z</time>
      </trkpt>
      <trkpt lat="40.27813" lon="-8.45427">
        <ele>104.92</ele>
        <time>2019-05-22T09:17:11Z</time>
      </trkpt>
      <trkpt lat="40.27827" lon="-8.45425">
        <ele>104.92</ele>
        <time>2019-05-22T09:17:23Z</time>
      </trkpt>
      <trkpt lat="40.27845" lon="-8.45428">
        <ele>105.4</ele>
        <time>2019-05-22T09:17:37Z</time>
      </trkpt>
      <trkpt lat="40.27864" lon="-8.45429">
        <ele>105.88</ele>
        <time>2019-05-22T09:17:53Z</time>
      </trkpt>
      <trkpt lat="40.27877" lon="-8.4543">
        <ele>107.32</ele>
        <time>2019-05-22T09:18:05Z</time>
      </trkpt>
      <trkpt lat="40.27877" lon="-8.4543">
        <ele>106.84</ele>
        <time>2019-05-22T09:18:19Z</time>
      </trkpt>
      <trkpt lat="40.27883" lon="-8.4543">
        <ele>107.32</ele>
        <time>2019-05-22T09:18:25Z</time>
      </trkpt>
      <trkpt lat="40.27896" lon="-8.45431">
        <ele>107.81</ele>
        <time>2019-05-22T09:18:38Z</time>
      </trkpt>
      <trkpt lat="40.27911" lon="-8.45429">
        <ele>107.81</ele>
        <time>2019-05-22T09:18:49Z</time>
      </trkpt>
      <trkpt lat="40.2792" lon="-8.45425">
        <ele>107.32</ele>
        <time>2019-05-22T09:18:57Z</time>
      </trkpt>
      <trkpt lat="40.27936" lon="-8.45421">
        <ele>106.84</ele>
        <time>2019-05-22T09:19:11Z</time>
      </trkpt>
      <trkpt lat="40.27938" lon="-8.45422">
        <ele>106.84</ele>
        <time>2019-05-22T09:19:27Z</time>
      </trkpt>
      <trkpt lat="40.27949" lon="-8.45428">
        <ele>106.36</ele>
        <time>2019-05-22T09:19:39Z</time>
      </trkpt>
      <trkpt lat="40.27953" lon="-8.45426">
        <ele>105.88</ele>
        <time>2019-05-22T09:19:57Z</time>
      </trkpt>
      <trkpt lat="40.27959" lon="-8.45422">
        <ele>105.88</ele>
        <time>2019-05-22T09:20:02Z</time>
      </trkpt>
      <trkpt lat="40.27964" lon="-8.4542">
        <ele>105.88</ele>
        <time>2019-05-22T09:20:06Z</time>
      </trkpt>
      <trkpt lat="40.27981" lon="-8.45415">
        <ele>104.92</ele>
        <time>2019-05-22T09:20:20Z</time>
      </trkpt>
      <trkpt lat="40.27994" lon="-8.4541">
        <ele>104.92</ele>
        <time>2019-05-22T09:20:33Z</time>
      </trkpt>
      <trkpt lat="40.28012" lon="-8.45406">
        <ele>103.48</ele>
        <time>2019-05-22T09:20:53Z</time>
      </trkpt>
      <trkpt lat="40.28029" lon="-8.454">
        <ele>103.48</ele>
        <time>2019-05-22T09:21:08Z</time>
      </trkpt>
      <trkpt lat="40.28047" lon="-8.45399">
        <ele>102.04</ele>
        <time>2019-05-22T09:21:22Z</time>
      </trkpt>
      <trkpt lat="40.28064" lon="-8.45395">
        <ele>102.04</ele>
        <time>2019-05-22T09:21:38Z</time>
      </trkpt>
      <trkpt lat="40.28073" lon="-8.45393">
        <ele>102.04</ele>
        <time>2019-05-22T09:21:49Z</time>
      </trkpt>
      <trkpt lat="40.28085" lon="-8.4539">
        <ele>101.56</ele>
        <time>2019-05-22T09:22:02Z</time>
      </trkpt>
      <trkpt lat="40.28104" lon="-8.45385">
        <ele>101.56</ele>
        <time>2019-05-22T09:22:19Z</time>
      </trkpt>
      <trkpt lat="40.28119" lon="-8.45383">
        <ele>101.56</ele>
        <time>2019-05-22T09:22:32Z</time>
      </trkpt>
      <trkpt lat="40.2813" lon="-8.45379">
        <ele>100.6</ele>
        <time>2019-05-22T09:22:45Z</time>
      </trkpt>
      <trkpt lat="40.28143" lon="-8.45371">
        <ele>101.08</ele>
        <time>2019-05-22T09:22:57Z</time>
      </trkpt>
      <trkpt lat="40.28147" lon="-8.45367">
        <ele>100.6</ele>
        <time>2019-05-22T09:22:59Z</time>
      </trkpt>
      <trkpt lat="40.28153" lon="-8.45361">
        <ele>100.6</ele>
        <time>2019-05-22T09:23:03Z</time>
      </trkpt>
      <trkpt lat="40.28162" lon="-8.45343">
        <ele>100.11</ele>
        <time>2019-05-22T09:23:14Z</time>
      </trkpt>
      <trkpt lat="40.28169" lon="-8.45323">
        <ele>99.15</ele>
        <time>2019-05-22T09:23:27Z</time>
      </trkpt>
      <trkpt lat="40.28174" lon="-8.45308">
        <ele>99.15</ele>
        <time>2019-05-22T09:23:41Z</time>
      </trkpt>
      <trkpt lat="40.28175" lon="-8.45305">
        <ele>99.15</ele>
        <time>2019-05-22T09:23:44Z</time>
      </trkpt>
      <trkpt lat="40.28178" lon="-8.45299">
        <ele>99.15</ele>
        <time>2019-05-22T09:23:48Z</time>
      </trkpt>
      <trkpt lat="40.28187" lon="-8.45274">
        <ele>99.63</ele>
        <time>2019-05-22T09:24:03Z</time>
      </trkpt>
      <trkpt lat="40.28188" lon="-8.45271">
        <ele>99.63</ele>
        <time>2019-05-22T09:24:05Z</time>
      </trkpt>
      <trkpt lat="40.28193" lon="-8.45261">
        <ele>99.63</ele>
        <time>2019-05-22T09:24:11Z</time>
      </trkpt>
      <trkpt lat="40.28201" lon="-8.45238">
        <ele>100.6</ele>
        <time>2019-05-22T09:24:26Z</time>
      </trkpt>
      <trkpt lat="40.28205" lon="-8.45228">
        <ele>100.11</ele>
        <time>2019-05-22T09:24:33Z</time>
      </trkpt>
      <trkpt lat="40.28215" lon="-8.45209">
        <ele>100.11</ele>
        <time>2019-05-22T09:24:48Z</time>
      </trkpt>
      <trkpt lat="40.2823" lon="-8.45196">
        <ele>100.11</ele>
        <time>2019-05-22T09:25:03Z</time>
      </trkpt>
      <trkpt lat="40.28242" lon="-8.45191">
        <ele>99.15</ele>
        <time>2019-05-22T09:25:20Z</time>
      </trkpt>
      <trkpt lat="40.28253" lon="-8.45187">
        <ele>98.19</ele>
        <time>2019-05-22T09:25:34Z</time>
      </trkpt>
      <trkpt lat="40.2827" lon="-8.45184">
        <ele>97.71</ele>
        <time>2019-05-22T09:25:48Z</time>
      </trkpt>
      <trkpt lat="40.2829" lon="-8.45182">
        <ele>98.19</ele>
        <time>2019-05-22T09:26:03Z</time>
      </trkpt>
      <trkpt lat="40.28308" lon="-8.45178">
        <ele>98.19</ele>
        <time>2019-05-22T09:26:18Z</time>
      </trkpt>
      <trkpt lat="40.28319" lon="-8.45175">
        <ele>97.71</ele>
        <time>2019-05-22T09:26:31Z</time>
      </trkpt>
      <trkpt lat="40.28337" lon="-8.4517">
        <ele>98.67</ele>
        <time>2019-05-22T09:26:45Z</time>
      </trkpt>
      <trkpt lat="40.28349" lon="-8.45166">
        <ele>98.67</ele>
        <time>2019-05-22T09:26:57Z</time>
      </trkpt>
      <trkpt lat="40.28367" lon="-8.4516">
        <ele>98.19</ele>
        <time>2019-05-22T09:27:13Z</time>
      </trkpt>
      <trkpt lat="40.28378" lon="-8.45155">
        <ele>98.67</ele>
        <time>2019-05-22T09:27:26Z</time>
      </trkpt>
      <trkpt lat="40.28399" lon="-8.45147">
        <ele>99.15</ele>
        <time>2019-05-22T09:27:43Z</time>
      </trkpt>
      <trkpt lat="40.28423" lon="-8.45137">
        <ele>99.15</ele>
        <time>2019-05-22T09:28:02Z</time>
      </trkpt>
      <trkpt lat="40.2844" lon="-8.45132">
        <ele>99.15</ele>
        <time>2019-05-22T09:28:18Z</time>
      </trkpt>
      <trkpt lat="40.28445" lon="-8.4513">
        <ele>99.63</ele>
        <time>2019-05-22T09:28:22Z</time>
      </trkpt>
      <trkpt lat="40.28461" lon="-8.45125">
        <ele>100.11</ele>
        <time>2019-05-22T09:28:36Z</time>
      </trkpt>
      <trkpt lat="40.28481" lon="-8.4512">
        <ele>99.63</ele>
        <time>2019-05-22T09:28:50Z</time>
      </trkpt>
      <trkpt lat="40.28484" lon="-8.45122">
        <ele>99.63</ele>
        <time>2019-05-22T09:29:05Z</time>
      </trkpt>
      <trkpt lat="40.28502" lon="-8.45114">
        <ele>99.15</ele>
        <time>2019-05-22T09:29:20Z</time>
      </trkpt>
      <trkpt lat="40.28523" lon="-8.45103">
        <ele>99.63</ele>
        <time>2019-05-22T09:29:37Z</time>
      </trkpt>
      <trkpt lat="40.28543" lon="-8.45093">
        <ele>99.15</ele>
        <time>2019-05-22T09:29:53Z</time>
      </trkpt>
      <trkpt lat="40.28558" lon="-8.45083">
        <ele>99.63</ele>
        <time>2019-05-22T09:30:07Z</time>
      </trkpt>
      <trkpt lat="40.28576" lon="-8.45068">
        <ele>99.63</ele>
        <time>2019-05-22T09:30:26Z</time>
      </trkpt>
      <trkpt lat="40.28592" lon="-8.45055">
        <ele>99.63</ele>
        <time>2019-05-22T09:30:41Z</time>
      </trkpt>
      <trkpt lat="40.28598" lon="-8.45051">
        <ele>100.11</ele>
        <time>2019-05-22T09:30:54Z</time>
      </trkpt>
      <trkpt lat="40.286" lon="-8.45049">
        <ele>100.11</ele>
        <time>2019-05-22T09:30:56Z</time>
      </trkpt>
      <trkpt lat="40.28604" lon="-8.45045">
        <ele>100.11</ele>
        <time>2019-05-22T09:31:01Z</time>
      </trkpt>
      <trkpt lat="40.2861" lon="-8.4504">
        <ele>100.11</ele>
        <time>2019-05-22T09:31:11Z</time>
      </trkpt>
      <trkpt lat="40.28628" lon="-8.45024">
        <ele>101.08</ele>
        <time>2019-05-22T09:31:29Z</time>
      </trkpt>
      <trkpt lat="40.28645" lon="-8.4501">
        <ele>100.11</ele>
        <time>2019-05-22T09:31:45Z</time>
      </trkpt>
      <trkpt lat="40.28666" lon="-8.44995">
        <ele>99.63</ele>
        <time>2019-05-22T09:32:04Z</time>
      </trkpt>
      <trkpt lat="40.28683" lon="-8.44984">
        <ele>99.15</ele>
        <time>2019-05-22T09:32:20Z</time>
      </trkpt>
      <trkpt lat="40.28689" lon="-8.44978">
        <ele>98.67</ele>
        <time>2019-05-22T09:32:27Z</time>
      </trkpt>
      <trkpt lat="40.28709" lon="-8.44964">
        <ele>97.71</ele>
        <time>2019-05-22T09:32:45Z</time>
      </trkpt>
      <trkpt lat="40.28723" lon="-8.44953">
        <ele>97.71</ele>
        <time>2019-05-22T09:33:00Z</time>
      </trkpt>
      <trkpt lat="40.28742" lon="-8.4494">
        <ele>97.23</ele>
        <time>2019-05-22T09:33:17Z</time>
      </trkpt>
      <trkpt lat="40.28758" lon="-8.44928">
        <ele>98.19</ele>
        <time>2019-05-22T09:33:31Z</time>
      </trkpt>
      <trkpt lat="40.28769" lon="-8.44919">
        <ele>96.75</ele>
        <time>2019-05-22T09:33:45Z</time>
      </trkpt>
      <trkpt lat="40.28784" lon="-8.44904">
        <ele>97.71</ele>
        <time>2019-05-22T09:34:00Z</time>
      </trkpt>
      <trkpt lat="40.288" lon="-8.4489">
        <ele>97.23</ele>
        <time>2019-05-22T09:34:14Z</time>
      </trkpt>
      <trkpt lat="40.28815" lon="-8.44875">
        <ele>98.67</ele>
        <time>2019-05-22T09:34:28Z</time>
      </trkpt>
      <trkpt lat="40.2882" lon="-8.44869">
        <ele>98.67</ele>
        <time>2019-05-22T09:34:44Z</time>
      </trkpt>
      <trkpt lat="40.28823" lon="-8.44865">
        <ele>97.71</ele>
        <time>2019-05-22T09:35:00Z</time>
      </trkpt>
      <trkpt lat="40.28836" lon="-8.44854">
        <ele>98.67</ele>
        <time>2019-05-22T09:35:15Z</time>
      </trkpt>
      <trkpt lat="40.28847" lon="-8.44842">
        <ele>98.67</ele>
        <time>2019-05-22T09:35:30Z</time>
      </trkpt>
      <trkpt lat="40.2885" lon="-8.44838">
        <ele>99.15</ele>
        <time>2019-05-22T09:35:36Z</time>
      </trkpt>
      <trkpt lat="40.28856" lon="-8.44832">
        <ele>99.15</ele>
        <time>2019-05-22T09:35:42Z</time>
      </trkpt>
      <trkpt lat="40.28864" lon="-8.44825">
        <ele>99.15</ele>
        <time>2019-05-22T09:35:48Z</time>
      </trkpt>
      <trkpt lat="40.28881" lon="-8.44808">
        <ele>98.67</ele>
        <time>2019-05-22T09:36:04Z</time>
      </trkpt>
      <trkpt lat="40.28895" lon="-8.44794">
        <ele>98.19</ele>
        <time>2019-05-22T09:36:16Z</time>
      </trkpt>
      <trkpt lat="40.28913" lon="-8.44777">
        <ele>98.19</ele>
        <time>2019-05-22T09:36:31Z</time>
      </trkpt>
      <trkpt lat="40.28927" lon="-8.44761">
        <ele>98.19</ele>
        <time>2019-05-22T09:36:46Z</time>
      </trkpt>
      <trkpt lat="40.28941" lon="-8.44747">
        <ele>98.19</ele>
        <time>2019-05-22T09:37:00Z</time>
      </trkpt>
      <trkpt lat="40.28945" lon="-8.44745">
        <ele>98.19</ele>
        <time>2019-05-22T09:37:03Z</time>
      </trkpt>
      <trkpt lat="40.28951" lon="-8.44744">
        <ele>98.67</ele>
        <time>2019-05-22T09:37:08Z</time>
      </trkpt>
      <trkpt lat="40.2896" lon="-8.44738">
        <ele>98.19</ele>
        <time>2019-05-22T09:37:17Z</time>
      </trkpt>
      <trkpt lat="40.28973" lon="-8.44738">
        <ele>97.71</ele>
        <time>2019-05-22T09:37:32Z</time>
      </trkpt>
      <trkpt lat="40.28973" lon="-8.4473">
        <ele>98.67</ele>
        <time>2019-05-22T09:37:53Z</time>
      </trkpt>
      <trkpt lat="40.28974" lon="-8.44731">
        <ele>98.19</ele>
        <time>2019-05-22T09:38:18Z</time>
      </trkpt>
      <trkpt lat="40.28992" lon="-8.44739">
        <ele>98.67</ele>
        <time>2019-05-22T09:38:33Z</time>
      </trkpt>
      <trkpt lat="40.28994" lon="-8.44738">
        <ele>99.15</ele>
        <time>2019-05-22T09:38:47Z</time>
      </trkpt>
      <trkpt lat="40.28995" lon="-8.44737">
        <ele>99.15</ele>
        <time>2019-05-22T09:38:49Z</time>
      </trkpt>
      <trkpt lat="40.28996" lon="-8.44734">
        <ele>98.67</ele>
        <time>2019-05-22T09:38:52Z</time>
      </trkpt>
      <trkpt lat="40.29006" lon="-8.44731">
        <ele>99.63</ele>
        <time>2019-05-22T09:39:07Z</time>
      </trkpt>
      <trkpt lat="40.29009" lon="-8.44734">
        <ele>99.15</ele>
        <time>2019-05-22T09:39:21Z</time>
      </trkpt>
      <trkpt lat="40.29009" lon="-8.44735">
        <ele>99.63</ele>
        <time>2019-05-22T09:39:41Z</time>
      </trkpt>
      <trkpt lat="40.29005" lon="-8.44739">
        <ele>99.63</ele>
        <time>2019-05-22T09:40:17Z</time>
      </trkpt>
      <trkpt lat="40.29006" lon="-8.44735">
        <ele>99.63</ele>
        <time>2019-05-22T09:40:31Z</time>
      </trkpt>
      <trkpt lat="40.29008" lon="-8.44735">
        <ele>99.15</ele>
        <time>2019-05-22T09:40:45Z</time>
      </trkpt>
      <trkpt lat="40.29022" lon="-8.44745">
        <ele>99.63</ele>
        <time>2019-05-22T09:40:58Z</time>
      </trkpt>
      <trkpt lat="40.29036" lon="-8.44742">
        <ele>100.11</ele>
        <time>2019-05-22T09:41:09Z</time>
      </trkpt>
      <trkpt lat="40.29049" lon="-8.44744">
        <ele>100.6</ele>
        <time>2019-05-22T09:41:19Z</time>
      </trkpt>
      <trkpt lat="40.29056" lon="-8.44745">
        <ele>101.08</ele>
        <time>2019-05-22T09:41:25Z</time>
      </trkpt>
      <trkpt lat="40.2906" lon="-8.44747">
        <ele>101.08</ele>
        <time>2019-05-22T09:41:29Z</time>
      </trkpt>
      <trkpt lat="40.29072" lon="-8.4475">
        <ele>101.08</ele>
        <time>2019-05-22T09:41:39Z</time>
      </trkpt>
      <trkpt lat="40.29076" lon="-8.44751">
        <ele>101.56</ele>
        <time>2019-05-22T09:41:43Z</time>
      </trkpt>
      <trkpt lat="40.29079" lon="-8.44752">
        <ele>101.56</ele>
        <time>2019-05-22T09:41:46Z</time>
      </trkpt>
      <trkpt lat="40.29099" lon="-8.44754">
        <ele>102.04</ele>
        <time>2019-05-22T09:42:01Z</time>
      </trkpt>
      <trkpt lat="40.29109" lon="-8.44755">
        <ele>102.52</ele>
        <time>2019-05-22T09:42:11Z</time>
      </trkpt>
      <trkpt lat="40.29113" lon="-8.44754">
        <ele>103.48</ele>
        <time>2019-05-22T09:42:15Z</time>
      </trkpt>
      <trkpt lat="40.29127" lon="-8.44756">
        <ele>103.96</ele>
        <time>2019-05-22T09:42:26Z</time>
      </trkpt>
      <trkpt lat="40.29138" lon="-8.44756">
        <ele>103.96</ele>
        <time>2019-05-22T09:42:39Z</time>
      </trkpt>
      <trkpt lat="40.29152" lon="-8.44754">
        <ele>104.44</ele>
        <time>2019-05-22T09:42:54Z</time>
      </trkpt>
      <trkpt lat="40.29167" lon="-8.4475">
        <ele>103.96</ele>
        <time>2019-05-22T09:43:08Z</time>
      </trkpt>
      <trkpt lat="40.29185" lon="-8.44748">
        <ele>103.48</ele>
        <time>2019-05-22T09:43:22Z</time>
      </trkpt>
      <trkpt lat="40.29205" lon="-8.44747">
        <ele>102.52</ele>
        <time>2019-05-22T09:43:37Z</time>
      </trkpt>
      <trkpt lat="40.29223" lon="-8.44743">
        <ele>102.04</ele>
        <time>2019-05-22T09:43:51Z</time>
      </trkpt>
      <trkpt lat="40.29241" lon="-8.44741">
        <ele>101.56</ele>
        <time>2019-05-22T09:44:05Z</time>
      </trkpt>
      <trkpt lat="40.29243" lon="-8.4474">
        <ele>101.56</ele>
        <time>2019-05-22T09:44:07Z</time>
      </trkpt>
      <trkpt lat="40.29263" lon="-8.44736">
        <ele>101.08</ele>
        <time>2019-05-22T09:44:22Z</time>
      </trkpt>
      <trkpt lat="40.2928" lon="-8.44734">
        <ele>100.6</ele>
        <time>2019-05-22T09:44:35Z</time>
      </trkpt>
      <trkpt lat="40.29283" lon="-8.44733">
        <ele>100.11</ele>
        <time>2019-05-22T09:44:37Z</time>
      </trkpt>
      <trkpt lat="40.29302" lon="-8.44729">
        <ele>100.11</ele>
        <time>2019-05-22T09:44:52Z</time>
      </trkpt>
      <trkpt lat="40.29317" lon="-8.44729">
        <ele>100.11</ele>
        <time>2019-05-22T09:45:03Z</time>
      </trkpt>
      <trkpt lat="40.2932" lon="-8.44729">
        <ele>100.11</ele>
        <time>2019-05-22T09:45:06Z</time>
      </trkpt>
      <trkpt lat="40.29339" lon="-8.44723">
        <ele>100.6</ele>
        <time>2019-05-22T09:45:20Z</time>
      </trkpt>
      <trkpt lat="40.2935" lon="-8.44719">
        <ele>100.6</ele>
        <time>2019-05-22T09:45:36Z</time>
      </trkpt>
      <trkpt lat="40.29357" lon="-8.4472">
        <ele>100.11</ele>
        <time>2019-05-22T09:45:49Z</time>
      </trkpt>
      <trkpt lat="40.29375" lon="-8.44716">
        <ele>100.6</ele>
        <time>2019-05-22T09:46:03Z</time>
      </trkpt>
      <trkpt lat="40.29392" lon="-8.44714">
        <ele>100.6</ele>
        <time>2019-05-22T09:46:18Z</time>
      </trkpt>
      <trkpt lat="40.29414" lon="-8.44712">
        <ele>100.6</ele>
        <time>2019-05-22T09:46:33Z</time>
      </trkpt>
      <trkpt lat="40.29426" lon="-8.44708">
        <ele>100.6</ele>
        <time>2019-05-22T09:46:44Z</time>
      </trkpt>
      <trkpt lat="40.29434" lon="-8.44708">
        <ele>100.11</ele>
        <time>2019-05-22T09:46:52Z</time>
      </trkpt>
      <trkpt lat="40.2945" lon="-8.44705">
        <ele>100.6</ele>
        <time>2019-05-22T09:47:05Z</time>
      </trkpt>
      <trkpt lat="40.2947" lon="-8.44703">
        <ele>101.08</ele>
        <time>2019-05-22T09:47:20Z</time>
      </trkpt>
      <trkpt lat="40.29486" lon="-8.44699">
        <ele>101.56</ele>
        <time>2019-05-22T09:47:35Z</time>
      </trkpt>
      <trkpt lat="40.29503" lon="-8.44694">
        <ele>101.56</ele>
        <time>2019-05-22T09:47:50Z</time>
      </trkpt>
      <trkpt lat="40.29519" lon="-8.44691">
        <ele>102.04</ele>
        <time>2019-05-22T09:48:03Z</time>
      </trkpt>
      <trkpt lat="40.29532" lon="-8.44688">
        <ele>103</ele>
        <time>2019-05-22T09:48:15Z</time>
      </trkpt>
      <trkpt lat="40.29541" lon="-8.44686">
        <ele>103.96</ele>
        <time>2019-05-22T09:48:27Z</time>
      </trkpt>
      <trkpt lat="40.29557" lon="-8.44682">
        <ele>104.44</ele>
        <time>2019-05-22T09:48:42Z</time>
      </trkpt>
      <trkpt lat="40.29572" lon="-8.4468">
        <ele>104.92</ele>
        <time>2019-05-22T09:48:56Z</time>
      </trkpt>
      <trkpt lat="40.29586" lon="-8.44676">
        <ele>106.36</ele>
        <time>2019-05-22T09:49:09Z</time>
      </trkpt>
      <trkpt lat="40.29592" lon="-8.44675">
        <ele>106.36</ele>
        <time>2019-05-22T09:49:15Z</time>
      </trkpt>
      <trkpt lat="40.29607" lon="-8.44672">
        <ele>107.32</ele>
        <time>2019-05-22T09:49:27Z</time>
      </trkpt>
      <trkpt lat="40.29624" lon="-8.44669">
        <ele>107.81</ele>
        <time>2019-05-22T09:49:41Z</time>
      </trkpt>
      <trkpt lat="40.29629" lon="-8.44668">
        <ele>108.29</ele>
        <time>2019-05-22T09:49:45Z</time>
      </trkpt>
      <trkpt lat="40.29644" lon="-8.44665">
        <ele>109.25</ele>
        <time>2019-05-22T09:49:59Z</time>
      </trkpt>
      <trkpt lat="40.29659" lon="-8.44663">
        <ele>110.21</ele>
        <time>2019-05-22T09:50:11Z</time>
      </trkpt>
      <trkpt lat="40.29665" lon="-8.44661">
        <ele>110.21</ele>
        <time>2019-05-22T09:50:17Z</time>
      </trkpt>
      <trkpt lat="40.29672" lon="-8.4466">
        <ele>110.69</ele>
        <time>2019-05-22T09:50:24Z</time>
      </trkpt>
      <trkpt lat="40.29674" lon="-8.4466">
        <ele>111.17</ele>
        <time>2019-05-22T09:50:27Z</time>
      </trkpt>
      <trkpt lat="40.29689" lon="-8.44657">
        <ele>111.17</ele>
        <time>2019-05-22T09:50:40Z</time>
      </trkpt>
      <trkpt lat="40.29695" lon="-8.44656">
        <ele>112.13</ele>
        <time>2019-05-22T09:50:44Z</time>
      </trkpt>
      <trkpt lat="40.29704" lon="-8.44653">
        <ele>112.13</ele>
        <time>2019-05-22T09:50:51Z</time>
      </trkpt>
      <trkpt lat="40.29719" lon="-8.44651">
        <ele>112.61</ele>
        <time>2019-05-22T09:51:04Z</time>
      </trkpt>
      <trkpt lat="40.2973" lon="-8.4465">
        <ele>113.09</ele>
        <time>2019-05-22T09:51:16Z</time>
      </trkpt>
      <trkpt lat="40.29732" lon="-8.4465">
        <ele>113.57</ele>
        <time>2019-05-22T09:51:18Z</time>
      </trkpt>
      <trkpt lat="40.2974" lon="-8.44646">
        <ele>114.05</ele>
        <time>2019-05-22T09:51:25Z</time>
      </trkpt>
      <trkpt lat="40.29744" lon="-8.44646">
        <ele>114.05</ele>
        <time>2019-05-22T09:51:28Z</time>
      </trkpt>
      <trkpt lat="40.29748" lon="-8.44645">
        <ele>114.53</ele>
        <time>2019-05-22T09:51:32Z</time>
      </trkpt>
      <trkpt lat="40.29766" lon="-8.4464">
        <ele>115.5</ele>
        <time>2019-05-22T09:51:46Z</time>
      </trkpt>
      <trkpt lat="40.29772" lon="-8.44639">
        <ele>115.98</ele>
        <time>2019-05-22T09:51:50Z</time>
      </trkpt>
      <trkpt lat="40.29783" lon="-8.44637">
        <ele>116.46</ele>
        <time>2019-05-22T09:52:00Z</time>
      </trkpt>
      <trkpt lat="40.29787" lon="-8.44636">
        <ele>115.98</ele>
        <time>2019-05-22T09:52:04Z</time>
      </trkpt>
      <trkpt lat="40.29794" lon="-8.44636">
        <ele>116.46</ele>
        <time>2019-05-22T09:52:15Z</time>
      </trkpt>
      <trkpt lat="40.29792" lon="-8.44635">
        <ele>117.42</ele>
        <time>2019-05-22T09:52:36Z</time>
      </trkpt>
      <trkpt lat="40.2979" lon="-8.44633">
        <ele>117.42</ele>
        <time>2019-05-22T09:52:59Z</time>
      </trkpt>
      <trkpt lat="40.29796" lon="-8.44633">
        <ele>116.94</ele>
        <time>2019-05-22T09:53:23Z</time>
      </trkpt>
      <trkpt lat="40.29807" lon="-8.44634">
        <ele>117.9</ele>
        <time>2019-05-22T09:53:32Z</time>
      </trkpt>
      <trkpt lat="40.2982" lon="-8.44634">
        <ele>118.38</ele>
        <time>2019-05-22T09:53:41Z</time>
      </trkpt>
      <trkpt lat="40.29832" lon="-8.4464">
        <ele>118.38</ele>
        <time>2019-05-22T09:53:52Z</time>
      </trkpt>
      <trkpt lat="40.29842" lon="-8.44639">
        <ele>118.86</ele>
        <time>2019-05-22T09:54:00Z</time>
      </trkpt>
      <trkpt lat="40.29844" lon="-8.4464">
        <ele>119.82</ele>
        <time>2019-05-22T09:54:02Z</time>
      </trkpt>
      <trkpt lat="40.29854" lon="-8.4464">
        <ele>119.34</ele>
        <time>2019-05-22T09:54:10Z</time>
      </trkpt>
      <trkpt lat="40.29861" lon="-8.44642">
        <ele>119.82</ele>
        <time>2019-05-22T09:54:16Z</time>
      </trkpt>
      <trkpt lat="40.29879" lon="-8.44644">
        <ele>120.3</ele>
        <time>2019-05-22T09:54:31Z</time>
      </trkpt>
      <trkpt lat="40.29894" lon="-8.44649">
        <ele>121.74</ele>
        <time>2019-05-22T09:54:44Z</time>
      </trkpt>
      <trkpt lat="40.29912" lon="-8.44653">
        <ele>122.22</ele>
        <time>2019-05-22T09:54:59Z</time>
      </trkpt>
      <trkpt lat="40.29927" lon="-8.44657">
        <ele>123.19</ele>
        <time>2019-05-22T09:55:15Z</time>
      </trkpt>
      <trkpt lat="40.29934" lon="-8.44659">
        <ele>123.19</ele>
        <time>2019-05-22T09:55:34Z</time>
      </trkpt>
      <trkpt lat="40.29948" lon="-8.44663">
        <ele>123.67</ele>
        <time>2019-05-22T09:55:47Z</time>
      </trkpt>
      <trkpt lat="40.29965" lon="-8.44666">
        <ele>125.11</ele>
        <time>2019-05-22T09:56:01Z</time>
      </trkpt>
      <trkpt lat="40.29985" lon="-8.44671">
        <ele>125.11</ele>
        <time>2019-05-22T09:56:18Z</time>
      </trkpt>
      <trkpt lat="40.30003" lon="-8.44676">
        <ele>126.55</ele>
        <time>2019-05-22T09:56:33Z</time>
      </trkpt>
      <trkpt lat="40.30015" lon="-8.4468">
        <ele>127.03</ele>
        <time>2019-05-22T09:56:44Z</time>
      </trkpt>
      <trkpt lat="40.30031" lon="-8.44682">
        <ele>127.99</ele>
        <time>2019-05-22T09:56:58Z</time>
      </trkpt>
      <trkpt lat="40.30047" lon="-8.44687">
        <ele>127.99</ele>
        <time>2019-05-22T09:57:11Z</time>
      </trkpt>
      <trkpt lat="40.30064" lon="-8.44691">
        <ele>128.95</ele>
        <time>2019-05-22T09:57:25Z</time>
      </trkpt>
      <trkpt lat="40.30068" lon="-8.44692">
        <ele>129.43</ele>
        <time>2019-05-22T09:57:28Z</time>
      </trkpt>
      <trkpt lat="40.30076" lon="-8.44694">
        <ele>129.92</ele>
        <time>2019-05-22T09:57:35Z</time>
      </trkpt>
      <trkpt lat="40.30093" lon="-8.44698">
        <ele>130.88</ele>
        <time>2019-05-22T09:57:49Z</time>
      </trkpt>
      <trkpt lat="40.30109" lon="-8.44705">
        <ele>131.36</ele>
        <time>2019-05-22T09:58:05Z</time>
      </trkpt>
      <trkpt lat="40.30117" lon="-8.44705">
        <ele>131.36</ele>
        <time>2019-05-22T09:58:18Z</time>
      </trkpt>
      <trkpt lat="40.30134" lon="-8.4471">
        <ele>132.32</ele>
        <time>2019-05-22T09:58:33Z</time>
      </trkpt>
      <trkpt lat="40.30151" lon="-8.44714">
        <ele>132.32</ele>
        <time>2019-05-22T09:58:47Z</time>
      </trkpt>
      <trkpt lat="40.30156" lon="-8.44715">
        <ele>132.32</ele>
        <time>2019-05-22T09:58:51Z</time>
      </trkpt>
      <trkpt lat="40.30177" lon="-8.44717">
        <ele>133.76</ele>
        <time>2019-05-22T09:59:09Z</time>
      </trkpt>
      <trkpt lat="40.30194" lon="-8.44721">
        <ele>134.72</ele>
        <time>2019-05-22T09:59:25Z</time>
      </trkpt>
      <trkpt lat="40.30198" lon="-8.44723">
        <ele>135.2</ele>
        <time>2019-05-22T09:59:29Z</time>
      </trkpt>
      <trkpt lat="40.30214" lon="-8.4473">
        <ele>135.68</ele>
        <time>2019-05-22T09:59:42Z</time>
      </trkpt>
      <trkpt lat="40.30232" lon="-8.44737">
        <ele>137.13</ele>
        <time>2019-05-22T09:59:59Z</time>
      </trkpt>
      <trkpt lat="40.30248" lon="-8.44744">
        <ele>136.64</ele>
        <time>2019-05-22T10:00:14Z</time>
      </trkpt>
      <trkpt lat="40.30264" lon="-8.44751">
        <ele>137.61</ele>
        <time>2019-05-22T10:00:28Z</time>
      </trkpt>
      <trkpt lat="40.30279" lon="-8.44758">
        <ele>138.57</ele>
        <time>2019-05-22T10:00:40Z</time>
      </trkpt>
      <trkpt lat="40.30295" lon="-8.44765">
        <ele>139.53</ele>
        <time>2019-05-22T10:00:55Z</time>
      </trkpt>
      <trkpt lat="40.30298" lon="-8.44764">
        <ele>139.05</ele>
        <time>2019-05-22T10:01:09Z</time>
      </trkpt>
      <trkpt lat="40.30306" lon="-8.4477">
        <ele>139.05</ele>
        <time>2019-05-22T10:01:27Z</time>
      </trkpt>
      <trkpt lat="40.30318" lon="-8.44777">
        <ele>140.49</ele>
        <time>2019-05-22T10:01:39Z</time>
      </trkpt>
      <trkpt lat="40.30332" lon="-8.44782">
        <ele>140.97</ele>
        <time>2019-05-22T10:01:51Z</time>
      </trkpt>
      <trkpt lat="40.30347" lon="-8.44787">
        <ele>140.97</ele>
        <time>2019-05-22T10:02:04Z</time>
      </trkpt>
      <trkpt lat="40.30356" lon="-8.4479">
        <ele>141.93</ele>
        <time>2019-05-22T10:02:12Z</time>
      </trkpt>
      <trkpt lat="40.30373" lon="-8.44797">
        <ele>142.89</ele>
        <time>2019-05-22T10:02:26Z</time>
      </trkpt>
      <trkpt lat="40.30388" lon="-8.44803">
        <ele>144.34</ele>
        <time>2019-05-22T10:02:40Z</time>
      </trkpt>
      <trkpt lat="40.30407" lon="-8.44811">
        <ele>145.3</ele>
        <time>2019-05-22T10:02:57Z</time>
      </trkpt>
      <trkpt lat="40.30422" lon="-8.44817">
        <ele>146.26</ele>
        <time>2019-05-22T10:03:11Z</time>
      </trkpt>
      <trkpt lat="40.3043" lon="-8.44819">
        <ele>146.74</ele>
        <time>2019-05-22T10:03:24Z</time>
      </trkpt>
      <trkpt lat="40.3044" lon="-8.44822">
        <ele>146.26</ele>
        <time>2019-05-22T10:03:38Z</time>
      </trkpt>
      <trkpt lat="40.30441" lon="-8.44823">
        <ele>146.26</ele>
        <time>2019-05-22T10:03:40Z</time>
      </trkpt>
      <trkpt lat="40.3046" lon="-8.44828">
        <ele>147.22</ele>
        <time>2019-05-22T10:03:55Z</time>
      </trkpt>
      <trkpt lat="40.30478" lon="-8.44833">
        <ele>147.22</ele>
        <time>2019-05-22T10:04:11Z</time>
      </trkpt>
      <trkpt lat="40.30496" lon="-8.4484">
        <ele>147.22</ele>
        <time>2019-05-22T10:04:26Z</time>
      </trkpt>
      <trkpt lat="40.30508" lon="-8.44852">
        <ele>147.7</ele>
        <time>2019-05-22T10:04:40Z</time>
      </trkpt>
      <trkpt lat="40.30509" lon="-8.44854">
        <ele>148.18</ele>
        <time>2019-05-22T10:04:43Z</time>
      </trkpt>
      <trkpt lat="40.3051" lon="-8.4486">
        <ele>147.7</ele>
        <time>2019-05-22T10:04:47Z</time>
      </trkpt>
      <trkpt lat="40.30516" lon="-8.44863">
        <ele>148.66</ele>
        <time>2019-05-22T10:04:54Z</time>
      </trkpt>
      <trkpt lat="40.30525" lon="-8.44866">
        <ele>147.7</ele>
        <time>2019-05-22T10:05:03Z</time>
      </trkpt>
      <trkpt lat="40.30539" lon="-8.44859">
        <ele>147.7</ele>
        <time>2019-05-22T10:05:19Z</time>
      </trkpt>
      <trkpt lat="40.30549" lon="-8.44872">
        <ele>146.74</ele>
        <time>2019-05-22T10:05:31Z</time>
      </trkpt>
      <trkpt lat="40.30554" lon="-8.44878">
        <ele>146.74</ele>
        <time>2019-05-22T10:05:36Z</time>
      </trkpt>
      <trkpt lat="40.30559" lon="-8.44888">
        <ele>146.74</ele>
        <time>2019-05-22T10:05:48Z</time>
      </trkpt>
      <trkpt lat="40.30572" lon="-8.44905">
        <ele>147.22</ele>
        <time>2019-05-22T10:06:02Z</time>
      </trkpt>
      <trkpt lat="40.30583" lon="-8.44921">
        <ele>146.74</ele>
        <time>2019-05-22T10:06:16Z</time>
      </trkpt>
      <trkpt lat="40.30586" lon="-8.44925">
        <ele>147.7</ele>
        <time>2019-05-22T10:06:19Z</time>
      </trkpt>
      <trkpt lat="40.30595" lon="-8.44943">
        <ele>148.18</ele>
        <time>2019-05-22T10:06:33Z</time>
      </trkpt>
      <trkpt lat="40.30602" lon="-8.44956">
        <ele>148.18</ele>
        <time>2019-05-22T10:06:44Z</time>
      </trkpt>
      <trkpt lat="40.30608" lon="-8.44966">
        <ele>147.7</ele>
        <time>2019-05-22T10:06:52Z</time>
      </trkpt>
      <trkpt lat="40.30617" lon="-8.44984">
        <ele>147.22</ele>
        <time>2019-05-22T10:07:07Z</time>
      </trkpt>
      <trkpt lat="40.30615" lon="-8.4498">
        <ele>147.22</ele>
        <time>2019-05-22T10:07:19Z</time>
      </trkpt>
      <trkpt lat="40.30611" lon="-8.44982">
        <ele>147.22</ele>
        <time>2019-05-22T10:07:33Z</time>
      </trkpt>
      <trkpt lat="40.30609" lon="-8.44989">
        <ele>146.74</ele>
        <time>2019-05-22T10:07:45Z</time>
      </trkpt>
      <trkpt lat="40.3061" lon="-8.44992">
        <ele>146.74</ele>
        <time>2019-05-22T10:08:03Z</time>
      </trkpt>
      <trkpt lat="40.30612" lon="-8.44987">
        <ele>147.22</ele>
        <time>2019-05-22T10:08:18Z</time>
      </trkpt>
      <trkpt lat="40.30607" lon="-8.44988">
        <ele>146.74</ele>
        <time>2019-05-22T10:08:31Z</time>
      </trkpt>
      <trkpt lat="40.30607" lon="-8.44987">
        <ele>146.74</ele>
        <time>2019-05-22T10:08:47Z</time>
      </trkpt>
      <trkpt lat="40.30609" lon="-8.44984">
        <ele>147.22</ele>
        <time>2019-05-22T10:08:53Z</time>
      </trkpt>
      <trkpt lat="40.30611" lon="-8.44983">
        <ele>147.22</ele>
        <time>2019-05-22T10:08:55Z</time>
      </trkpt>
      <trkpt lat="40.30615" lon="-8.4498">
        <ele>147.22</ele>
        <time>2019-05-22T10:08:59Z</time>
      </trkpt>
      <trkpt lat="40.30618" lon="-8.44983">
        <ele>147.22</ele>
        <time>2019-05-22T10:09:03Z</time>
      </trkpt>
      <trkpt lat="40.30623" lon="-8.44993">
        <ele>147.22</ele>
        <time>2019-05-22T10:09:11Z</time>
      </trkpt>
      <trkpt lat="40.3063" lon="-8.45005">
        <ele>146.74</ele>
        <time>2019-05-22T10:09:25Z</time>
      </trkpt>
      <trkpt lat="40.30634" lon="-8.45029">
        <ele>147.22</ele>
        <time>2019-05-22T10:09:41Z</time>
      </trkpt>
      <trkpt lat="40.30637" lon="-8.45045">
        <ele>147.22</ele>
        <time>2019-05-22T10:09:51Z</time>
      </trkpt>
      <trkpt lat="40.30636" lon="-8.45049">
        <ele>147.22</ele>
        <time>2019-05-22T10:09:54Z</time>
      </trkpt>
      <trkpt lat="40.30643" lon="-8.45061">
        <ele>146.74</ele>
        <time>2019-05-22T10:10:06Z</time>
      </trkpt>
      <trkpt lat="40.30657" lon="-8.45075">
        <ele>146.74</ele>
        <time>2019-05-22T10:10:19Z</time>
      </trkpt>
      <trkpt lat="40.3067" lon="-8.45088">
        <ele>146.26</ele>
        <time>2019-05-22T10:10:32Z</time>
      </trkpt>
      <trkpt lat="40.30686" lon="-8.451">
        <ele>146.26</ele>
        <time>2019-05-22T10:10:46Z</time>
      </trkpt>
      <trkpt lat="40.30693" lon="-8.45106">
        <ele>146.74</ele>
        <time>2019-05-22T10:10:59Z</time>
      </trkpt>
      <trkpt lat="40.30708" lon="-8.45121">
        <ele>147.7</ele>
        <time>2019-05-22T10:11:13Z</time>
      </trkpt>
      <trkpt lat="40.30721" lon="-8.45135">
        <ele>147.7</ele>
        <time>2019-05-22T10:11:27Z</time>
      </trkpt>
      <trkpt lat="40.30737" lon="-8.45151">
        <ele>146.74</ele>
        <time>2019-05-22T10:11:43Z</time>
      </trkpt>
      <trkpt lat="40.30753" lon="-8.45167">
        <ele>146.26</ele>
        <time>2019-05-22T10:12:00Z</time>
      </trkpt>
      <trkpt lat="40.3077" lon="-8.45185">
        <ele>146.74</ele>
        <time>2019-05-22T10:12:17Z</time>
      </trkpt>
      <trkpt lat="40.30786" lon="-8.452">
        <ele>146.26</ele>
        <time>2019-05-22T10:12:33Z</time>
      </trkpt>
      <trkpt lat="40.30802" lon="-8.45217">
        <ele>146.74</ele>
        <time>2019-05-22T10:12:49Z</time>
      </trkpt>
      <trkpt lat="40.30813" lon="-8.45232">
        <ele>145.78</ele>
        <time>2019-05-22T10:13:02Z</time>
      </trkpt>
      <trkpt lat="40.30824" lon="-8.45248">
        <ele>146.26</ele>
        <time>2019-05-22T10:13:16Z</time>
      </trkpt>
      <trkpt lat="40.30833" lon="-8.45262">
        <ele>146.26</ele>
        <time>2019-05-22T10:13:29Z</time>
      </trkpt>
      <trkpt lat="40.30845" lon="-8.45278">
        <ele>145.3</ele>
        <time>2019-05-22T10:13:43Z</time>
      </trkpt>
      <trkpt lat="40.3085" lon="-8.45288">
        <ele>145.3</ele>
        <time>2019-05-22T10:13:57Z</time>
      </trkpt>
      <trkpt lat="40.30853" lon="-8.45292">
        <ele>144.82</ele>
        <time>2019-05-22T10:14:01Z</time>
      </trkpt>
      <trkpt lat="40.30866" lon="-8.45312">
        <ele>145.78</ele>
        <time>2019-05-22T10:14:17Z</time>
      </trkpt>
      <trkpt lat="40.30875" lon="-8.45334">
        <ele>145.78</ele>
        <time>2019-05-22T10:14:33Z</time>
      </trkpt>
      <trkpt lat="40.30883" lon="-8.45356">
        <ele>144.82</ele>
        <time>2019-05-22T10:14:49Z</time>
      </trkpt>
      <trkpt lat="40.30894" lon="-8.45377">
        <ele>144.82</ele>
        <time>2019-05-22T10:15:04Z</time>
      </trkpt>
      <trkpt lat="40.30895" lon="-8.4538">
        <ele>144.82</ele>
        <time>2019-05-22T10:15:06Z</time>
      </trkpt>
      <trkpt lat="40.30898" lon="-8.45389">
        <ele>144.82</ele>
        <time>2019-05-22T10:15:12Z</time>
      </trkpt>
      <trkpt lat="40.30906" lon="-8.45402">
        <ele>144.34</ele>
        <time>2019-05-22T10:15:22Z</time>
      </trkpt>
      <trkpt lat="40.30915" lon="-8.45419">
        <ele>144.34</ele>
        <time>2019-05-22T10:15:34Z</time>
      </trkpt>
      <trkpt lat="40.3092" lon="-8.45431">
        <ele>144.82</ele>
        <time>2019-05-22T10:15:42Z</time>
      </trkpt>
      <trkpt lat="40.30928" lon="-8.45449">
        <ele>144.82</ele>
        <time>2019-05-22T10:15:55Z</time>
      </trkpt>
      <trkpt lat="40.30939" lon="-8.4547">
        <ele>143.85</ele>
        <time>2019-05-22T10:16:11Z</time>
      </trkpt>
      <trkpt lat="40.30949" lon="-8.45486">
        <ele>143.85</ele>
        <time>2019-05-22T10:16:25Z</time>
      </trkpt>
      <trkpt lat="40.30967" lon="-8.45498">
        <ele>142.89</ele>
        <time>2019-05-22T10:16:41Z</time>
      </trkpt>
      <trkpt lat="40.30984" lon="-8.45509">
        <ele>142.89</ele>
        <time>2019-05-22T10:16:55Z</time>
      </trkpt>
      <trkpt lat="40.30995" lon="-8.4552">
        <ele>143.37</ele>
        <time>2019-05-22T10:17:07Z</time>
      </trkpt>
      <trkpt lat="40.31001" lon="-8.45526">
        <ele>143.37</ele>
        <time>2019-05-22T10:17:14Z</time>
      </trkpt>
      <trkpt lat="40.31006" lon="-8.45534">
        <ele>143.85</ele>
        <time>2019-05-22T10:17:27Z</time>
      </trkpt>
      <trkpt lat="40.3101" lon="-8.45538">
        <ele>143.37</ele>
        <time>2019-05-22T10:17:46Z</time>
      </trkpt>
      <trkpt lat="40.31024" lon="-8.45551">
        <ele>143.37</ele>
        <time>2019-05-22T10:18:00Z</time>
      </trkpt>
      <trkpt lat="40.31034" lon="-8.45563">
        <ele>142.89</ele>
        <time>2019-05-22T10:18:11Z</time>
      </trkpt>
      <trkpt lat="40.3104" lon="-8.45572">
        <ele>142.41</ele>
        <time>2019-05-22T10:18:19Z</time>
      </trkpt>
      <trkpt lat="40.3105" lon="-8.45585">
        <ele>142.41</ele>
        <time>2019-05-22T10:18:32Z</time>
      </trkpt>
      <trkpt lat="40.31061" lon="-8.45601">
        <ele>142.41</ele>
        <time>2019-05-22T10:18:46Z</time>
      </trkpt>
      <trkpt lat="40.3107" lon="-8.45618">
        <ele>142.41</ele>
        <time>2019-05-22T10:18:58Z</time>
      </trkpt>
      <trkpt lat="40.31083" lon="-8.45633">
        <ele>141.93</ele>
        <time>2019-05-22T10:19:12Z</time>
      </trkpt>
      <trkpt lat="40.31097" lon="-8.45644">
        <ele>141.93</ele>
        <time>2019-05-22T10:19:25Z</time>
      </trkpt>
      <trkpt lat="40.311" lon="-8.45646">
        <ele>141.45</ele>
        <time>2019-05-22T10:19:45Z</time>
      </trkpt>
      <trkpt lat="40.3111" lon="-8.45657">
        <ele>141.45</ele>
        <time>2019-05-22T10:20:00Z</time>
      </trkpt>
      <trkpt lat="40.31116" lon="-8.45666">
        <ele>140.97</ele>
        <time>2019-05-22T10:20:09Z</time>
      </trkpt>
      <trkpt lat="40.31126" lon="-8.45685">
        <ele>140.49</ele>
        <time>2019-05-22T10:20:22Z</time>
      </trkpt>
      <trkpt lat="40.31131" lon="-8.45692">
        <ele>140.97</ele>
        <time>2019-05-22T10:20:27Z</time>
      </trkpt>
      <trkpt lat="40.31141" lon="-8.45705">
        <ele>140.97</ele>
        <time>2019-05-22T10:20:38Z</time>
      </trkpt>
      <trkpt lat="40.31147" lon="-8.45714">
        <ele>140.49</ele>
        <time>2019-05-22T10:20:46Z</time>
      </trkpt>
      <trkpt lat="40.31158" lon="-8.45728">
        <ele>140.49</ele>
        <time>2019-05-22T10:20:58Z</time>
      </trkpt>
      <trkpt lat="40.31163" lon="-8.45736">
        <ele>140.49</ele>
        <time>2019-05-22T10:21:04Z</time>
      </trkpt>
      <trkpt lat="40.31169" lon="-8.45748">
        <ele>140.49</ele>
        <time>2019-05-22T10:21:16Z</time>
      </trkpt>
      <trkpt lat="40.31173" lon="-8.45753">
        <ele>140.01</ele>
        <time>2019-05-22T10:21:23Z</time>
      </trkpt>
      <trkpt lat="40.31177" lon="-8.4576">
        <ele>140.01</ele>
        <time>2019-05-22T10:21:30Z</time>
      </trkpt>
      <trkpt lat="40.31189" lon="-8.45773">
        <ele>140.01</ele>
        <time>2019-05-22T10:21:43Z</time>
      </trkpt>
      <trkpt lat="40.31205" lon="-8.45786">
        <ele>140.01</ele>
        <time>2019-05-22T10:21:58Z</time>
      </trkpt>
      <trkpt lat="40.31218" lon="-8.45798">
        <ele>140.49</ele>
        <time>2019-05-22T10:22:10Z</time>
      </trkpt>
      <trkpt lat="40.31232" lon="-8.45811">
        <ele>139.53</ele>
        <time>2019-05-22T10:22:23Z</time>
      </trkpt>
      <trkpt lat="40.31237" lon="-8.45816">
        <ele>139.05</ele>
        <time>2019-05-22T10:22:27Z</time>
      </trkpt>
      <trkpt lat="40.31251" lon="-8.45833">
        <ele>140.01</ele>
        <time>2019-05-22T10:22:41Z</time>
      </trkpt>
      <trkpt lat="40.31257" lon="-8.4584">
        <ele>140.01</ele>
        <time>2019-05-22T10:22:49Z</time>
      </trkpt>
      <trkpt lat="40.31267" lon="-8.45852">
        <ele>139.53</ele>
        <time>2019-05-22T10:23:02Z</time>
      </trkpt>
      <trkpt lat="40.31279" lon="-8.45866">
        <ele>139.53</ele>
        <time>2019-05-22T10:23:16Z</time>
      </trkpt>
      <trkpt lat="40.31286" lon="-8.45875">
        <ele>139.53</ele>
        <time>2019-05-22T10:23:24Z</time>
      </trkpt>
      <trkpt lat="40.31299" lon="-8.4589">
        <ele>139.05</ele>
        <time>2019-05-22T10:23:37Z</time>
      </trkpt>
      <trkpt lat="40.31308" lon="-8.45898">
        <ele>139.05</ele>
        <time>2019-05-22T10:23:51Z</time>
      </trkpt>
      <trkpt lat="40.31314" lon="-8.45895">
        <ele>139.53</ele>
        <time>2019-05-22T10:24:11Z</time>
      </trkpt>
      <trkpt lat="40.31313" lon="-8.45894">
        <ele>139.05</ele>
        <time>2019-05-22T10:24:28Z</time>
      </trkpt>
      <trkpt lat="40.31311" lon="-8.45897">
        <ele>138.57</ele>
        <time>2019-05-22T10:24:41Z</time>
      </trkpt>
      <trkpt lat="40.31309" lon="-8.45893">
        <ele>138.09</ele>
        <time>2019-05-22T10:24:54Z</time>
      </trkpt>
      <trkpt lat="40.31309" lon="-8.45899">
        <ele>138.09</ele>
        <time>2019-05-22T10:25:11Z</time>
      </trkpt>
      <trkpt lat="40.3131" lon="-8.45901">
        <ele>138.09</ele>
        <time>2019-05-22T10:25:29Z</time>
      </trkpt>
      <trkpt lat="40.31312" lon="-8.45901">
        <ele>138.09</ele>
        <time>2019-05-22T10:25:57Z</time>
      </trkpt>
      <trkpt lat="40.31312" lon="-8.45898">
        <ele>137.61</ele>
        <time>2019-05-22T10:26:26Z</time>
      </trkpt>
      <trkpt lat="40.31311" lon="-8.45899">
        <ele>137.61</ele>
        <time>2019-05-22T10:26:57Z</time>
      </trkpt>
      <trkpt lat="40.31308" lon="-8.45894">
        <ele>137.61</ele>
        <time>2019-05-22T10:27:28Z</time>
      </trkpt>
      <trkpt lat="40.31308" lon="-8.45887">
        <ele>138.09</ele>
        <time>2019-05-22T10:28:01Z</time>
      </trkpt>
      <trkpt lat="40.31307" lon="-8.45887">
        <ele>138.57</ele>
        <time>2019-05-22T10:28:48Z</time>
      </trkpt>
      <trkpt lat="40.3131" lon="-8.45889">
        <ele>138.09</ele>
        <time>2019-05-22T10:29:27Z</time>
      </trkpt>
      <trkpt lat="40.3131" lon="-8.4589">
        <ele>139.05</ele>
        <time>2019-05-22T10:30:12Z</time>
      </trkpt>
      <trkpt lat="40.31311" lon="-8.45891">
        <ele>138.57</ele>
        <time>2019-05-22T10:30:54Z</time>
      </trkpt>
      <trkpt lat="40.31312" lon="-8.45891">
        <ele>138.57</ele>
        <time>2019-05-22T10:31:30Z</time>
      </trkpt>
      <trkpt lat="40.31312" lon="-8.45892">
        <ele>138.09</ele>
        <time>2019-05-22T10:31:53Z</time>
      </trkpt>
      <trkpt lat="40.31309" lon="-8.45894">
        <ele>138.57</ele>
        <time>2019-05-22T10:32:28Z</time>
      </trkpt>
      <trkpt lat="40.31307" lon="-8.45891">
        <ele>137.61</ele>
        <time>2019-05-22T10:32:59Z</time>
      </trkpt>
      <trkpt lat="40.31311" lon="-8.45893">
        <ele>138.57</ele>
        <time>2019-05-22T10:33:29Z</time>
      </trkpt>
      <trkpt lat="40.31311" lon="-8.45892">
        <ele>138.57</ele>
        <time>2019-05-22T10:33:58Z</time>
      </trkpt>
      <trkpt lat="40.31311" lon="-8.4589">
        <ele>138.57</ele>
        <time>2019-05-22T10:34:28Z</time>
      </trkpt>
      <trkpt lat="40.31312" lon="-8.45894">
        <ele>137.61</ele>
        <time>2019-05-22T10:35:00Z</time>
      </trkpt>
      <trkpt lat="40.31308" lon="-8.45893">
        <ele>138.57</ele>
        <time>2019-05-22T10:35:36Z</time>
      </trkpt>
      <trkpt lat="40.31309" lon="-8.4589">
        <ele>138.57</ele>
        <time>2019-05-22T10:36:02Z</time>
      </trkpt>
      <trkpt lat="40.31308" lon="-8.45894">
        <ele>138.57</ele>
        <time>2019-05-22T10:36:42Z</time>
      </trkpt>
      <trkpt lat="40.31309" lon="-8.45892">
        <ele>138.09</ele>
        <time>2019-05-22T10:37:19Z</time>
      </trkpt>
      <trkpt lat="40.31307" lon="-8.45894">
        <ele>138.57</ele>
        <time>2019-05-22T10:38:01Z</time>
      </trkpt>
      <trkpt lat="40.31308" lon="-8.45893">
        <ele>139.53</ele>
        <time>2019-05-22T10:38:22Z</time>
      </trkpt>
      <trkpt lat="40.31306" lon="-8.45893">
        <ele>138.57</ele>
        <time>2019-05-22T10:38:35Z</time>
      </trkpt>
      <trkpt lat="40.31308" lon="-8.45893">
        <ele>139.53</ele>
        <time>2019-05-22T10:39:00Z</time>
      </trkpt>
      <trkpt lat="40.3131" lon="-8.45894">
        <ele>139.53</ele>
        <time>2019-05-22T10:39:15Z</time>
      </trkpt>
      <trkpt lat="40.31308" lon="-8.45894">
        <ele>142.41</ele>
        <time>2019-05-22T10:39:25Z</time>
      </trkpt>
      <trkpt lat="40.31308" lon="-8.45894">
        <ele>139.53</ele>
        <time>2019-05-22T10:39:26Z</time>
      </trkpt>
      <trkpt lat="40.31311" lon="-8.45896">
        <ele>139.53</ele>
        <time>2019-05-22T10:39:42Z</time>
      </trkpt>
      <trkpt lat="40.31322" lon="-8.45903">
        <ele>139.53</ele>
        <time>2019-05-22T10:39:56Z</time>
      </trkpt>
      <trkpt lat="40.31323" lon="-8.45909">
        <ele>139.05</ele>
        <time>2019-05-22T10:40:06Z</time>
      </trkpt>
      <trkpt lat="40.3133" lon="-8.45919">
        <ele>139.05</ele>
        <time>2019-05-22T10:40:18Z</time>
      </trkpt>
      <trkpt lat="40.3134" lon="-8.45931">
        <ele>138.57</ele>
        <time>2019-05-22T10:40:31Z</time>
      </trkpt>
      <trkpt lat="40.31345" lon="-8.45939">
        <ele>139.53</ele>
        <time>2019-05-22T10:40:42Z</time>
      </trkpt>
      <trkpt lat="40.3135" lon="-8.45945">
        <ele>139.05</ele>
        <time>2019-05-22T10:40:48Z</time>
      </trkpt>
      <trkpt lat="40.31355" lon="-8.45953">
        <ele>138.57</ele>
        <time>2019-05-22T10:41:02Z</time>
      </trkpt>
      <trkpt lat="40.31356" lon="-8.45954">
        <ele>139.05</ele>
        <time>2019-05-22T10:41:03Z</time>
      </trkpt>
      <trkpt lat="40.31366" lon="-8.45966">
        <ele>138.57</ele>
        <time>2019-05-22T10:41:16Z</time>
      </trkpt>
      <trkpt lat="40.31371" lon="-8.45971">
        <ele>138.57</ele>
        <time>2019-05-22T10:41:21Z</time>
      </trkpt>
      <trkpt lat="40.31372" lon="-8.45973">
        <ele>138.57</ele>
        <time>2019-05-22T10:41:23Z</time>
      </trkpt>
      <trkpt lat="40.31375" lon="-8.45975">
        <ele>138.57</ele>
        <time>2019-05-22T10:41:26Z</time>
      </trkpt>
      <trkpt lat="40.31379" lon="-8.4598">
        <ele>138.09</ele>
        <time>2019-05-22T10:41:30Z</time>
      </trkpt>
      <trkpt lat="40.3139" lon="-8.4599">
        <ele>137.13</ele>
        <time>2019-05-22T10:41:42Z</time>
      </trkpt>
      <trkpt lat="40.31408" lon="-8.46005">
        <ele>136.64</ele>
        <time>2019-05-22T10:41:57Z</time>
      </trkpt>
      <trkpt lat="40.31424" lon="-8.46029">
        <ele>136.64</ele>
        <time>2019-05-22T10:42:13Z</time>
      </trkpt>
      <trkpt lat="40.31426" lon="-8.46031">
        <ele>136.16</ele>
        <time>2019-05-22T10:42:15Z</time>
      </trkpt>
      <trkpt lat="40.31438" lon="-8.46048">
        <ele>135.68</ele>
        <time>2019-05-22T10:42:29Z</time>
      </trkpt>
      <trkpt lat="40.31444" lon="-8.46058">
        <ele>135.68</ele>
        <time>2019-05-22T10:42:43Z</time>
      </trkpt>
      <trkpt lat="40.31454" lon="-8.46068">
        <ele>135.2</ele>
        <time>2019-05-22T10:42:57Z</time>
      </trkpt>
      <trkpt lat="40.31455" lon="-8.46069">
        <ele>135.68</ele>
        <time>2019-05-22T10:42:58Z</time>
      </trkpt>
      <trkpt lat="40.31467" lon="-8.46077">
        <ele>135.2</ele>
        <time>2019-05-22T10:43:10Z</time>
      </trkpt>
      <trkpt lat="40.31481" lon="-8.46087">
        <ele>135.2</ele>
        <time>2019-05-22T10:43:23Z</time>
      </trkpt>
      <trkpt lat="40.31493" lon="-8.46102">
        <ele>135.2</ele>
        <time>2019-05-22T10:43:35Z</time>
      </trkpt>
      <trkpt lat="40.31498" lon="-8.46109">
        <ele>135.2</ele>
        <time>2019-05-22T10:43:41Z</time>
      </trkpt>
      <trkpt lat="40.31511" lon="-8.46125">
        <ele>134.72</ele>
        <time>2019-05-22T10:43:56Z</time>
      </trkpt>
      <trkpt lat="40.31523" lon="-8.46137">
        <ele>134.72</ele>
        <time>2019-05-22T10:44:11Z</time>
      </trkpt>
      <trkpt lat="40.31534" lon="-8.46152">
        <ele>134.72</ele>
        <time>2019-05-22T10:44:25Z</time>
      </trkpt>
      <trkpt lat="40.31543" lon="-8.46159">
        <ele>134.72</ele>
        <time>2019-05-22T10:44:38Z</time>
      </trkpt>
      <trkpt lat="40.31547" lon="-8.4616">
        <ele>134.72</ele>
        <time>2019-05-22T10:44:49Z</time>
      </trkpt>
      <trkpt lat="40.3156" lon="-8.46159">
        <ele>134.24</ele>
        <time>2019-05-22T10:45:02Z</time>
      </trkpt>
      <trkpt lat="40.31573" lon="-8.46157">
        <ele>131.84</ele>
        <time>2019-05-22T10:45:14Z</time>
      </trkpt>
      <trkpt lat="40.31578" lon="-8.46156">
        <ele>131.36</ele>
        <time>2019-05-22T10:45:18Z</time>
      </trkpt>
      <trkpt lat="40.31596" lon="-8.46166">
        <ele>128.47</ele>
        <time>2019-05-22T10:45:32Z</time>
      </trkpt>
      <trkpt lat="40.31609" lon="-8.46177">
        <ele>126.55</ele>
        <time>2019-05-22T10:45:46Z</time>
      </trkpt>
      <trkpt lat="40.31618" lon="-8.46186">
        <ele>125.11</ele>
        <time>2019-05-22T10:45:55Z</time>
      </trkpt>
      <trkpt lat="40.31636" lon="-8.46206">
        <ele>122.71</ele>
        <time>2019-05-22T10:46:12Z</time>
      </trkpt>
      <trkpt lat="40.31645" lon="-8.46213">
        <ele>123.19</ele>
        <time>2019-05-22T10:46:24Z</time>
      </trkpt>
      <trkpt lat="40.31647" lon="-8.46219">
        <ele>122.71</ele>
        <time>2019-05-22T10:46:40Z</time>
      </trkpt>
      <trkpt lat="40.31651" lon="-8.46226">
        <ele>122.71</ele>
        <time>2019-05-22T10:46:47Z</time>
      </trkpt>
      <trkpt lat="40.31653" lon="-8.4623">
        <ele>123.19</ele>
        <time>2019-05-22T10:46:50Z</time>
      </trkpt>
      <trkpt lat="40.31658" lon="-8.46238">
        <ele>122.22</ele>
        <time>2019-05-22T10:46:56Z</time>
      </trkpt>
      <trkpt lat="40.3166" lon="-8.46243">
        <ele>122.22</ele>
        <time>2019-05-22T10:46:59Z</time>
      </trkpt>
      <trkpt lat="40.31665" lon="-8.46251">
        <ele>122.22</ele>
        <time>2019-05-22T10:47:06Z</time>
      </trkpt>
      <trkpt lat="40.3168" lon="-8.46267">
        <ele>121.74</ele>
        <time>2019-05-22T10:47:21Z</time>
      </trkpt>
      <trkpt lat="40.31691" lon="-8.46279">
        <ele>121.74</ele>
        <time>2019-05-22T10:47:34Z</time>
      </trkpt>
      <trkpt lat="40.317" lon="-8.46289">
        <ele>120.3</ele>
        <time>2019-05-22T10:47:43Z</time>
      </trkpt>
      <trkpt lat="40.31706" lon="-8.4629">
        <ele>121.26</ele>
        <time>2019-05-22T10:47:47Z</time>
      </trkpt>
      <trkpt lat="40.3171" lon="-8.46294">
        <ele>120.78</ele>
        <time>2019-05-22T10:47:51Z</time>
      </trkpt>
      <trkpt lat="40.31723" lon="-8.46306">
        <ele>120.3</ele>
        <time>2019-05-22T10:48:05Z</time>
      </trkpt>
      <trkpt lat="40.31729" lon="-8.46315">
        <ele>120.3</ele>
        <time>2019-05-22T10:48:11Z</time>
      </trkpt>
      <trkpt lat="40.31737" lon="-8.46329">
        <ele>120.3</ele>
        <time>2019-05-22T10:48:20Z</time>
      </trkpt>
      <trkpt lat="40.31748" lon="-8.46341">
        <ele>119.82</ele>
        <time>2019-05-22T10:48:33Z</time>
      </trkpt>
      <trkpt lat="40.31764" lon="-8.46349">
        <ele>119.34</ele>
        <time>2019-05-22T10:48:48Z</time>
      </trkpt>
      <trkpt lat="40.31778" lon="-8.46353">
        <ele>119.82</ele>
        <time>2019-05-22T10:49:00Z</time>
      </trkpt>
      <trkpt lat="40.31784" lon="-8.46356">
        <ele>119.82</ele>
        <time>2019-05-22T10:49:05Z</time>
      </trkpt>
      <trkpt lat="40.31787" lon="-8.46359">
        <ele>119.34</ele>
        <time>2019-05-22T10:49:09Z</time>
      </trkpt>
      <trkpt lat="40.31801" lon="-8.46371">
        <ele>119.34</ele>
        <time>2019-05-22T10:49:22Z</time>
      </trkpt>
      <trkpt lat="40.31805" lon="-8.46376">
        <ele>119.34</ele>
        <time>2019-05-22T10:49:44Z</time>
      </trkpt>
      <trkpt lat="40.31815" lon="-8.4639">
        <ele>117.42</ele>
        <time>2019-05-22T10:49:56Z</time>
      </trkpt>
      <trkpt lat="40.31822" lon="-8.46401">
        <ele>116.94</ele>
        <time>2019-05-22T10:50:09Z</time>
      </trkpt>
      <trkpt lat="40.31832" lon="-8.46411">
        <ele>115.5</ele>
        <time>2019-05-22T10:50:21Z</time>
      </trkpt>
      <trkpt lat="40.31833" lon="-8.46412">
        <ele>115.98</ele>
        <time>2019-05-22T10:50:22Z</time>
      </trkpt>
      <trkpt lat="40.31845" lon="-8.46429">
        <ele>114.53</ele>
        <time>2019-05-22T10:50:36Z</time>
      </trkpt>
      <trkpt lat="40.31851" lon="-8.46439">
        <ele>115.01</ele>
        <time>2019-05-22T10:50:44Z</time>
      </trkpt>
      <trkpt lat="40.31859" lon="-8.46447">
        <ele>114.53</ele>
        <time>2019-05-22T10:50:52Z</time>
      </trkpt>
      <trkpt lat="40.31874" lon="-8.46456">
        <ele>114.05</ele>
        <time>2019-05-22T10:51:07Z</time>
      </trkpt>
      <trkpt lat="40.31885" lon="-8.46464">
        <ele>114.05</ele>
        <time>2019-05-22T10:51:18Z</time>
      </trkpt>
      <trkpt lat="40.319" lon="-8.46473">
        <ele>113.57</ele>
        <time>2019-05-22T10:51:29Z</time>
      </trkpt>
      <trkpt lat="40.31915" lon="-8.4648">
        <ele>112.61</ele>
        <time>2019-05-22T10:51:41Z</time>
      </trkpt>
      <trkpt lat="40.31916" lon="-8.46481">
        <ele>112.61</ele>
        <time>2019-05-22T10:51:42Z</time>
      </trkpt>
      <trkpt lat="40.31929" lon="-8.46489">
        <ele>112.13</ele>
        <time>2019-05-22T10:51:53Z</time>
      </trkpt>
      <trkpt lat="40.31944" lon="-8.46502">
        <ele>112.13</ele>
        <time>2019-05-22T10:52:06Z</time>
      </trkpt>
      <trkpt lat="40.31957" lon="-8.4652">
        <ele>111.65</ele>
        <time>2019-05-22T10:52:20Z</time>
      </trkpt>
      <trkpt lat="40.31971" lon="-8.46536">
        <ele>111.65</ele>
        <time>2019-05-22T10:52:34Z</time>
      </trkpt>
      <trkpt lat="40.31984" lon="-8.46555">
        <ele>111.65</ele>
        <time>2019-05-22T10:52:48Z</time>
      </trkpt>
      <trkpt lat="40.31995" lon="-8.46572">
        <ele>111.17</ele>
        <time>2019-05-22T10:53:01Z</time>
      </trkpt>
      <trkpt lat="40.31999" lon="-8.46578">
        <ele>111.65</ele>
        <time>2019-05-22T10:53:13Z</time>
      </trkpt>
      <trkpt lat="40.32001" lon="-8.46584">
        <ele>110.69</ele>
        <time>2019-05-22T10:53:23Z</time>
      </trkpt>
      <trkpt lat="40.32011" lon="-8.46604">
        <ele>110.69</ele>
        <time>2019-05-22T10:53:38Z</time>
      </trkpt>
      <trkpt lat="40.32023" lon="-8.4662">
        <ele>110.21</ele>
        <time>2019-05-22T10:53:51Z</time>
      </trkpt>
      <trkpt lat="40.32033" lon="-8.46639">
        <ele>109.73</ele>
        <time>2019-05-22T10:54:05Z</time>
      </trkpt>
      <trkpt lat="40.32042" lon="-8.46653">
        <ele>108.77</ele>
        <time>2019-05-22T10:54:16Z</time>
      </trkpt>
      <trkpt lat="40.32053" lon="-8.46671">
        <ele>108.29</ele>
        <time>2019-05-22T10:54:30Z</time>
      </trkpt>
      <trkpt lat="40.32062" lon="-8.4669">
        <ele>107.32</ele>
        <time>2019-05-22T10:54:45Z</time>
      </trkpt>
      <trkpt lat="40.32064" lon="-8.46692">
        <ele>107.32</ele>
        <time>2019-05-22T10:54:47Z</time>
      </trkpt>
      <trkpt lat="40.32076" lon="-8.4671">
        <ele>106.36</ele>
        <time>2019-05-22T10:55:01Z</time>
      </trkpt>
      <trkpt lat="40.32085" lon="-8.46728">
        <ele>106.36</ele>
        <time>2019-05-22T10:55:13Z</time>
      </trkpt>
      <trkpt lat="40.32094" lon="-8.46748">
        <ele>105.4</ele>
        <time>2019-05-22T10:55:26Z</time>
      </trkpt>
      <trkpt lat="40.32097" lon="-8.46753">
        <ele>105.88</ele>
        <time>2019-05-22T10:55:39Z</time>
      </trkpt>
      <trkpt lat="40.32102" lon="-8.46766">
        <ele>104.44</ele>
        <time>2019-05-22T10:55:59Z</time>
      </trkpt>
      <trkpt lat="40.32104" lon="-8.46773">
        <ele>103.96</ele>
        <time>2019-05-22T10:56:05Z</time>
      </trkpt>
      <trkpt lat="40.32108" lon="-8.46779">
        <ele>103.96</ele>
        <time>2019-05-22T10:56:10Z</time>
      </trkpt>
      <trkpt lat="40.3212" lon="-8.46796">
        <ele>102.52</ele>
        <time>2019-05-22T10:56:26Z</time>
      </trkpt>
      <trkpt lat="40.32124" lon="-8.46801">
        <ele>102.04</ele>
        <time>2019-05-22T10:56:32Z</time>
      </trkpt>
      <trkpt lat="40.32133" lon="-8.46815">
        <ele>100.6</ele>
        <time>2019-05-22T10:56:44Z</time>
      </trkpt>
      <trkpt lat="40.32137" lon="-8.46821">
        <ele>100.11</ele>
        <time>2019-05-22T10:56:50Z</time>
      </trkpt>
      <trkpt lat="40.32139" lon="-8.46824">
        <ele>100.6</ele>
        <time>2019-05-22T10:56:52Z</time>
      </trkpt>
      <trkpt lat="40.3214" lon="-8.46826">
        <ele>99.63</ele>
        <time>2019-05-22T10:56:53Z</time>
      </trkpt>
      <trkpt lat="40.32153" lon="-8.46848">
        <ele>99.63</ele>
        <time>2019-05-22T10:57:06Z</time>
      </trkpt>
      <trkpt lat="40.32159" lon="-8.46863">
        <ele>98.67</ele>
        <time>2019-05-22T10:57:17Z</time>
      </trkpt>
      <trkpt lat="40.32174" lon="-8.46872">
        <ele>97.71</ele>
        <time>2019-05-22T10:57:29Z</time>
      </trkpt>
      <trkpt lat="40.32191" lon="-8.46872">
        <ele>97.23</ele>
        <time>2019-05-22T10:57:42Z</time>
      </trkpt>
      <trkpt lat="40.32209" lon="-8.46875">
        <ele>96.75</ele>
        <time>2019-05-22T10:57:55Z</time>
      </trkpt>
      <trkpt lat="40.32227" lon="-8.46882">
        <ele>95.79</ele>
        <time>2019-05-22T10:58:11Z</time>
      </trkpt>
      <trkpt lat="40.32244" lon="-8.46894">
        <ele>95.31</ele>
        <time>2019-05-22T10:58:27Z</time>
      </trkpt>
      <trkpt lat="40.3226" lon="-8.46907">
        <ele>93.87</ele>
        <time>2019-05-22T10:58:39Z</time>
      </trkpt>
      <trkpt lat="40.32272" lon="-8.46919">
        <ele>93.39</ele>
        <time>2019-05-22T10:58:50Z</time>
      </trkpt>
      <trkpt lat="40.32284" lon="-8.46927">
        <ele>92.42</ele>
        <time>2019-05-22T10:59:01Z</time>
      </trkpt>
      <trkpt lat="40.32298" lon="-8.46939">
        <ele>91.94</ele>
        <time>2019-05-22T10:59:15Z</time>
      </trkpt>
      <trkpt lat="40.32306" lon="-8.46945">
        <ele>91.94</ele>
        <time>2019-05-22T10:59:23Z</time>
      </trkpt>
      <trkpt lat="40.32321" lon="-8.46957">
        <ele>91.94</ele>
        <time>2019-05-22T10:59:38Z</time>
      </trkpt>
      <trkpt lat="40.32332" lon="-8.46972">
        <ele>91.46</ele>
        <time>2019-05-22T10:59:51Z</time>
      </trkpt>
      <trkpt lat="40.32343" lon="-8.4699">
        <ele>90.5</ele>
        <time>2019-05-22T11:00:03Z</time>
      </trkpt>
      <trkpt lat="40.32352" lon="-8.47003">
        <ele>90.98</ele>
        <time>2019-05-22T11:00:15Z</time>
      </trkpt>
      <trkpt lat="40.32362" lon="-8.47017">
        <ele>90.5</ele>
        <time>2019-05-22T11:00:30Z</time>
      </trkpt>
      <trkpt lat="40.32364" lon="-8.47018">
        <ele>90.5</ele>
        <time>2019-05-22T11:00:49Z</time>
      </trkpt>
      <trkpt lat="40.32366" lon="-8.47018">
        <ele>90.5</ele>
        <time>2019-05-22T11:01:01Z</time>
      </trkpt>
      <trkpt lat="40.3237" lon="-8.47014">
        <ele>90.5</ele>
        <time>2019-05-22T11:01:05Z</time>
      </trkpt>
      <trkpt lat="40.32378" lon="-8.47006">
        <ele>90.98</ele>
        <time>2019-05-22T11:01:15Z</time>
      </trkpt>
      <trkpt lat="40.32383" lon="-8.46998">
        <ele>90.98</ele>
        <time>2019-05-22T11:01:22Z</time>
      </trkpt>
      <trkpt lat="40.3239" lon="-8.46985">
        <ele>90.5</ele>
        <time>2019-05-22T11:01:32Z</time>
      </trkpt>
      <trkpt lat="40.32398" lon="-8.46976">
        <ele>90.02</ele>
        <time>2019-05-22T11:01:40Z</time>
      </trkpt>
      <trkpt lat="40.32408" lon="-8.46961">
        <ele>90.5</ele>
        <time>2019-05-22T11:01:51Z</time>
      </trkpt>
      <trkpt lat="40.32416" lon="-8.46946">
        <ele>90.5</ele>
        <time>2019-05-22T11:02:02Z</time>
      </trkpt>
      <trkpt lat="40.32419" lon="-8.46942">
        <ele>90.5</ele>
        <time>2019-05-22T11:02:05Z</time>
      </trkpt>
      <trkpt lat="40.32425" lon="-8.4693">
        <ele>90.02</ele>
        <time>2019-05-22T11:02:14Z</time>
      </trkpt>
      <trkpt lat="40.32432" lon="-8.46916">
        <ele>90.5</ele>
        <time>2019-05-22T11:02:25Z</time>
      </trkpt>
      <trkpt lat="40.32434" lon="-8.46913">
        <ele>90.5</ele>
        <time>2019-05-22T11:02:27Z</time>
      </trkpt>
      <trkpt lat="40.32442" lon="-8.46899">
        <ele>90.98</ele>
        <time>2019-05-22T11:02:38Z</time>
      </trkpt>
      <trkpt lat="40.32448" lon="-8.46886">
        <ele>90.98</ele>
        <time>2019-05-22T11:02:47Z</time>
      </trkpt>
      <trkpt lat="40.32457" lon="-8.46876">
        <ele>90.5</ele>
        <time>2019-05-22T11:02:59Z</time>
      </trkpt>
      <trkpt lat="40.32461" lon="-8.46868">
        <ele>90.5</ele>
        <time>2019-05-22T11:03:05Z</time>
      </trkpt>
      <trkpt lat="40.32468" lon="-8.4686">
        <ele>90.02</ele>
        <time>2019-05-22T11:03:13Z</time>
      </trkpt>
      <trkpt lat="40.32471" lon="-8.46855">
        <ele>90.98</ele>
        <time>2019-05-22T11:03:17Z</time>
      </trkpt>
      <trkpt lat="40.32483" lon="-8.46836">
        <ele>90.02</ele>
        <time>2019-05-22T11:03:32Z</time>
      </trkpt>
      <trkpt lat="40.32495" lon="-8.46817">
        <ele>88.58</ele>
        <time>2019-05-22T11:03:47Z</time>
      </trkpt>
      <trkpt lat="40.32502" lon="-8.46803">
        <ele>88.1</ele>
        <time>2019-05-22T11:03:57Z</time>
      </trkpt>
      <trkpt lat="40.32517" lon="-8.46784">
        <ele>86.66</ele>
        <time>2019-05-22T11:04:13Z</time>
      </trkpt>
      <trkpt lat="40.32529" lon="-8.4677">
        <ele>85.69</ele>
        <time>2019-05-22T11:04:25Z</time>
      </trkpt>
      <trkpt lat="40.32537" lon="-8.46762">
        <ele>85.21</ele>
        <time>2019-05-22T11:04:32Z</time>
      </trkpt>
      <trkpt lat="40.32541" lon="-8.46757">
        <ele>84.73</ele>
        <time>2019-05-22T11:04:36Z</time>
      </trkpt>
      <trkpt lat="40.32559" lon="-8.46743">
        <ele>82.81</ele>
        <time>2019-05-22T11:04:52Z</time>
      </trkpt>
      <trkpt lat="40.3256" lon="-8.46742">
        <ele>83.29</ele>
        <time>2019-05-22T11:04:53Z</time>
      </trkpt>
      <trkpt lat="40.32571" lon="-8.46734">
        <ele>82.81</ele>
        <time>2019-05-22T11:05:04Z</time>
      </trkpt>
      <trkpt lat="40.3259" lon="-8.46721">
        <ele>83.29</ele>
        <time>2019-05-22T11:05:20Z</time>
      </trkpt>
      <trkpt lat="40.32599" lon="-8.46716">
        <ele>82.33</ele>
        <time>2019-05-22T11:05:28Z</time>
      </trkpt>
      <trkpt lat="40.32617" lon="-8.46711">
        <ele>82.81</ele>
        <time>2019-05-22T11:05:43Z</time>
      </trkpt>
      <trkpt lat="40.32628" lon="-8.46709">
        <ele>83.77</ele>
        <time>2019-05-22T11:05:56Z</time>
      </trkpt>
      <trkpt lat="40.32637" lon="-8.4671">
        <ele>84.25</ele>
        <time>2019-05-22T11:06:17Z</time>
      </trkpt>
      <trkpt lat="40.32657" lon="-8.4671">
        <ele>84.73</ele>
        <time>2019-05-22T11:06:33Z</time>
      </trkpt>
      <trkpt lat="40.32676" lon="-8.46712">
        <ele>84.25</ele>
        <time>2019-05-22T11:06:48Z</time>
      </trkpt>
      <trkpt lat="40.32689" lon="-8.46713">
        <ele>84.73</ele>
        <time>2019-05-22T11:07:00Z</time>
      </trkpt>
      <trkpt lat="40.32696" lon="-8.46714">
        <ele>85.69</ele>
        <time>2019-05-22T11:07:06Z</time>
      </trkpt>
      <trkpt lat="40.327" lon="-8.46714">
        <ele>85.69</ele>
        <time>2019-05-22T11:07:09Z</time>
      </trkpt>
      <trkpt lat="40.32707" lon="-8.46715">
        <ele>85.69</ele>
        <time>2019-05-22T11:07:15Z</time>
      </trkpt>
      <trkpt lat="40.32714" lon="-8.46716">
        <ele>86.18</ele>
        <time>2019-05-22T11:07:20Z</time>
      </trkpt>
      <trkpt lat="40.32718" lon="-8.46718">
        <ele>86.66</ele>
        <time>2019-05-22T11:07:24Z</time>
      </trkpt>
      <trkpt lat="40.32732" lon="-8.4672">
        <ele>86.66</ele>
        <time>2019-05-22T11:07:37Z</time>
      </trkpt>
      <trkpt lat="40.3274" lon="-8.46721">
        <ele>86.66</ele>
        <time>2019-05-22T11:07:52Z</time>
      </trkpt>
      <trkpt lat="40.32755" lon="-8.46723">
        <ele>87.14</ele>
        <time>2019-05-22T11:08:07Z</time>
      </trkpt>
      <trkpt lat="40.32774" lon="-8.46724">
        <ele>87.14</ele>
        <time>2019-05-22T11:08:23Z</time>
      </trkpt>
      <trkpt lat="40.32791" lon="-8.46726">
        <ele>87.14</ele>
        <time>2019-05-22T11:08:37Z</time>
      </trkpt>
      <trkpt lat="40.3281" lon="-8.46728">
        <ele>87.14</ele>
        <time>2019-05-22T11:08:52Z</time>
      </trkpt>
      <trkpt lat="40.32832" lon="-8.46733">
        <ele>88.1</ele>
        <time>2019-05-22T11:09:09Z</time>
      </trkpt>
      <trkpt lat="40.32857" lon="-8.46733">
        <ele>87.14</ele>
        <time>2019-05-22T11:09:27Z</time>
      </trkpt>
      <trkpt lat="40.32876" lon="-8.46734">
        <ele>87.62</ele>
        <time>2019-05-22T11:09:41Z</time>
      </trkpt>
      <trkpt lat="40.32896" lon="-8.46733">
        <ele>87.62</ele>
        <time>2019-05-22T11:09:57Z</time>
      </trkpt>
      <trkpt lat="40.32916" lon="-8.46734">
        <ele>88.58</ele>
        <time>2019-05-22T11:10:13Z</time>
      </trkpt>
      <trkpt lat="40.32921" lon="-8.46732">
        <ele>88.1</ele>
        <time>2019-05-22T11:10:25Z</time>
      </trkpt>
      <trkpt lat="40.32928" lon="-8.46733">
        <ele>88.1</ele>
        <time>2019-05-22T11:10:49Z</time>
      </trkpt>
      <trkpt lat="40.32946" lon="-8.46735">
        <ele>87.14</ele>
        <time>2019-05-22T11:11:03Z</time>
      </trkpt>
      <trkpt lat="40.32951" lon="-8.46735">
        <ele>87.14</ele>
        <time>2019-05-22T11:11:08Z</time>
      </trkpt>
      <trkpt lat="40.3297" lon="-8.46735">
        <ele>87.14</ele>
        <time>2019-05-22T11:11:22Z</time>
      </trkpt>
      <trkpt lat="40.32991" lon="-8.46736">
        <ele>86.66</ele>
        <time>2019-05-22T11:11:38Z</time>
      </trkpt>
      <trkpt lat="40.33011" lon="-8.46736">
        <ele>85.69</ele>
        <time>2019-05-22T11:11:54Z</time>
      </trkpt>
      <trkpt lat="40.33031" lon="-8.46736">
        <ele>86.18</ele>
        <time>2019-05-22T11:12:10Z</time>
      </trkpt>
      <trkpt lat="40.33053" lon="-8.46738">
        <ele>85.69</ele>
        <time>2019-05-22T11:12:26Z</time>
      </trkpt>
      <trkpt lat="40.33074" lon="-8.46738">
        <ele>84.25</ele>
        <time>2019-05-22T11:12:42Z</time>
      </trkpt>
      <trkpt lat="40.33093" lon="-8.46735">
        <ele>83.77</ele>
        <time>2019-05-22T11:12:57Z</time>
      </trkpt>
      <trkpt lat="40.33112" lon="-8.46727">
        <ele>82.33</ele>
        <time>2019-05-22T11:13:12Z</time>
      </trkpt>
      <trkpt lat="40.33131" lon="-8.46718">
        <ele>81.85</ele>
        <time>2019-05-22T11:13:28Z</time>
      </trkpt>
      <trkpt lat="40.3315" lon="-8.46709">
        <ele>81.85</ele>
        <time>2019-05-22T11:13:44Z</time>
      </trkpt>
      <trkpt lat="40.33167" lon="-8.46703">
        <ele>82.33</ele>
        <time>2019-05-22T11:13:58Z</time>
      </trkpt>
      <trkpt lat="40.33185" lon="-8.46697">
        <ele>82.33</ele>
        <time>2019-05-22T11:14:13Z</time>
      </trkpt>
      <trkpt lat="40.33187" lon="-8.46699">
        <ele>81.85</ele>
        <time>2019-05-22T11:14:26Z</time>
      </trkpt>
      <trkpt lat="40.33188" lon="-8.46698">
        <ele>81.85</ele>
        <time>2019-05-22T11:14:40Z</time>
      </trkpt>
      <trkpt lat="40.33188" lon="-8.46697">
        <ele>82.33</ele>
        <time>2019-05-22T11:14:56Z</time>
      </trkpt>
      <trkpt lat="40.33191" lon="-8.46696">
        <ele>82.33</ele>
        <time>2019-05-22T11:15:07Z</time>
      </trkpt>
      <trkpt lat="40.33206" lon="-8.46689">
        <ele>81.85</ele>
        <time>2019-05-22T11:15:20Z</time>
      </trkpt>
      <trkpt lat="40.33225" lon="-8.46683">
        <ele>83.29</ele>
        <time>2019-05-22T11:15:36Z</time>
      </trkpt>
      <trkpt lat="40.33244" lon="-8.46676">
        <ele>83.29</ele>
        <time>2019-05-22T11:15:51Z</time>
      </trkpt>
      <trkpt lat="40.33262" lon="-8.46668">
        <ele>83.77</ele>
        <time>2019-05-22T11:16:07Z</time>
      </trkpt>
      <trkpt lat="40.33277" lon="-8.46662">
        <ele>83.77</ele>
        <time>2019-05-22T11:16:20Z</time>
      </trkpt>
      <trkpt lat="40.33293" lon="-8.46654">
        <ele>85.21</ele>
        <time>2019-05-22T11:16:34Z</time>
      </trkpt>
      <trkpt lat="40.33301" lon="-8.46651">
        <ele>85.21</ele>
        <time>2019-05-22T11:16:41Z</time>
      </trkpt>
      <trkpt lat="40.33317" lon="-8.46648">
        <ele>86.66</ele>
        <time>2019-05-22T11:16:56Z</time>
      </trkpt>
      <trkpt lat="40.33319" lon="-8.46647">
        <ele>86.66</ele>
        <time>2019-05-22T11:16:58Z</time>
      </trkpt>
      <trkpt lat="40.33325" lon="-8.46642">
        <ele>86.66</ele>
        <time>2019-05-22T11:17:04Z</time>
      </trkpt>
      <trkpt lat="40.33336" lon="-8.46633">
        <ele>87.62</ele>
        <time>2019-05-22T11:17:16Z</time>
      </trkpt>
      <trkpt lat="40.33339" lon="-8.46628">
        <ele>87.14</ele>
        <time>2019-05-22T11:17:21Z</time>
      </trkpt>
      <trkpt lat="40.33351" lon="-8.46622">
        <ele>87.62</ele>
        <time>2019-05-22T11:17:32Z</time>
      </trkpt>
      <trkpt lat="40.33363" lon="-8.46609">
        <ele>88.1</ele>
        <time>2019-05-22T11:17:45Z</time>
      </trkpt>
      <trkpt lat="40.33378" lon="-8.466">
        <ele>89.06</ele>
        <time>2019-05-22T11:17:57Z</time>
      </trkpt>
      <trkpt lat="40.3338" lon="-8.46599">
        <ele>88.58</ele>
        <time>2019-05-22T11:17:59Z</time>
      </trkpt>
      <trkpt lat="40.33387" lon="-8.46594">
        <ele>89.06</ele>
        <time>2019-05-22T11:18:06Z</time>
      </trkpt>
      <trkpt lat="40.33398" lon="-8.46586">
        <ele>89.06</ele>
        <time>2019-05-22T11:18:16Z</time>
      </trkpt>
      <trkpt lat="40.33412" lon="-8.46574">
        <ele>89.54</ele>
        <time>2019-05-22T11:18:29Z</time>
      </trkpt>
      <trkpt lat="40.33416" lon="-8.4657">
        <ele>88.58</ele>
        <time>2019-05-22T11:18:33Z</time>
      </trkpt>
      <trkpt lat="40.33418" lon="-8.46568">
        <ele>89.06</ele>
        <time>2019-05-22T11:18:35Z</time>
      </trkpt>
      <trkpt lat="40.33421" lon="-8.46563">
        <ele>88.1</ele>
        <time>2019-05-22T11:18:39Z</time>
      </trkpt>
      <trkpt lat="40.33424" lon="-8.46558">
        <ele>88.58</ele>
        <time>2019-05-22T11:18:43Z</time>
      </trkpt>
      <trkpt lat="40.33427" lon="-8.46554">
        <ele>88.58</ele>
        <time>2019-05-22T11:18:46Z</time>
      </trkpt>
      <trkpt lat="40.33437" lon="-8.46539">
        <ele>88.1</ele>
        <time>2019-05-22T11:18:59Z</time>
      </trkpt>
      <trkpt lat="40.3344" lon="-8.46532">
        <ele>87.62</ele>
        <time>2019-05-22T11:19:04Z</time>
      </trkpt>
      <trkpt lat="40.33448" lon="-8.46516">
        <ele>86.66</ele>
        <time>2019-05-22T11:19:14Z</time>
      </trkpt>
      <trkpt lat="40.33449" lon="-8.46511">
        <ele>85.69</ele>
        <time>2019-05-22T11:19:17Z</time>
      </trkpt>
      <trkpt lat="40.33454" lon="-8.46503">
        <ele>86.66</ele>
        <time>2019-05-22T11:19:23Z</time>
      </trkpt>
      <trkpt lat="40.33462" lon="-8.46495">
        <ele>87.14</ele>
        <time>2019-05-22T11:19:38Z</time>
      </trkpt>
      <trkpt lat="40.33466" lon="-8.46491">
        <ele>86.66</ele>
        <time>2019-05-22T11:19:47Z</time>
      </trkpt>
      <trkpt lat="40.33468" lon="-8.46489">
        <ele>86.18</ele>
        <time>2019-05-22T11:19:49Z</time>
      </trkpt>
      <trkpt lat="40.33484" lon="-8.4648">
        <ele>87.62</ele>
        <time>2019-05-22T11:20:04Z</time>
      </trkpt>
      <trkpt lat="40.33502" lon="-8.46477">
        <ele>88.58</ele>
        <time>2019-05-22T11:20:20Z</time>
      </trkpt>
      <trkpt lat="40.33517" lon="-8.46475">
        <ele>89.54</ele>
        <time>2019-05-22T11:20:33Z</time>
      </trkpt>
      <trkpt lat="40.33525" lon="-8.46474">
        <ele>90.5</ele>
        <time>2019-05-22T11:20:40Z</time>
      </trkpt>
      <trkpt lat="40.3354" lon="-8.46467">
        <ele>91.94</ele>
        <time>2019-05-22T11:20:54Z</time>
      </trkpt>
      <trkpt lat="40.33547" lon="-8.46465">
        <ele>92.9</ele>
        <time>2019-05-22T11:21:01Z</time>
      </trkpt>
      <trkpt lat="40.33553" lon="-8.46459">
        <ele>93.39</ele>
        <time>2019-05-22T11:21:07Z</time>
      </trkpt>
      <trkpt lat="40.33559" lon="-8.46455">
        <ele>93.87</ele>
        <time>2019-05-22T11:21:13Z</time>
      </trkpt>
      <trkpt lat="40.33562" lon="-8.46451">
        <ele>94.83</ele>
        <time>2019-05-22T11:21:17Z</time>
      </trkpt>
      <trkpt lat="40.33572" lon="-8.46439">
        <ele>95.31</ele>
        <time>2019-05-22T11:21:29Z</time>
      </trkpt>
      <trkpt lat="40.3358" lon="-8.46429">
        <ele>94.83</ele>
        <time>2019-05-22T11:21:42Z</time>
      </trkpt>
      <trkpt lat="40.33582" lon="-8.46421">
        <ele>94.35</ele>
        <time>2019-05-22T11:21:55Z</time>
      </trkpt>
      <trkpt lat="40.33584" lon="-8.46417">
        <ele>95.31</ele>
        <time>2019-05-22T11:22:06Z</time>
      </trkpt>
      <trkpt lat="40.33584" lon="-8.46418">
        <ele>95.31</ele>
        <time>2019-05-22T11:22:19Z</time>
      </trkpt>
      <trkpt lat="40.33584" lon="-8.46422">
        <ele>94.83</ele>
        <time>2019-05-22T11:22:45Z</time>
      </trkpt>
      <trkpt lat="40.33582" lon="-8.46427">
        <ele>94.35</ele>
        <time>2019-05-22T11:23:12Z</time>
      </trkpt>
      <trkpt lat="40.3358" lon="-8.46425">
        <ele>94.83</ele>
        <time>2019-05-22T11:23:32Z</time>
      </trkpt>
      <trkpt lat="40.33582" lon="-8.46425">
        <ele>95.31</ele>
        <time>2019-05-22T11:23:41Z</time>
      </trkpt>
      <trkpt lat="40.33583" lon="-8.46423">
        <ele>94.83</ele>
        <time>2019-05-22T11:23:53Z</time>
      </trkpt>
      <trkpt lat="40.33582" lon="-8.46424">
        <ele>95.31</ele>
        <time>2019-05-22T11:24:28Z</time>
      </trkpt>
      <trkpt lat="40.33582" lon="-8.46424">
        <ele>95.31</ele>
        <time>2019-05-22T11:24:49Z</time>
      </trkpt>
      <trkpt lat="40.33583" lon="-8.4642">
        <ele>95.31</ele>
        <time>2019-05-22T11:25:06Z</time>
      </trkpt>
      <trkpt lat="40.33584" lon="-8.4642">
        <ele>95.31</ele>
        <time>2019-05-22T11:25:26Z</time>
      </trkpt>
      <trkpt lat="40.33586" lon="-8.46423">
        <ele>95.31</ele>
        <time>2019-05-22T11:25:42Z</time>
      </trkpt>
      <trkpt lat="40.33586" lon="-8.46425">
        <ele>95.79</ele>
        <time>2019-05-22T11:25:58Z</time>
      </trkpt>
      <trkpt lat="40.33585" lon="-8.46425">
        <ele>95.31</ele>
        <time>2019-05-22T11:26:26Z</time>
      </trkpt>
      <trkpt lat="40.33586" lon="-8.46424">
        <ele>95.31</ele>
        <time>2019-05-22T11:26:48Z</time>
      </trkpt>
      <trkpt lat="40.33584" lon="-8.4642">
        <ele>95.31</ele>
        <time>2019-05-22T11:27:01Z</time>
      </trkpt>
      <trkpt lat="40.33579" lon="-8.46411">
        <ele>95.79</ele>
        <time>2019-05-22T11:27:23Z</time>
      </trkpt>
      <trkpt lat="40.3358" lon="-8.46411">
        <ele>96.27</ele>
        <time>2019-05-22T11:27:44Z</time>
      </trkpt>
      <trkpt lat="40.33583" lon="-8.46422">
        <ele>95.79</ele>
        <time>2019-05-22T11:28:14Z</time>
      </trkpt>
      <trkpt lat="40.33585" lon="-8.46422">
        <ele>96.27</ele>
        <time>2019-05-22T11:28:41Z</time>
      </trkpt>
      <trkpt lat="40.33585" lon="-8.46421">
        <ele>96.75</ele>
        <time>2019-05-22T11:28:56Z</time>
      </trkpt>
      <trkpt lat="40.33586" lon="-8.4642">
        <ele>96.75</ele>
        <time>2019-05-22T11:29:23Z</time>
      </trkpt>
      <trkpt lat="40.33585" lon="-8.46419">
        <ele>96.27</ele>
        <time>2019-05-22T11:29:39Z</time>
      </trkpt>
      <trkpt lat="40.33584" lon="-8.46419">
        <ele>96.75</ele>
        <time>2019-05-22T11:29:52Z</time>
      </trkpt>
      <trkpt lat="40.33584" lon="-8.46421">
        <ele>96.27</ele>
        <time>2019-05-22T11:30:19Z</time>
      </trkpt>
      <trkpt lat="40.33585" lon="-8.46419">
        <ele>96.75</ele>
        <time>2019-05-22T11:30:39Z</time>
      </trkpt>
      <trkpt lat="40.33586" lon="-8.46419">
        <ele>96.75</ele>
        <time>2019-05-22T11:31:02Z</time>
      </trkpt>
      <trkpt lat="40.33583" lon="-8.4642">
        <ele>96.75</ele>
        <time>2019-05-22T11:31:28Z</time>
      </trkpt>
      <trkpt lat="40.33581" lon="-8.4642">
        <ele>97.23</ele>
        <time>2019-05-22T11:31:50Z</time>
      </trkpt>
      <trkpt lat="40.33582" lon="-8.46424">
        <ele>97.23</ele>
        <time>2019-05-22T11:32:10Z</time>
      </trkpt>
      <trkpt lat="40.33582" lon="-8.46423">
        <ele>97.23</ele>
        <time>2019-05-22T11:32:44Z</time>
      </trkpt>
      <trkpt lat="40.33581" lon="-8.46422">
        <ele>97.71</ele>
        <time>2019-05-22T11:33:00Z</time>
      </trkpt>
      <trkpt lat="40.33579" lon="-8.46421">
        <ele>97.23</ele>
        <time>2019-05-22T11:33:18Z</time>
      </trkpt>
      <trkpt lat="40.3358" lon="-8.46421">
        <ele>98.19</ele>
        <time>2019-05-22T11:33:32Z</time>
      </trkpt>
      <trkpt lat="40.33583" lon="-8.46426">
        <ele>98.67</ele>
        <time>2019-05-22T11:33:51Z</time>
      </trkpt>
      <trkpt lat="40.33583" lon="-8.46426">
        <ele>98.67</ele>
        <time>2019-05-22T11:34:07Z</time>
      </trkpt>
      <trkpt lat="40.33584" lon="-8.46427">
        <ele>98.67</ele>
        <time>2019-05-22T11:34:30Z</time>
      </trkpt>
      <trkpt lat="40.33583" lon="-8.46425">
        <ele>98.67</ele>
        <time>2019-05-22T11:34:53Z</time>
      </trkpt>
      <trkpt lat="40.33581" lon="-8.46424">
        <ele>99.15</ele>
        <time>2019-05-22T11:35:14Z</time>
      </trkpt>
      <trkpt lat="40.33582" lon="-8.46423">
        <ele>99.15</ele>
        <time>2019-05-22T11:35:39Z</time>
      </trkpt>
      <trkpt lat="40.33583" lon="-8.46422">
        <ele>99.63</ele>
        <time>2019-05-22T11:35:59Z</time>
      </trkpt>
      <trkpt lat="40.33585" lon="-8.46422">
        <ele>99.15</ele>
        <time>2019-05-22T11:36:18Z</time>
      </trkpt>
      <trkpt lat="40.33583" lon="-8.46423">
        <ele>98.67</ele>
        <time>2019-05-22T11:36:45Z</time>
      </trkpt>
      <trkpt lat="40.33581" lon="-8.46424">
        <ele>99.63</ele>
        <time>2019-05-22T11:37:12Z</time>
      </trkpt>
      <trkpt lat="40.33582" lon="-8.46423">
        <ele>99.15</ele>
        <time>2019-05-22T11:37:36Z</time>
      </trkpt>
      <trkpt lat="40.33584" lon="-8.46421">
        <ele>99.63</ele>
        <time>2019-05-22T11:37:58Z</time>
      </trkpt>
      <trkpt lat="40.33584" lon="-8.46418">
        <ele>99.63</ele>
        <time>2019-05-22T11:38:25Z</time>
      </trkpt>
      <trkpt lat="40.33583" lon="-8.46416">
        <ele>99.63</ele>
        <time>2019-05-22T11:38:46Z</time>
      </trkpt>
      <trkpt lat="40.33584" lon="-8.46414">
        <ele>100.11</ele>
        <time>2019-05-22T11:39:05Z</time>
      </trkpt>
      <trkpt lat="40.33585" lon="-8.46416">
        <ele>100.11</ele>
        <time>2019-05-22T11:39:25Z</time>
      </trkpt>
      <trkpt lat="40.33586" lon="-8.46415">
        <ele>100.11</ele>
        <time>2019-05-22T11:39:47Z</time>
      </trkpt>
      <trkpt lat="40.33586" lon="-8.46413">
        <ele>100.11</ele>
        <time>2019-05-22T11:40:05Z</time>
      </trkpt>
      <trkpt lat="40.33585" lon="-8.46414">
        <ele>99.63</ele>
        <time>2019-05-22T11:40:33Z</time>
      </trkpt>
      <trkpt lat="40.33582" lon="-8.46419">
        <ele>100.11</ele>
        <time>2019-05-22T11:41:06Z</time>
      </trkpt>
      <trkpt lat="40.33584" lon="-8.46419">
        <ele>100.6</ele>
        <time>2019-05-22T11:41:41Z</time>
      </trkpt>
      <trkpt lat="40.33585" lon="-8.46417">
        <ele>100.11</ele>
        <time>2019-05-22T11:42:15Z</time>
      </trkpt>
      <trkpt lat="40.33584" lon="-8.46417">
        <ele>100.11</ele>
        <time>2019-05-22T11:42:42Z</time>
      </trkpt>
      <trkpt lat="40.33584" lon="-8.46416">
        <ele>100.11</ele>
        <time>2019-05-22T11:43:07Z</time>
      </trkpt>
      <trkpt lat="40.33583" lon="-8.46419">
        <ele>100.11</ele>
        <time>2019-05-22T11:43:39Z</time>
      </trkpt>
      <trkpt lat="40.33584" lon="-8.46419">
        <ele>100.6</ele>
        <time>2019-05-22T11:44:11Z</time>
      </trkpt>
      <trkpt lat="40.33584" lon="-8.46416">
        <ele>100.11</ele>
        <time>2019-05-22T11:44:39Z</time>
      </trkpt>
      <trkpt lat="40.33584" lon="-8.46419">
        <ele>100.11</ele>
        <time>2019-05-22T11:45:09Z</time>
      </trkpt>
      <trkpt lat="40.33585" lon="-8.46419">
        <ele>100.6</ele>
        <time>2019-05-22T11:45:31Z</time>
      </trkpt>
      <trkpt lat="40.33585" lon="-8.46416">
        <ele>100.6</ele>
        <time>2019-05-22T11:45:55Z</time>
      </trkpt>
      <trkpt lat="40.33584" lon="-8.46413">
        <ele>100.6</ele>
        <time>2019-05-22T11:46:24Z</time>
      </trkpt>
      <trkpt lat="40.33584" lon="-8.4642">
        <ele>101.08</ele>
        <time>2019-05-22T11:46:44Z</time>
      </trkpt>
      <trkpt lat="40.33581" lon="-8.46422">
        <ele>101.08</ele>
        <time>2019-05-22T11:47:13Z</time>
      </trkpt>
      <trkpt lat="40.3358" lon="-8.46416">
        <ele>101.08</ele>
        <time>2019-05-22T11:47:38Z</time>
      </trkpt>
      <trkpt lat="40.33581" lon="-8.46414">
        <ele>101.08</ele>
        <time>2019-05-22T11:47:57Z</time>
      </trkpt>
      <trkpt lat="40.33584" lon="-8.46415">
        <ele>101.08</ele>
        <time>2019-05-22T11:48:30Z</time>
      </trkpt>
      <trkpt lat="40.33585" lon="-8.46417">
        <ele>101.56</ele>
        <time>2019-05-22T11:48:59Z</time>
      </trkpt>
      <trkpt lat="40.33583" lon="-8.46415">
        <ele>101.56</ele>
        <time>2019-05-22T11:49:25Z</time>
      </trkpt>
      <trkpt lat="40.33584" lon="-8.46412">
        <ele>101.08</ele>
        <time>2019-05-22T11:49:45Z</time>
      </trkpt>
      <trkpt lat="40.33586" lon="-8.46412">
        <ele>101.56</ele>
        <time>2019-05-22T11:50:06Z</time>
      </trkpt>
      <trkpt lat="40.33586" lon="-8.46411">
        <ele>102.04</ele>
        <time>2019-05-22T11:50:26Z</time>
      </trkpt>
      <trkpt lat="40.33585" lon="-8.46414">
        <ele>101.08</ele>
        <time>2019-05-22T11:50:46Z</time>
      </trkpt>
      <trkpt lat="40.33584" lon="-8.46418">
        <ele>101.08</ele>
        <time>2019-05-22T11:51:02Z</time>
      </trkpt>
      <trkpt lat="40.33585" lon="-8.46419">
        <ele>100.6</ele>
        <time>2019-05-22T11:51:20Z</time>
      </trkpt>
      <trkpt lat="40.33583" lon="-8.46422">
        <ele>101.08</ele>
        <time>2019-05-22T11:51:47Z</time>
      </trkpt>
      <trkpt lat="40.33581" lon="-8.46425">
        <ele>101.08</ele>
        <time>2019-05-22T11:52:14Z</time>
      </trkpt>
      <trkpt lat="40.33583" lon="-8.46421">
        <ele>101.08</ele>
        <time>2019-05-22T11:52:40Z</time>
      </trkpt>
      <trkpt lat="40.33584" lon="-8.46419">
        <ele>101.08</ele>
        <time>2019-05-22T11:52:59Z</time>
      </trkpt>
      <trkpt lat="40.33584" lon="-8.46421">
        <ele>102.04</ele>
        <time>2019-05-22T11:53:20Z</time>
      </trkpt>
      <trkpt lat="40.33583" lon="-8.4642">
        <ele>101.56</ele>
        <time>2019-05-22T11:53:35Z</time>
      </trkpt>
      <trkpt lat="40.33583" lon="-8.46421">
        <ele>102.04</ele>
        <time>2019-05-22T11:53:51Z</time>
      </trkpt>
      <trkpt lat="40.33583" lon="-8.46421">
        <ele>102.52</ele>
        <time>2019-05-22T11:54:08Z</time>
      </trkpt>
      <trkpt lat="40.33583" lon="-8.46422">
        <ele>102.52</ele>
        <time>2019-05-22T11:54:26Z</time>
      </trkpt>
      <trkpt lat="40.33582" lon="-8.46424">
        <ele>102.52</ele>
        <time>2019-05-22T11:54:32Z</time>
      </trkpt>
      <trkpt lat="40.33579" lon="-8.46425">
        <ele>102.52</ele>
        <time>2019-05-22T11:54:36Z</time>
      </trkpt>
      <trkpt lat="40.33595" lon="-8.46424">
        <ele>101.56</ele>
        <time>2019-05-22T11:54:52Z</time>
      </trkpt>
      <trkpt lat="40.33608" lon="-8.46423">
        <ele>100.6</ele>
        <time>2019-05-22T11:55:05Z</time>
      </trkpt>
      <trkpt lat="40.33628" lon="-8.46409">
        <ele>100.6</ele>
        <time>2019-05-22T11:55:20Z</time>
      </trkpt>
      <trkpt lat="40.33643" lon="-8.46396">
        <ele>100.11</ele>
        <time>2019-05-22T11:55:35Z</time>
      </trkpt>
      <trkpt lat="40.3365" lon="-8.46388">
        <ele>100.11</ele>
        <time>2019-05-22T11:55:49Z</time>
      </trkpt>
      <trkpt lat="40.33664" lon="-8.4637">
        <ele>99.63</ele>
        <time>2019-05-22T11:56:05Z</time>
      </trkpt>
      <trkpt lat="40.3367" lon="-8.46359">
        <ele>98.67</ele>
        <time>2019-05-22T11:56:20Z</time>
      </trkpt>
      <trkpt lat="40.33674" lon="-8.46355">
        <ele>98.19</ele>
        <time>2019-05-22T11:56:24Z</time>
      </trkpt>
      <trkpt lat="40.33676" lon="-8.46353">
        <ele>98.19</ele>
        <time>2019-05-22T11:56:26Z</time>
      </trkpt>
      <trkpt lat="40.33679" lon="-8.46348">
        <ele>97.71</ele>
        <time>2019-05-22T11:56:30Z</time>
      </trkpt>
      <trkpt lat="40.33685" lon="-8.46342">
        <ele>97.23</ele>
        <time>2019-05-22T11:56:35Z</time>
      </trkpt>
      <trkpt lat="40.337" lon="-8.4632">
        <ele>95.31</ele>
        <time>2019-05-22T11:56:51Z</time>
      </trkpt>
      <trkpt lat="40.33701" lon="-8.463">
        <ele>94.83</ele>
        <time>2019-05-22T11:57:05Z</time>
      </trkpt>
      <trkpt lat="40.33703" lon="-8.46293">
        <ele>94.83</ele>
        <time>2019-05-22T11:57:10Z</time>
      </trkpt>
      <trkpt lat="40.33708" lon="-8.46294">
        <ele>94.35</ele>
        <time>2019-05-22T11:57:19Z</time>
      </trkpt>
      <trkpt lat="40.3372" lon="-8.46292">
        <ele>93.39</ele>
        <time>2019-05-22T11:57:33Z</time>
      </trkpt>
      <trkpt lat="40.33722" lon="-8.46292">
        <ele>92.9</ele>
        <time>2019-05-22T11:57:37Z</time>
      </trkpt>
      <trkpt lat="40.33729" lon="-8.46292">
        <ele>92.42</ele>
        <time>2019-05-22T11:57:43Z</time>
      </trkpt>
      <trkpt lat="40.33746" lon="-8.46295">
        <ele>90.98</ele>
        <time>2019-05-22T11:57:58Z</time>
      </trkpt>
      <trkpt lat="40.33752" lon="-8.46295">
        <ele>90.02</ele>
        <time>2019-05-22T11:58:04Z</time>
      </trkpt>
      <trkpt lat="40.33754" lon="-8.46295">
        <ele>90.02</ele>
        <time>2019-05-22T11:58:06Z</time>
      </trkpt>
      <trkpt lat="40.33775" lon="-8.4629">
        <ele>88.58</ele>
        <time>2019-05-22T11:58:24Z</time>
      </trkpt>
      <trkpt lat="40.33784" lon="-8.46288">
        <ele>88.1</ele>
        <time>2019-05-22T11:58:39Z</time>
      </trkpt>
      <trkpt lat="40.33786" lon="-8.46286">
        <ele>88.1</ele>
        <time>2019-05-22T11:58:49Z</time>
      </trkpt>
      <trkpt lat="40.33797" lon="-8.46277">
        <ele>87.14</ele>
        <time>2019-05-22T11:59:02Z</time>
      </trkpt>
      <trkpt lat="40.33802" lon="-8.46277">
        <ele>86.66</ele>
        <time>2019-05-22T11:59:16Z</time>
      </trkpt>
      <trkpt lat="40.33809" lon="-8.46271">
        <ele>86.66</ele>
        <time>2019-05-22T11:59:24Z</time>
      </trkpt>
      <trkpt lat="40.33814" lon="-8.46264">
        <ele>86.18</ele>
        <time>2019-05-22T11:59:30Z</time>
      </trkpt>
      <trkpt lat="40.33819" lon="-8.46261">
        <ele>85.21</ele>
        <time>2019-05-22T11:59:34Z</time>
      </trkpt>
      <trkpt lat="40.33825" lon="-8.46256">
        <ele>85.69</ele>
        <time>2019-05-22T11:59:39Z</time>
      </trkpt>
      <trkpt lat="40.33838" lon="-8.46242">
        <ele>84.25</ele>
        <time>2019-05-22T11:59:53Z</time>
      </trkpt>
      <trkpt lat="40.33858" lon="-8.46226">
        <ele>82.81</ele>
        <time>2019-05-22T12:00:11Z</time>
      </trkpt>
      <trkpt lat="40.33877" lon="-8.46215">
        <ele>81.85</ele>
        <time>2019-05-22T12:00:27Z</time>
      </trkpt>
      <trkpt lat="40.33896" lon="-8.46203">
        <ele>81.85</ele>
        <time>2019-05-22T12:00:45Z</time>
      </trkpt>
      <trkpt lat="40.33914" lon="-8.4619">
        <ele>81.37</ele>
        <time>2019-05-22T12:01:02Z</time>
      </trkpt>
      <trkpt lat="40.33937" lon="-8.46177">
        <ele>81.85</ele>
        <time>2019-05-22T12:01:21Z</time>
      </trkpt>
      <trkpt lat="40.33946" lon="-8.46171">
        <ele>82.81</ele>
        <time>2019-05-22T12:01:30Z</time>
      </trkpt>
      <trkpt lat="40.33965" lon="-8.46163">
        <ele>83.29</ele>
        <time>2019-05-22T12:01:46Z</time>
      </trkpt>
      <trkpt lat="40.33973" lon="-8.46159">
        <ele>84.73</ele>
        <time>2019-05-22T12:01:56Z</time>
      </trkpt>
      <trkpt lat="40.33979" lon="-8.4616">
        <ele>84.25</ele>
        <time>2019-05-22T12:02:08Z</time>
      </trkpt>
      <trkpt lat="40.33993" lon="-8.46171">
        <ele>84.73</ele>
        <time>2019-05-22T12:02:25Z</time>
      </trkpt>
      <trkpt lat="40.34007" lon="-8.46183">
        <ele>86.18</ele>
        <time>2019-05-22T12:02:40Z</time>
      </trkpt>
      <trkpt lat="40.34013" lon="-8.46186">
        <ele>86.18</ele>
        <time>2019-05-22T12:02:58Z</time>
      </trkpt>
      <trkpt lat="40.34012" lon="-8.46186">
        <ele>86.66</ele>
        <time>2019-05-22T12:03:26Z</time>
      </trkpt>
      <trkpt lat="40.34013" lon="-8.46186">
        <ele>86.18</ele>
        <time>2019-05-22T12:03:55Z</time>
      </trkpt>
      <trkpt lat="40.34017" lon="-8.46191">
        <ele>85.69</ele>
        <time>2019-05-22T12:04:29Z</time>
      </trkpt>
      <trkpt lat="40.34022" lon="-8.46196">
        <ele>85.69</ele>
        <time>2019-05-22T12:04:34Z</time>
      </trkpt>
      <trkpt lat="40.34032" lon="-8.46199">
        <ele>84.73</ele>
        <time>2019-05-22T12:04:43Z</time>
      </trkpt>
      <trkpt lat="40.34034" lon="-8.46201">
        <ele>84.73</ele>
        <time>2019-05-22T12:04:45Z</time>
      </trkpt>
      <trkpt lat="40.34037" lon="-8.4621">
        <ele>84.73</ele>
        <time>2019-05-22T12:04:51Z</time>
      </trkpt>
      <trkpt lat="40.34052" lon="-8.46227">
        <ele>83.77</ele>
        <time>2019-05-22T12:05:06Z</time>
      </trkpt>
      <trkpt lat="40.34069" lon="-8.46241">
        <ele>82.81</ele>
        <time>2019-05-22T12:05:22Z</time>
      </trkpt>
      <trkpt lat="40.3408" lon="-8.4625">
        <ele>82.33</ele>
        <time>2019-05-22T12:05:36Z</time>
      </trkpt>
      <trkpt lat="40.34087" lon="-8.46256">
        <ele>81.85</ele>
        <time>2019-05-22T12:05:49Z</time>
      </trkpt>
      <trkpt lat="40.34104" lon="-8.46272">
        <ele>80.41</ele>
        <time>2019-05-22T12:06:05Z</time>
      </trkpt>
      <trkpt lat="40.34123" lon="-8.46288">
        <ele>78.97</ele>
        <time>2019-05-22T12:06:22Z</time>
      </trkpt>
      <trkpt lat="40.34142" lon="-8.46305">
        <ele>77.52</ele>
        <time>2019-05-22T12:06:39Z</time>
      </trkpt>
      <trkpt lat="40.34159" lon="-8.46321">
        <ele>76.56</ele>
        <time>2019-05-22T12:06:56Z</time>
      </trkpt>
      <trkpt lat="40.34177" lon="-8.46333">
        <ele>76.08</ele>
        <time>2019-05-22T12:07:12Z</time>
      </trkpt>
      <trkpt lat="40.34201" lon="-8.46336">
        <ele>73.2</ele>
        <time>2019-05-22T12:07:31Z</time>
      </trkpt>
      <trkpt lat="40.3422" lon="-8.46332">
        <ele>73.2</ele>
        <time>2019-05-22T12:07:45Z</time>
      </trkpt>
      <trkpt lat="40.34235" lon="-8.46328">
        <ele>72.72</ele>
        <time>2019-05-22T12:08:00Z</time>
      </trkpt>
      <trkpt lat="40.34256" lon="-8.46323">
        <ele>72.24</ele>
        <time>2019-05-22T12:08:16Z</time>
      </trkpt>
      <trkpt lat="40.34279" lon="-8.46324">
        <ele>72.72</ele>
        <time>2019-05-22T12:08:33Z</time>
      </trkpt>
      <trkpt lat="40.34297" lon="-8.46325">
        <ele>73.2</ele>
        <time>2019-05-22T12:08:47Z</time>
      </trkpt>
      <trkpt lat="40.34303" lon="-8.46327">
        <ele>72.72</ele>
        <time>2019-05-22T12:08:59Z</time>
      </trkpt>
      <trkpt lat="40.34319" lon="-8.4633">
        <ele>73.2</ele>
        <time>2019-05-22T12:09:13Z</time>
      </trkpt>
      <trkpt lat="40.34321" lon="-8.4633">
        <ele>73.2</ele>
        <time>2019-05-22T12:09:24Z</time>
      </trkpt>
      <trkpt lat="40.34333" lon="-8.46331">
        <ele>73.2</ele>
        <time>2019-05-22T12:09:38Z</time>
      </trkpt>
      <trkpt lat="40.34344" lon="-8.46333">
        <ele>73.2</ele>
        <time>2019-05-22T12:09:49Z</time>
      </trkpt>
      <trkpt lat="40.34352" lon="-8.46334">
        <ele>74.16</ele>
        <time>2019-05-22T12:09:56Z</time>
      </trkpt>
      <trkpt lat="40.34374" lon="-8.46334">
        <ele>74.64</ele>
        <time>2019-05-22T12:10:14Z</time>
      </trkpt>
      <trkpt lat="40.34384" lon="-8.46334">
        <ele>74.64</ele>
        <time>2019-05-22T12:10:26Z</time>
      </trkpt>
      <trkpt lat="40.34393" lon="-8.46331">
        <ele>75.12</ele>
        <time>2019-05-22T12:10:34Z</time>
      </trkpt>
      <trkpt lat="40.34409" lon="-8.4633">
        <ele>75.6</ele>
        <time>2019-05-22T12:10:49Z</time>
      </trkpt>
      <trkpt lat="40.34424" lon="-8.46329">
        <ele>76.08</ele>
        <time>2019-05-22T12:11:02Z</time>
      </trkpt>
      <trkpt lat="40.34434" lon="-8.46331">
        <ele>77.04</ele>
        <time>2019-05-22T12:11:12Z</time>
      </trkpt>
      <trkpt lat="40.3444" lon="-8.46331">
        <ele>76.56</ele>
        <time>2019-05-22T12:11:17Z</time>
      </trkpt>
      <trkpt lat="40.34459" lon="-8.4633">
        <ele>77.04</ele>
        <time>2019-05-22T12:11:31Z</time>
      </trkpt>
      <trkpt lat="40.34469" lon="-8.46333">
        <ele>77.52</ele>
        <time>2019-05-22T12:11:39Z</time>
      </trkpt>
      <trkpt lat="40.34487" lon="-8.46336">
        <ele>78.48</ele>
        <time>2019-05-22T12:11:55Z</time>
      </trkpt>
      <trkpt lat="40.34502" lon="-8.46336">
        <ele>79.45</ele>
        <time>2019-05-22T12:12:08Z</time>
      </trkpt>
      <trkpt lat="40.3451" lon="-8.46337">
        <ele>79.93</ele>
        <time>2019-05-22T12:12:14Z</time>
      </trkpt>
      <trkpt lat="40.34526" lon="-8.46337">
        <ele>79.45</ele>
        <time>2019-05-22T12:12:28Z</time>
      </trkpt>
      <trkpt lat="40.3454" lon="-8.46336">
        <ele>80.41</ele>
        <time>2019-05-22T12:12:40Z</time>
      </trkpt>
      <trkpt lat="40.34551" lon="-8.46333">
        <ele>80.89</ele>
        <time>2019-05-22T12:12:55Z</time>
      </trkpt>
      <trkpt lat="40.34559" lon="-8.4633">
        <ele>80.41</ele>
        <time>2019-05-22T12:13:11Z</time>
      </trkpt>
      <trkpt lat="40.34567" lon="-8.4633">
        <ele>81.37</ele>
        <time>2019-05-22T12:13:20Z</time>
      </trkpt>
      <trkpt lat="40.34579" lon="-8.46329">
        <ele>81.37</ele>
        <time>2019-05-22T12:13:33Z</time>
      </trkpt>
      <trkpt lat="40.34597" lon="-8.46326">
        <ele>82.81</ele>
        <time>2019-05-22T12:13:49Z</time>
      </trkpt>
      <trkpt lat="40.34612" lon="-8.46325">
        <ele>83.29</ele>
        <time>2019-05-22T12:14:02Z</time>
      </trkpt>
      <trkpt lat="40.34627" lon="-8.46327">
        <ele>84.25</ele>
        <time>2019-05-22T12:14:16Z</time>
      </trkpt>
      <trkpt lat="40.34645" lon="-8.46329">
        <ele>85.69</ele>
        <time>2019-05-22T12:14:32Z</time>
      </trkpt>
      <trkpt lat="40.34659" lon="-8.4633">
        <ele>85.69</ele>
        <time>2019-05-22T12:14:45Z</time>
      </trkpt>
      <trkpt lat="40.34671" lon="-8.4633">
        <ele>86.18</ele>
        <time>2019-05-22T12:14:59Z</time>
      </trkpt>
      <trkpt lat="40.34675" lon="-8.4633">
        <ele>86.18</ele>
        <time>2019-05-22T12:15:22Z</time>
      </trkpt>
      <trkpt lat="40.34682" lon="-8.4633">
        <ele>86.18</ele>
        <time>2019-05-22T12:15:43Z</time>
      </trkpt>
      <trkpt lat="40.34687" lon="-8.46329">
        <ele>86.66</ele>
        <time>2019-05-22T12:15:48Z</time>
      </trkpt>
      <trkpt lat="40.34703" lon="-8.46332">
        <ele>87.62</ele>
        <time>2019-05-22T12:16:04Z</time>
      </trkpt>
      <trkpt lat="40.34706" lon="-8.4633">
        <ele>87.62</ele>
        <time>2019-05-22T12:16:15Z</time>
      </trkpt>
      <trkpt lat="40.34725" lon="-8.46335">
        <ele>87.62</ele>
        <time>2019-05-22T12:16:31Z</time>
      </trkpt>
      <trkpt lat="40.34746" lon="-8.46337">
        <ele>88.58</ele>
        <time>2019-05-22T12:16:47Z</time>
      </trkpt>
      <trkpt lat="40.34757" lon="-8.46336">
        <ele>88.58</ele>
        <time>2019-05-22T12:17:00Z</time>
      </trkpt>
      <trkpt lat="40.34775" lon="-8.46343">
        <ele>89.54</ele>
        <time>2019-05-22T12:17:16Z</time>
      </trkpt>
      <trkpt lat="40.34792" lon="-8.46348">
        <ele>90.5</ele>
        <time>2019-05-22T12:17:31Z</time>
      </trkpt>
      <trkpt lat="40.34802" lon="-8.46353">
        <ele>90.02</ele>
        <time>2019-05-22T12:17:43Z</time>
      </trkpt>
      <trkpt lat="40.34817" lon="-8.4636">
        <ele>90.5</ele>
        <time>2019-05-22T12:17:57Z</time>
      </trkpt>
      <trkpt lat="40.34833" lon="-8.46368">
        <ele>90.5</ele>
        <time>2019-05-22T12:18:12Z</time>
      </trkpt>
      <trkpt lat="40.34851" lon="-8.46373">
        <ele>90.02</ele>
        <time>2019-05-22T12:18:26Z</time>
      </trkpt>
      <trkpt lat="40.34859" lon="-8.46375">
        <ele>90.02</ele>
        <time>2019-05-22T12:18:39Z</time>
      </trkpt>
      <trkpt lat="40.34875" lon="-8.46374">
        <ele>90.5</ele>
        <time>2019-05-22T12:18:53Z</time>
      </trkpt>
      <trkpt lat="40.34893" lon="-8.46373">
        <ele>90.5</ele>
        <time>2019-05-22T12:19:07Z</time>
      </trkpt>
      <trkpt lat="40.34908" lon="-8.4637">
        <ele>90.98</ele>
        <time>2019-05-22T12:19:20Z</time>
      </trkpt>
      <trkpt lat="40.34924" lon="-8.46369">
        <ele>90.02</ele>
        <time>2019-05-22T12:19:32Z</time>
      </trkpt>
      <trkpt lat="40.3494" lon="-8.46369">
        <ele>90.02</ele>
        <time>2019-05-22T12:19:45Z</time>
      </trkpt>
      <trkpt lat="40.34952" lon="-8.4637">
        <ele>89.06</ele>
        <time>2019-05-22T12:19:54Z</time>
      </trkpt>
      <trkpt lat="40.34969" lon="-8.46371">
        <ele>87.14</ele>
        <time>2019-05-22T12:20:09Z</time>
      </trkpt>
      <trkpt lat="40.34989" lon="-8.46372">
        <ele>86.18</ele>
        <time>2019-05-22T12:20:25Z</time>
      </trkpt>
      <trkpt lat="40.35008" lon="-8.46374">
        <ele>85.21</ele>
        <time>2019-05-22T12:20:39Z</time>
      </trkpt>
      <trkpt lat="40.35028" lon="-8.46376">
        <ele>84.25</ele>
        <time>2019-05-22T12:20:55Z</time>
      </trkpt>
      <trkpt lat="40.35045" lon="-8.46378">
        <ele>85.21</ele>
        <time>2019-05-22T12:21:09Z</time>
      </trkpt>
      <trkpt lat="40.35046" lon="-8.46377">
        <ele>85.21</ele>
        <time>2019-05-22T12:21:29Z</time>
      </trkpt>
      <trkpt lat="40.35058" lon="-8.46375">
        <ele>84.25</ele>
        <time>2019-05-22T12:21:41Z</time>
      </trkpt>
      <trkpt lat="40.35067" lon="-8.46374">
        <ele>84.25</ele>
        <time>2019-05-22T12:21:49Z</time>
      </trkpt>
      <trkpt lat="40.35086" lon="-8.4637">
        <ele>84.25</ele>
        <time>2019-05-22T12:22:04Z</time>
      </trkpt>
      <trkpt lat="40.35101" lon="-8.46367">
        <ele>84.25</ele>
        <time>2019-05-22T12:22:16Z</time>
      </trkpt>
      <trkpt lat="40.35121" lon="-8.46366">
        <ele>83.77</ele>
        <time>2019-05-22T12:22:30Z</time>
      </trkpt>
      <trkpt lat="40.35133" lon="-8.46363">
        <ele>84.73</ele>
        <time>2019-05-22T12:22:46Z</time>
      </trkpt>
      <trkpt lat="40.35145" lon="-8.46361">
        <ele>83.77</ele>
        <time>2019-05-22T12:22:56Z</time>
      </trkpt>
      <trkpt lat="40.35157" lon="-8.46359">
        <ele>84.73</ele>
        <time>2019-05-22T12:23:07Z</time>
      </trkpt>
      <trkpt lat="40.35175" lon="-8.46356">
        <ele>85.69</ele>
        <time>2019-05-22T12:23:22Z</time>
      </trkpt>
      <trkpt lat="40.3519" lon="-8.46355">
        <ele>87.14</ele>
        <time>2019-05-22T12:23:34Z</time>
      </trkpt>
      <trkpt lat="40.35206" lon="-8.46354">
        <ele>87.62</ele>
        <time>2019-05-22T12:23:50Z</time>
      </trkpt>
      <trkpt lat="40.35218" lon="-8.46352">
        <ele>89.06</ele>
        <time>2019-05-22T12:24:04Z</time>
      </trkpt>
      <trkpt lat="40.35232" lon="-8.4635">
        <ele>90.5</ele>
        <time>2019-05-22T12:24:16Z</time>
      </trkpt>
      <trkpt lat="40.35235" lon="-8.4635">
        <ele>90.5</ele>
        <time>2019-05-22T12:24:18Z</time>
      </trkpt>
      <trkpt lat="40.35251" lon="-8.46353">
        <ele>91.46</ele>
        <time>2019-05-22T12:24:34Z</time>
      </trkpt>
      <trkpt lat="40.35269" lon="-8.46356">
        <ele>91.94</ele>
        <time>2019-05-22T12:24:49Z</time>
      </trkpt>
      <trkpt lat="40.35286" lon="-8.46359">
        <ele>91.46</ele>
        <time>2019-05-22T12:25:03Z</time>
      </trkpt>
      <trkpt lat="40.35304" lon="-8.46362">
        <ele>91.46</ele>
        <time>2019-05-22T12:25:17Z</time>
      </trkpt>
      <trkpt lat="40.3532" lon="-8.46366">
        <ele>92.42</ele>
        <time>2019-05-22T12:25:30Z</time>
      </trkpt>
      <trkpt lat="40.35336" lon="-8.4637">
        <ele>91.94</ele>
        <time>2019-05-22T12:25:44Z</time>
      </trkpt>
      <trkpt lat="40.35356" lon="-8.46373">
        <ele>91.94</ele>
        <time>2019-05-22T12:26:00Z</time>
      </trkpt>
      <trkpt lat="40.35369" lon="-8.46374">
        <ele>91.46</ele>
        <time>2019-05-22T12:26:11Z</time>
      </trkpt>
      <trkpt lat="40.35384" lon="-8.46376">
        <ele>91.46</ele>
        <time>2019-05-22T12:26:23Z</time>
      </trkpt>
      <trkpt lat="40.35398" lon="-8.46378">
        <ele>91.46</ele>
        <time>2019-05-22T12:26:35Z</time>
      </trkpt>
      <trkpt lat="40.35403" lon="-8.46378">
        <ele>91.94</ele>
        <time>2019-05-22T12:26:38Z</time>
      </trkpt>
      <trkpt lat="40.35422" lon="-8.46378">
        <ele>91.46</ele>
        <time>2019-05-22T12:26:55Z</time>
      </trkpt>
      <trkpt lat="40.35428" lon="-8.46375">
        <ele>91.94</ele>
        <time>2019-05-22T12:27:06Z</time>
      </trkpt>
      <trkpt lat="40.35442" lon="-8.46369">
        <ele>91.94</ele>
        <time>2019-05-22T12:27:18Z</time>
      </trkpt>
      <trkpt lat="40.35449" lon="-8.46366">
        <ele>88.58</ele>
        <time>2019-05-22T12:27:24Z</time>
      </trkpt>
      <trkpt lat="40.3545" lon="-8.46366">
        <ele>92.42</ele>
        <time>2019-05-22T12:27:25Z</time>
      </trkpt>
      <trkpt lat="40.35457" lon="-8.46364">
        <ele>92.42</ele>
        <time>2019-05-22T12:27:42Z</time>
      </trkpt>
      <trkpt lat="40.35463" lon="-8.46364">
        <ele>92.9</ele>
        <time>2019-05-22T12:27:55Z</time>
      </trkpt>
      <trkpt lat="40.35479" lon="-8.46353">
        <ele>93.39</ele>
        <time>2019-05-22T12:28:10Z</time>
      </trkpt>
      <trkpt lat="40.35482" lon="-8.46349">
        <ele>93.39</ele>
        <time>2019-05-22T12:28:14Z</time>
      </trkpt>
      <trkpt lat="40.35482" lon="-8.46347">
        <ele>93.87</ele>
        <time>2019-05-22T12:28:32Z</time>
      </trkpt>
      <trkpt lat="40.35484" lon="-8.46341">
        <ele>93.87</ele>
        <time>2019-05-22T12:28:45Z</time>
      </trkpt>
      <trkpt lat="40.35492" lon="-8.46317">
        <ele>93.39</ele>
        <time>2019-05-22T12:29:00Z</time>
      </trkpt>
      <trkpt lat="40.35502" lon="-8.46295">
        <ele>93.87</ele>
        <time>2019-05-22T12:29:16Z</time>
      </trkpt>
      <trkpt lat="40.35509" lon="-8.46279">
        <ele>93.39</ele>
        <time>2019-05-22T12:29:27Z</time>
      </trkpt>
      <trkpt lat="40.35518" lon="-8.46258">
        <ele>93.39</ele>
        <time>2019-05-22T12:29:41Z</time>
      </trkpt>
      <trkpt lat="40.35532" lon="-8.46242">
        <ele>93.87</ele>
        <time>2019-05-22T12:29:55Z</time>
      </trkpt>
      <trkpt lat="40.35549" lon="-8.46229">
        <ele>93.87</ele>
        <time>2019-05-22T12:30:12Z</time>
      </trkpt>
      <trkpt lat="40.35565" lon="-8.46225">
        <ele>93.39</ele>
        <time>2019-05-22T12:30:26Z</time>
      </trkpt>
      <trkpt lat="40.35578" lon="-8.46221">
        <ele>94.83</ele>
        <time>2019-05-22T12:30:38Z</time>
      </trkpt>
      <trkpt lat="40.35588" lon="-8.46218">
        <ele>94.35</ele>
        <time>2019-05-22T12:30:46Z</time>
      </trkpt>
      <trkpt lat="40.35604" lon="-8.46219">
        <ele>95.31</ele>
        <time>2019-05-22T12:31:00Z</time>
      </trkpt>
      <trkpt lat="40.35618" lon="-8.46222">
        <ele>96.75</ele>
        <time>2019-05-22T12:31:14Z</time>
      </trkpt>
      <trkpt lat="40.35633" lon="-8.46222">
        <ele>98.67</ele>
        <time>2019-05-22T12:31:30Z</time>
      </trkpt>
      <trkpt lat="40.35648" lon="-8.46221">
        <ele>100.11</ele>
        <time>2019-05-22T12:31:44Z</time>
      </trkpt>
      <trkpt lat="40.35653" lon="-8.46221">
        <ele>101.08</ele>
        <time>2019-05-22T12:31:50Z</time>
      </trkpt>
      <trkpt lat="40.35669" lon="-8.46212">
        <ele>102.04</ele>
        <time>2019-05-22T12:32:05Z</time>
      </trkpt>
      <trkpt lat="40.35669" lon="-8.46207">
        <ele>103</ele>
        <time>2019-05-22T12:32:17Z</time>
      </trkpt>
      <trkpt lat="40.35673" lon="-8.46205">
        <ele>102.04</ele>
        <time>2019-05-22T12:32:41Z</time>
      </trkpt>
      <trkpt lat="40.35672" lon="-8.46203">
        <ele>102.04</ele>
        <time>2019-05-22T12:32:46Z</time>
      </trkpt>
      <trkpt lat="40.35662" lon="-8.46184">
        <ele>102.04</ele>
        <time>2019-05-22T12:33:02Z</time>
      </trkpt>
      <trkpt lat="40.35653" lon="-8.46167">
        <ele>101.08</ele>
        <time>2019-05-22T12:33:16Z</time>
      </trkpt>
      <trkpt lat="40.3565" lon="-8.4616">
        <ele>100.11</ele>
        <time>2019-05-22T12:33:20Z</time>
      </trkpt>
      <trkpt lat="40.35644" lon="-8.46138">
        <ele>99.63</ele>
        <time>2019-05-22T12:33:33Z</time>
      </trkpt>
      <trkpt lat="40.35642" lon="-8.46132">
        <ele>99.15</ele>
        <time>2019-05-22T12:33:37Z</time>
      </trkpt>
      <trkpt lat="40.35637" lon="-8.46112">
        <ele>97.23</ele>
        <time>2019-05-22T12:33:51Z</time>
      </trkpt>
      <trkpt lat="40.35637" lon="-8.4611">
        <ele>96.75</ele>
        <time>2019-05-22T12:33:53Z</time>
      </trkpt>
      <trkpt lat="40.35637" lon="-8.46097">
        <ele>95.79</ele>
        <time>2019-05-22T12:34:04Z</time>
      </trkpt>
      <trkpt lat="40.35641" lon="-8.46073">
        <ele>94.35</ele>
        <time>2019-05-22T12:34:17Z</time>
      </trkpt>
      <trkpt lat="40.35642" lon="-8.46071">
        <ele>94.35</ele>
        <time>2019-05-22T12:34:18Z</time>
      </trkpt>
      <trkpt lat="40.35643" lon="-8.46055">
        <ele>93.87</ele>
        <time>2019-05-22T12:34:31Z</time>
      </trkpt>
      <trkpt lat="40.35648" lon="-8.46033">
        <ele>93.39</ele>
        <time>2019-05-22T12:34:46Z</time>
      </trkpt>
      <trkpt lat="40.35651" lon="-8.46028">
        <ele>92.9</ele>
        <time>2019-05-22T12:34:54Z</time>
      </trkpt>
      <trkpt lat="40.3566" lon="-8.46003">
        <ele>92.42</ele>
        <time>2019-05-22T12:35:11Z</time>
      </trkpt>
      <trkpt lat="40.35664" lon="-8.45985">
        <ele>91.46</ele>
        <time>2019-05-22T12:35:24Z</time>
      </trkpt>
      <trkpt lat="40.35668" lon="-8.45968">
        <ele>90.02</ele>
        <time>2019-05-22T12:35:35Z</time>
      </trkpt>
      <trkpt lat="40.35669" lon="-8.45962">
        <ele>90.5</ele>
        <time>2019-05-22T12:35:39Z</time>
      </trkpt>
      <trkpt lat="40.35672" lon="-8.45949">
        <ele>89.06</ele>
        <time>2019-05-22T12:35:47Z</time>
      </trkpt>
      <trkpt lat="40.35677" lon="-8.45934">
        <ele>88.1</ele>
        <time>2019-05-22T12:35:56Z</time>
      </trkpt>
      <trkpt lat="40.3568" lon="-8.45923">
        <ele>87.62</ele>
        <time>2019-05-22T12:36:02Z</time>
      </trkpt>
      <trkpt lat="40.35684" lon="-8.45901">
        <ele>85.69</ele>
        <time>2019-05-22T12:36:17Z</time>
      </trkpt>
      <trkpt lat="40.35686" lon="-8.45893">
        <ele>85.21</ele>
        <time>2019-05-22T12:36:22Z</time>
      </trkpt>
      <trkpt lat="40.35688" lon="-8.45881">
        <ele>85.21</ele>
        <time>2019-05-22T12:36:29Z</time>
      </trkpt>
      <trkpt lat="40.35691" lon="-8.4587">
        <ele>84.73</ele>
        <time>2019-05-22T12:36:36Z</time>
      </trkpt>
      <trkpt lat="40.35693" lon="-8.45858">
        <ele>83.77</ele>
        <time>2019-05-22T12:36:43Z</time>
      </trkpt>
      <trkpt lat="40.35694" lon="-8.45855">
        <ele>83.77</ele>
        <time>2019-05-22T12:36:45Z</time>
      </trkpt>
      <trkpt lat="40.35697" lon="-8.45845">
        <ele>83.77</ele>
        <time>2019-05-22T12:36:52Z</time>
      </trkpt>
      <trkpt lat="40.35705" lon="-8.45823">
        <ele>82.33</ele>
        <time>2019-05-22T12:37:06Z</time>
      </trkpt>
      <trkpt lat="40.35713" lon="-8.45805">
        <ele>81.85</ele>
        <time>2019-05-22T12:37:19Z</time>
      </trkpt>
      <trkpt lat="40.35725" lon="-8.45783">
        <ele>80.89</ele>
        <time>2019-05-22T12:37:34Z</time>
      </trkpt>
      <trkpt lat="40.3573" lon="-8.45774">
        <ele>80.89</ele>
        <time>2019-05-22T12:37:51Z</time>
      </trkpt>
      <trkpt lat="40.35729" lon="-8.45771">
        <ele>80.41</ele>
        <time>2019-05-22T12:38:13Z</time>
      </trkpt>
      <trkpt lat="40.35729" lon="-8.45773">
        <ele>80.89</ele>
        <time>2019-05-22T12:38:37Z</time>
      </trkpt>
      <trkpt lat="40.35729" lon="-8.45773">
        <ele>80.89</ele>
        <time>2019-05-22T12:38:54Z</time>
      </trkpt>
      <trkpt lat="40.3573" lon="-8.45772">
        <ele>80.41</ele>
        <time>2019-05-22T12:39:25Z</time>
      </trkpt>
      <trkpt lat="40.3573" lon="-8.45772">
        <ele>80.41</ele>
        <time>2019-05-22T12:39:40Z</time>
      </trkpt>
      <trkpt lat="40.35736" lon="-8.45771">
        <ele>79.93</ele>
        <time>2019-05-22T12:39:49Z</time>
      </trkpt>
      <trkpt lat="40.3575" lon="-8.45758">
        <ele>79.45</ele>
        <time>2019-05-22T12:40:05Z</time>
      </trkpt>
      <trkpt lat="40.35766" lon="-8.45738">
        <ele>78.97</ele>
        <time>2019-05-22T12:40:21Z</time>
      </trkpt>
      <trkpt lat="40.35769" lon="-8.45733">
        <ele>78.48</ele>
        <time>2019-05-22T12:40:25Z</time>
      </trkpt>
      <trkpt lat="40.35771" lon="-8.45725">
        <ele>78</ele>
        <time>2019-05-22T12:40:30Z</time>
      </trkpt>
      <trkpt lat="40.3578" lon="-8.45705">
        <ele>76.08</ele>
        <time>2019-05-22T12:40:44Z</time>
      </trkpt>
      <trkpt lat="40.35787" lon="-8.45682">
        <ele>75.12</ele>
        <time>2019-05-22T12:40:59Z</time>
      </trkpt>
      <trkpt lat="40.35789" lon="-8.45677">
        <ele>74.16</ele>
        <time>2019-05-22T12:41:03Z</time>
      </trkpt>
      <trkpt lat="40.35809" lon="-8.45671">
        <ele>73.68</ele>
        <time>2019-05-22T12:41:21Z</time>
      </trkpt>
      <trkpt lat="40.35824" lon="-8.4567">
        <ele>72.72</ele>
        <time>2019-05-22T12:41:33Z</time>
      </trkpt>
      <trkpt lat="40.3584" lon="-8.45668">
        <ele>72.24</ele>
        <time>2019-05-22T12:41:45Z</time>
      </trkpt>
      <trkpt lat="40.35853" lon="-8.45669">
        <ele>71.76</ele>
        <time>2019-05-22T12:41:58Z</time>
      </trkpt>
      <trkpt lat="40.35859" lon="-8.45654">
        <ele>71.27</ele>
        <time>2019-05-22T12:42:09Z</time>
      </trkpt>
      <trkpt lat="40.35871" lon="-8.45652">
        <ele>71.76</ele>
        <time>2019-05-22T12:42:21Z</time>
      </trkpt>
      <trkpt lat="40.35881" lon="-8.45657">
        <ele>72.72</ele>
        <time>2019-05-22T12:42:37Z</time>
      </trkpt>
      <trkpt lat="40.35888" lon="-8.45659">
        <ele>71.27</ele>
        <time>2019-05-22T12:42:57Z</time>
      </trkpt>
      <trkpt lat="40.3589" lon="-8.45659">
        <ele>72.24</ele>
        <time>2019-05-22T12:42:59Z</time>
      </trkpt>
      <trkpt lat="40.35908" lon="-8.4566">
        <ele>73.68</ele>
        <time>2019-05-22T12:43:14Z</time>
      </trkpt>
      <trkpt lat="40.35925" lon="-8.45659">
        <ele>73.68</ele>
        <time>2019-05-22T12:43:28Z</time>
      </trkpt>
      <trkpt lat="40.35937" lon="-8.45661">
        <ele>72.72</ele>
        <time>2019-05-22T12:43:38Z</time>
      </trkpt>
      <trkpt lat="40.35955" lon="-8.45668">
        <ele>71.76</ele>
        <time>2019-05-22T12:43:53Z</time>
      </trkpt>
      <trkpt lat="40.35973" lon="-8.4567">
        <ele>71.27</ele>
        <time>2019-05-22T12:44:07Z</time>
      </trkpt>
      <trkpt lat="40.35982" lon="-8.45673">
        <ele>70.79</ele>
        <time>2019-05-22T12:44:15Z</time>
      </trkpt>
      <trkpt lat="40.35996" lon="-8.45675">
        <ele>68.39</ele>
        <time>2019-05-22T12:44:30Z</time>
      </trkpt>
      <trkpt lat="40.36002" lon="-8.45662">
        <ele>67.43</ele>
        <time>2019-05-22T12:44:43Z</time>
      </trkpt>
      <trkpt lat="40.36007" lon="-8.45643">
        <ele>66.95</ele>
        <time>2019-05-22T12:44:57Z</time>
      </trkpt>
      <trkpt lat="40.36011" lon="-8.45628">
        <ele>65.03</ele>
        <time>2019-05-22T12:45:08Z</time>
      </trkpt>
      <trkpt lat="40.36012" lon="-8.45626">
        <ele>65.03</ele>
        <time>2019-05-22T12:45:09Z</time>
      </trkpt>
      <trkpt lat="40.36014" lon="-8.45622">
        <ele>64.55</ele>
        <time>2019-05-22T12:45:12Z</time>
      </trkpt>
      <trkpt lat="40.36031" lon="-8.45616">
        <ele>61.18</ele>
        <time>2019-05-22T12:45:26Z</time>
      </trkpt>
      <trkpt lat="40.36053" lon="-8.45608">
        <ele>58.3</ele>
        <time>2019-05-22T12:45:43Z</time>
      </trkpt>
      <trkpt lat="40.36065" lon="-8.45593">
        <ele>57.34</ele>
        <time>2019-05-22T12:45:57Z</time>
      </trkpt>
      <trkpt lat="40.36076" lon="-8.45571">
        <ele>56.86</ele>
        <time>2019-05-22T12:46:14Z</time>
      </trkpt>
      <trkpt lat="40.36078" lon="-8.45567">
        <ele>56.86</ele>
        <time>2019-05-22T12:46:17Z</time>
      </trkpt>
      <trkpt lat="40.36085" lon="-8.45554">
        <ele>56.37</ele>
        <time>2019-05-22T12:46:27Z</time>
      </trkpt>
      <trkpt lat="40.36092" lon="-8.45548">
        <ele>56.37</ele>
        <time>2019-05-22T12:46:38Z</time>
      </trkpt>
      <trkpt lat="40.36098" lon="-8.45547">
        <ele>56.86</ele>
        <time>2019-05-22T12:46:51Z</time>
      </trkpt>
      <trkpt lat="40.36099" lon="-8.45548">
        <ele>55.41</ele>
        <time>2019-05-22T12:47:08Z</time>
      </trkpt>
      <trkpt lat="40.361" lon="-8.45548">
        <ele>55.41</ele>
        <time>2019-05-22T12:47:21Z</time>
      </trkpt>
      <trkpt lat="40.36119" lon="-8.45545">
        <ele>54.93</ele>
        <time>2019-05-22T12:47:37Z</time>
      </trkpt>
      <trkpt lat="40.3613" lon="-8.45545">
        <ele>55.41</ele>
        <time>2019-05-22T12:47:46Z</time>
      </trkpt>
      <trkpt lat="40.36144" lon="-8.45547">
        <ele>54.93</ele>
        <time>2019-05-22T12:48:00Z</time>
      </trkpt>
      <trkpt lat="40.36145" lon="-8.45547">
        <ele>54.45</ele>
        <time>2019-05-22T12:48:01Z</time>
      </trkpt>
      <trkpt lat="40.36159" lon="-8.4555">
        <ele>54.93</ele>
        <time>2019-05-22T12:48:12Z</time>
      </trkpt>
      <trkpt lat="40.36178" lon="-8.45553">
        <ele>54.93</ele>
        <time>2019-05-22T12:48:26Z</time>
      </trkpt>
      <trkpt lat="40.36194" lon="-8.45561">
        <ele>55.41</ele>
        <time>2019-05-22T12:48:40Z</time>
      </trkpt>
      <trkpt lat="40.36211" lon="-8.4557">
        <ele>54.93</ele>
        <time>2019-05-22T12:48:55Z</time>
      </trkpt>
      <trkpt lat="40.36212" lon="-8.45571">
        <ele>55.41</ele>
        <time>2019-05-22T12:48:56Z</time>
      </trkpt>
      <trkpt lat="40.36217" lon="-8.45579">
        <ele>54.45</ele>
        <time>2019-05-22T12:49:03Z</time>
      </trkpt>
      <trkpt lat="40.3623" lon="-8.45602">
        <ele>55.89</ele>
        <time>2019-05-22T12:49:21Z</time>
      </trkpt>
      <trkpt lat="40.36235" lon="-8.45618">
        <ele>56.86</ele>
        <time>2019-05-22T12:49:33Z</time>
      </trkpt>
      <trkpt lat="40.36235" lon="-8.45633">
        <ele>57.82</ele>
        <time>2019-05-22T12:49:45Z</time>
      </trkpt>
      <trkpt lat="40.36233" lon="-8.45649">
        <ele>58.3</ele>
        <time>2019-05-22T12:49:57Z</time>
      </trkpt>
      <trkpt lat="40.36233" lon="-8.45668">
        <ele>59.26</ele>
        <time>2019-05-22T12:50:10Z</time>
      </trkpt>
      <trkpt lat="40.3624" lon="-8.45675">
        <ele>58.78</ele>
        <time>2019-05-22T12:50:29Z</time>
      </trkpt>
      <trkpt lat="40.36251" lon="-8.45679">
        <ele>61.18</ele>
        <time>2019-05-22T12:50:42Z</time>
      </trkpt>
      <trkpt lat="40.36262" lon="-8.45682">
        <ele>62.62</ele>
        <time>2019-05-22T12:50:54Z</time>
      </trkpt>
      <trkpt lat="40.36274" lon="-8.45688">
        <ele>62.62</ele>
        <time>2019-05-22T12:51:08Z</time>
      </trkpt>
      <trkpt lat="40.36276" lon="-8.45689">
        <ele>64.07</ele>
        <time>2019-05-22T12:51:10Z</time>
      </trkpt>
      <trkpt lat="40.36292" lon="-8.45697">
        <ele>63.1</ele>
        <time>2019-05-22T12:51:25Z</time>
      </trkpt>
      <trkpt lat="40.363" lon="-8.45705">
        <ele>63.58</ele>
        <time>2019-05-22T12:51:36Z</time>
      </trkpt>
      <trkpt lat="40.36304" lon="-8.45708">
        <ele>64.07</ele>
        <time>2019-05-22T12:51:59Z</time>
      </trkpt>
      <trkpt lat="40.36305" lon="-8.45704">
        <ele>63.58</ele>
        <time>2019-05-22T12:52:27Z</time>
      </trkpt>
      <trkpt lat="40.36307" lon="-8.45706">
        <ele>63.58</ele>
        <time>2019-05-22T12:52:56Z</time>
      </trkpt>
      <trkpt lat="40.36312" lon="-8.45714">
        <ele>64.07</ele>
        <time>2019-05-22T12:53:14Z</time>
      </trkpt>
      <trkpt lat="40.36323" lon="-8.45722">
        <ele>64.07</ele>
        <time>2019-05-22T12:53:29Z</time>
      </trkpt>
      <trkpt lat="40.36334" lon="-8.45728">
        <ele>63.58</ele>
        <time>2019-05-22T12:53:38Z</time>
      </trkpt>
      <trkpt lat="40.36346" lon="-8.45735">
        <ele>63.58</ele>
        <time>2019-05-22T12:53:54Z</time>
      </trkpt>
      <trkpt lat="40.36361" lon="-8.45743">
        <ele>63.58</ele>
        <time>2019-05-22T12:54:08Z</time>
      </trkpt>
      <trkpt lat="40.36362" lon="-8.45744">
        <ele>63.58</ele>
        <time>2019-05-22T12:54:09Z</time>
      </trkpt>
      <trkpt lat="40.36377" lon="-8.45752">
        <ele>63.58</ele>
        <time>2019-05-22T12:54:23Z</time>
      </trkpt>
      <trkpt lat="40.36378" lon="-8.45753">
        <ele>63.58</ele>
        <time>2019-05-22T12:54:24Z</time>
      </trkpt>
      <trkpt lat="40.36395" lon="-8.45762">
        <ele>63.58</ele>
        <time>2019-05-22T12:54:39Z</time>
      </trkpt>
      <trkpt lat="40.36408" lon="-8.4577">
        <ele>64.07</ele>
        <time>2019-05-22T12:54:52Z</time>
      </trkpt>
      <trkpt lat="40.36422" lon="-8.4578">
        <ele>63.58</ele>
        <time>2019-05-22T12:55:06Z</time>
      </trkpt>
      <trkpt lat="40.36432" lon="-8.45789">
        <ele>63.58</ele>
        <time>2019-05-22T12:55:16Z</time>
      </trkpt>
      <trkpt lat="40.36452" lon="-8.458">
        <ele>64.55</ele>
        <time>2019-05-22T12:55:32Z</time>
      </trkpt>
      <trkpt lat="40.36463" lon="-8.45806">
        <ele>63.58</ele>
        <time>2019-05-22T12:55:43Z</time>
      </trkpt>
      <trkpt lat="40.36466" lon="-8.45809">
        <ele>64.07</ele>
        <time>2019-05-22T12:55:46Z</time>
      </trkpt>
      <trkpt lat="40.36486" lon="-8.45824">
        <ele>63.58</ele>
        <time>2019-05-22T12:56:05Z</time>
      </trkpt>
      <trkpt lat="40.36502" lon="-8.4584">
        <ele>62.14</ele>
        <time>2019-05-22T12:56:21Z</time>
      </trkpt>
      <trkpt lat="40.36515" lon="-8.45854">
        <ele>62.14</ele>
        <time>2019-05-22T12:56:34Z</time>
      </trkpt>
      <trkpt lat="40.36524" lon="-8.45867">
        <ele>61.18</ele>
        <time>2019-05-22T12:56:47Z</time>
      </trkpt>
      <trkpt lat="40.3654" lon="-8.45884">
        <ele>59.74</ele>
        <time>2019-05-22T12:57:05Z</time>
      </trkpt>
      <trkpt lat="40.36545" lon="-8.45886">
        <ele>59.26</ele>
        <time>2019-05-22T12:57:12Z</time>
      </trkpt>
      <trkpt lat="40.36554" lon="-8.45865">
        <ele>58.3</ele>
        <time>2019-05-22T12:57:27Z</time>
      </trkpt>
      <trkpt lat="40.36554" lon="-8.45864">
        <ele>58.3</ele>
        <time>2019-05-22T12:57:28Z</time>
      </trkpt>
      <trkpt lat="40.36559" lon="-8.45836">
        <ele>57.82</ele>
        <time>2019-05-22T12:57:46Z</time>
      </trkpt>
      <trkpt lat="40.36561" lon="-8.45822">
        <ele>56.86</ele>
        <time>2019-05-22T12:57:54Z</time>
      </trkpt>
      <trkpt lat="40.36564" lon="-8.45807">
        <ele>56.86</ele>
        <time>2019-05-22T12:58:03Z</time>
      </trkpt>
      <trkpt lat="40.36567" lon="-8.45794">
        <ele>56.37</ele>
        <time>2019-05-22T12:58:10Z</time>
      </trkpt>
      <trkpt lat="40.36567" lon="-8.45787">
        <ele>56.37</ele>
        <time>2019-05-22T12:58:25Z</time>
      </trkpt>
      <trkpt lat="40.36568" lon="-8.45782">
        <ele>55.41</ele>
        <time>2019-05-22T12:58:29Z</time>
      </trkpt>
      <trkpt lat="40.36575" lon="-8.4576">
        <ele>54.93</ele>
        <time>2019-05-22T12:58:43Z</time>
      </trkpt>
      <trkpt lat="40.36576" lon="-8.45757">
        <ele>55.89</ele>
        <time>2019-05-22T12:58:45Z</time>
      </trkpt>
      <trkpt lat="40.36582" lon="-8.45734">
        <ele>55.41</ele>
        <time>2019-05-22T12:58:59Z</time>
      </trkpt>
      <trkpt lat="40.36584" lon="-8.45728">
        <ele>54.93</ele>
        <time>2019-05-22T12:59:03Z</time>
      </trkpt>
      <trkpt lat="40.36588" lon="-8.45716">
        <ele>54.45</ele>
        <time>2019-05-22T12:59:11Z</time>
      </trkpt>
      <trkpt lat="40.36596" lon="-8.45691">
        <ele>54.45</ele>
        <time>2019-05-22T12:59:26Z</time>
      </trkpt>
      <trkpt lat="40.366" lon="-8.45677">
        <ele>53.97</ele>
        <time>2019-05-22T12:59:34Z</time>
      </trkpt>
      <trkpt lat="40.36604" lon="-8.45653">
        <ele>53.01</ele>
        <time>2019-05-22T12:59:49Z</time>
      </trkpt>
      <trkpt lat="40.36609" lon="-8.45633">
        <ele>52.05</ele>
        <time>2019-05-22T13:00:03Z</time>
      </trkpt>
      <trkpt lat="40.36613" lon="-8.4562">
        <ele>51.57</ele>
        <time>2019-05-22T13:00:13Z</time>
      </trkpt>
      <trkpt lat="40.36617" lon="-8.45597">
        <ele>52.53</ele>
        <time>2019-05-22T13:00:28Z</time>
      </trkpt>
      <trkpt lat="40.36619" lon="-8.45587">
        <ele>52.53</ele>
        <time>2019-05-22T13:00:34Z</time>
      </trkpt>
      <trkpt lat="40.36619" lon="-8.45581">
        <ele>52.05</ele>
        <time>2019-05-22T13:00:38Z</time>
      </trkpt>
      <trkpt lat="40.3662" lon="-8.45573">
        <ele>51.57</ele>
        <time>2019-05-22T13:00:43Z</time>
      </trkpt>
      <trkpt lat="40.36626" lon="-8.45547">
        <ele>51.57</ele>
        <time>2019-05-22T13:01:00Z</time>
      </trkpt>
      <trkpt lat="40.36629" lon="-8.45525">
        <ele>52.53</ele>
        <time>2019-05-22T13:01:15Z</time>
      </trkpt>
      <trkpt lat="40.3663" lon="-8.4551">
        <ele>52.53</ele>
        <time>2019-05-22T13:01:25Z</time>
      </trkpt>
      <trkpt lat="40.36636" lon="-8.45489">
        <ele>52.53</ele>
        <time>2019-05-22T13:01:39Z</time>
      </trkpt>
      <trkpt lat="40.36636" lon="-8.45483">
        <ele>52.53</ele>
        <time>2019-05-22T13:01:48Z</time>
      </trkpt>
      <trkpt lat="40.36635" lon="-8.4546">
        <ele>52.53</ele>
        <time>2019-05-22T13:02:02Z</time>
      </trkpt>
      <trkpt lat="40.36634" lon="-8.45452">
        <ele>52.05</ele>
        <time>2019-05-22T13:02:11Z</time>
      </trkpt>
      <trkpt lat="40.36636" lon="-8.45447">
        <ele>52.53</ele>
        <time>2019-05-22T13:02:18Z</time>
      </trkpt>
      <trkpt lat="40.36654" lon="-8.45453">
        <ele>52.05</ele>
        <time>2019-05-22T13:02:33Z</time>
      </trkpt>
      <trkpt lat="40.36657" lon="-8.45454">
        <ele>52.05</ele>
        <time>2019-05-22T13:02:36Z</time>
      </trkpt>
      <trkpt lat="40.36667" lon="-8.45461">
        <ele>52.05</ele>
        <time>2019-05-22T13:02:50Z</time>
      </trkpt>
      <trkpt lat="40.36669" lon="-8.45464">
        <ele>52.05</ele>
        <time>2019-05-22T13:02:52Z</time>
      </trkpt>
      <trkpt lat="40.36671" lon="-8.45467">
        <ele>51.57</ele>
        <time>2019-05-22T13:02:55Z</time>
      </trkpt>
      <trkpt lat="40.36678" lon="-8.45481">
        <ele>52.53</ele>
        <time>2019-05-22T13:03:04Z</time>
      </trkpt>
      <trkpt lat="40.36682" lon="-8.45489">
        <ele>51.57</ele>
        <time>2019-05-22T13:03:14Z</time>
      </trkpt>
      <trkpt lat="40.36689" lon="-8.4549">
        <ele>52.53</ele>
        <time>2019-05-22T13:03:20Z</time>
      </trkpt>
      <trkpt lat="40.36701" lon="-8.45495">
        <ele>52.53</ele>
        <time>2019-05-22T13:03:31Z</time>
      </trkpt>
      <trkpt lat="40.36718" lon="-8.45491">
        <ele>53.01</ele>
        <time>2019-05-22T13:03:46Z</time>
      </trkpt>
      <trkpt lat="40.36726" lon="-8.45492">
        <ele>53.01</ele>
        <time>2019-05-22T13:03:55Z</time>
      </trkpt>
      <trkpt lat="40.36736" lon="-8.45482">
        <ele>53.49</ele>
        <time>2019-05-22T13:04:08Z</time>
      </trkpt>
      <trkpt lat="40.36738" lon="-8.45478">
        <ele>53.97</ele>
        <time>2019-05-22T13:04:27Z</time>
      </trkpt>
      <trkpt lat="40.36739" lon="-8.45477">
        <ele>53.97</ele>
        <time>2019-05-22T13:04:47Z</time>
      </trkpt>
      <trkpt lat="40.36745" lon="-8.45472">
        <ele>53.97</ele>
        <time>2019-05-22T13:05:00Z</time>
      </trkpt>
      <trkpt lat="40.36755" lon="-8.45469">
        <ele>54.93</ele>
        <time>2019-05-22T13:05:10Z</time>
      </trkpt>
      <trkpt lat="40.36774" lon="-8.45466">
        <ele>54.93</ele>
        <time>2019-05-22T13:05:25Z</time>
      </trkpt>
      <trkpt lat="40.36778" lon="-8.45466">
        <ele>54.93</ele>
        <time>2019-05-22T13:05:29Z</time>
      </trkpt>
      <trkpt lat="40.36799" lon="-8.45461">
        <ele>56.86</ele>
        <time>2019-05-22T13:05:48Z</time>
      </trkpt>
      <trkpt lat="40.36804" lon="-8.45461">
        <ele>56.37</ele>
        <time>2019-05-22T13:06:01Z</time>
      </trkpt>
      <trkpt lat="40.36802" lon="-8.45462">
        <ele>55.89</ele>
        <time>2019-05-22T13:06:05Z</time>
      </trkpt>
      <trkpt lat="40.36792" lon="-8.45464">
        <ele>56.86</ele>
        <time>2019-05-22T13:06:14Z</time>
      </trkpt>
      <trkpt lat="40.36789" lon="-8.45465">
        <ele>55.89</ele>
        <time>2019-05-22T13:06:19Z</time>
      </trkpt>
      <trkpt lat="40.36784" lon="-8.45455">
        <ele>55.41</ele>
        <time>2019-05-22T13:06:27Z</time>
      </trkpt>
      <trkpt lat="40.36788" lon="-8.45444">
        <ele>54.93</ele>
        <time>2019-05-22T13:06:35Z</time>
      </trkpt>
      <trkpt lat="40.36805" lon="-8.45439">
        <ele>55.41</ele>
        <time>2019-05-22T13:06:50Z</time>
      </trkpt>
      <trkpt lat="40.36821" lon="-8.45435">
        <ele>55.89</ele>
        <time>2019-05-22T13:07:04Z</time>
      </trkpt>
      <trkpt lat="40.36842" lon="-8.45427">
        <ele>55.41</ele>
        <time>2019-05-22T13:07:22Z</time>
      </trkpt>
      <trkpt lat="40.36861" lon="-8.45417">
        <ele>56.37</ele>
        <time>2019-05-22T13:07:39Z</time>
      </trkpt>
      <trkpt lat="40.36877" lon="-8.45408">
        <ele>56.37</ele>
        <time>2019-05-22T13:07:54Z</time>
      </trkpt>
      <trkpt lat="40.36892" lon="-8.45397">
        <ele>56.86</ele>
        <time>2019-05-22T13:08:08Z</time>
      </trkpt>
      <trkpt lat="40.36907" lon="-8.45385">
        <ele>58.3</ele>
        <time>2019-05-22T13:08:23Z</time>
      </trkpt>
      <trkpt lat="40.36923" lon="-8.45371">
        <ele>58.3</ele>
        <time>2019-05-22T13:08:40Z</time>
      </trkpt>
      <trkpt lat="40.36937" lon="-8.45356">
        <ele>59.26</ele>
        <time>2019-05-22T13:08:56Z</time>
      </trkpt>
      <trkpt lat="40.36949" lon="-8.45345">
        <ele>59.74</ele>
        <time>2019-05-22T13:09:10Z</time>
      </trkpt>
      <trkpt lat="40.36964" lon="-8.45328">
        <ele>57.82</ele>
        <time>2019-05-22T13:09:27Z</time>
      </trkpt>
      <trkpt lat="40.3697" lon="-8.45323">
        <ele>57.82</ele>
        <time>2019-05-22T13:09:33Z</time>
      </trkpt>
      <trkpt lat="40.36985" lon="-8.45308">
        <ele>57.82</ele>
        <time>2019-05-22T13:09:49Z</time>
      </trkpt>
      <trkpt lat="40.37002" lon="-8.45292">
        <ele>57.34</ele>
        <time>2019-05-22T13:10:06Z</time>
      </trkpt>
      <trkpt lat="40.37012" lon="-8.45281">
        <ele>56.86</ele>
        <time>2019-05-22T13:10:18Z</time>
      </trkpt>
      <trkpt lat="40.37017" lon="-8.45276">
        <ele>56.37</ele>
        <time>2019-05-22T13:10:34Z</time>
      </trkpt>
      <trkpt lat="40.37024" lon="-8.4527">
        <ele>58.3</ele>
        <time>2019-05-22T13:10:49Z</time>
      </trkpt>
      <trkpt lat="40.37027" lon="-8.45267">
        <ele>56.86</ele>
        <time>2019-05-22T13:10:54Z</time>
      </trkpt>
      <trkpt lat="40.37038" lon="-8.45255">
        <ele>57.34</ele>
        <time>2019-05-22T13:11:07Z</time>
      </trkpt>
      <trkpt lat="40.37054" lon="-8.4524">
        <ele>55.89</ele>
        <time>2019-05-22T13:11:23Z</time>
      </trkpt>
      <trkpt lat="40.37071" lon="-8.45225">
        <ele>54.45</ele>
        <time>2019-05-22T13:11:39Z</time>
      </trkpt>
      <trkpt lat="40.37085" lon="-8.45212">
        <ele>54.45</ele>
        <time>2019-05-22T13:11:54Z</time>
      </trkpt>
      <trkpt lat="40.37102" lon="-8.45196">
        <ele>53.97</ele>
        <time>2019-05-22T13:12:09Z</time>
      </trkpt>
      <trkpt lat="40.37114" lon="-8.45183">
        <ele>53.97</ele>
        <time>2019-05-22T13:12:23Z</time>
      </trkpt>
      <trkpt lat="40.37129" lon="-8.45169">
        <ele>53.01</ele>
        <time>2019-05-22T13:12:38Z</time>
      </trkpt>
      <trkpt lat="40.37141" lon="-8.45156">
        <ele>53.01</ele>
        <time>2019-05-22T13:12:50Z</time>
      </trkpt>
      <trkpt lat="40.37157" lon="-8.45141">
        <ele>52.53</ele>
        <time>2019-05-22T13:13:04Z</time>
      </trkpt>
      <trkpt lat="40.37171" lon="-8.45124">
        <ele>52.53</ele>
        <time>2019-05-22T13:13:19Z</time>
      </trkpt>
      <trkpt lat="40.37187" lon="-8.4511">
        <ele>53.01</ele>
        <time>2019-05-22T13:13:34Z</time>
      </trkpt>
      <trkpt lat="40.37202" lon="-8.45091">
        <ele>53.97</ele>
        <time>2019-05-22T13:13:51Z</time>
      </trkpt>
      <trkpt lat="40.37204" lon="-8.45084">
        <ele>53.97</ele>
        <time>2019-05-22T13:14:05Z</time>
      </trkpt>
      <trkpt lat="40.37202" lon="-8.45087">
        <ele>53.97</ele>
        <time>2019-05-22T13:14:08Z</time>
      </trkpt>
      <trkpt lat="40.37202" lon="-8.45085">
        <ele>53.97</ele>
        <time>2019-05-22T13:14:19Z</time>
      </trkpt>
      <trkpt lat="40.3721" lon="-8.45074">
        <ele>53.49</ele>
        <time>2019-05-22T13:14:31Z</time>
      </trkpt>
      <trkpt lat="40.37219" lon="-8.45065">
        <ele>53.01</ele>
        <time>2019-05-22T13:14:45Z</time>
      </trkpt>
      <trkpt lat="40.37223" lon="-8.45059">
        <ele>54.45</ele>
        <time>2019-05-22T13:15:01Z</time>
      </trkpt>
      <trkpt lat="40.37225" lon="-8.45057">
        <ele>53.49</ele>
        <time>2019-05-22T13:15:24Z</time>
      </trkpt>
      <trkpt lat="40.37225" lon="-8.4506">
        <ele>53.49</ele>
        <time>2019-05-22T13:15:47Z</time>
      </trkpt>
      <trkpt lat="40.37225" lon="-8.45057">
        <ele>53.49</ele>
        <time>2019-05-22T13:16:06Z</time>
      </trkpt>
      <trkpt lat="40.37225" lon="-8.45052">
        <ele>53.01</ele>
        <time>2019-05-22T13:16:23Z</time>
      </trkpt>
      <trkpt lat="40.37224" lon="-8.45057">
        <ele>53.01</ele>
        <time>2019-05-22T13:16:50Z</time>
      </trkpt>
      <trkpt lat="40.37224" lon="-8.45055">
        <ele>53.01</ele>
        <time>2019-05-22T13:17:07Z</time>
      </trkpt>
      <trkpt lat="40.37229" lon="-8.45056">
        <ele>53.01</ele>
        <time>2019-05-22T13:17:27Z</time>
      </trkpt>
      <trkpt lat="40.37226" lon="-8.45057">
        <ele>52.53</ele>
        <time>2019-05-22T13:17:49Z</time>
      </trkpt>
      <trkpt lat="40.37223" lon="-8.4506">
        <ele>52.53</ele>
        <time>2019-05-22T13:18:12Z</time>
      </trkpt>
      <trkpt lat="40.37224" lon="-8.45058">
        <ele>53.49</ele>
        <time>2019-05-22T13:18:36Z</time>
      </trkpt>
      <trkpt lat="40.37222" lon="-8.45059">
        <ele>53.49</ele>
        <time>2019-05-22T13:19:00Z</time>
      </trkpt>
      <trkpt lat="40.37223" lon="-8.4506">
        <ele>53.97</ele>
        <time>2019-05-22T13:19:25Z</time>
      </trkpt>
      <trkpt lat="40.37221" lon="-8.4506">
        <ele>53.49</ele>
        <time>2019-05-22T13:19:41Z</time>
      </trkpt>
      <trkpt lat="40.37224" lon="-8.45056">
        <ele>53.49</ele>
        <time>2019-05-22T13:20:00Z</time>
      </trkpt>
      <trkpt lat="40.37224" lon="-8.45059">
        <ele>53.49</ele>
        <time>2019-05-22T13:20:18Z</time>
      </trkpt>
      <trkpt lat="40.37227" lon="-8.4506">
        <ele>53.01</ele>
        <time>2019-05-22T13:20:30Z</time>
      </trkpt>
      <trkpt lat="40.37235" lon="-8.45065">
        <ele>53.01</ele>
        <time>2019-05-22T13:20:42Z</time>
      </trkpt>
      <trkpt lat="40.37243" lon="-8.45071">
        <ele>53.01</ele>
        <time>2019-05-22T13:20:56Z</time>
      </trkpt>
      <trkpt lat="40.37262" lon="-8.45063">
        <ele>53.01</ele>
        <time>2019-05-22T13:21:15Z</time>
      </trkpt>
      <trkpt lat="40.37277" lon="-8.45052">
        <ele>52.53</ele>
        <time>2019-05-22T13:21:31Z</time>
      </trkpt>
      <trkpt lat="40.37292" lon="-8.45043">
        <ele>53.01</ele>
        <time>2019-05-22T13:21:46Z</time>
      </trkpt>
      <trkpt lat="40.37309" lon="-8.45034">
        <ele>52.05</ele>
        <time>2019-05-22T13:22:02Z</time>
      </trkpt>
      <trkpt lat="40.37325" lon="-8.45029">
        <ele>52.53</ele>
        <time>2019-05-22T13:22:17Z</time>
      </trkpt>
      <trkpt lat="40.37333" lon="-8.45027">
        <ele>52.53</ele>
        <time>2019-05-22T13:22:28Z</time>
      </trkpt>
      <trkpt lat="40.37348" lon="-8.45023">
        <ele>52.53</ele>
        <time>2019-05-22T13:22:42Z</time>
      </trkpt>
      <trkpt lat="40.37356" lon="-8.45021">
        <ele>52.53</ele>
        <time>2019-05-22T13:22:51Z</time>
      </trkpt>
      <trkpt lat="40.37365" lon="-8.45018">
        <ele>52.53</ele>
        <time>2019-05-22T13:22:58Z</time>
      </trkpt>
      <trkpt lat="40.37382" lon="-8.45016">
        <ele>52.05</ele>
        <time>2019-05-22T13:23:13Z</time>
      </trkpt>
      <trkpt lat="40.37398" lon="-8.45014">
        <ele>51.57</ele>
        <time>2019-05-22T13:23:28Z</time>
      </trkpt>
      <trkpt lat="40.37415" lon="-8.45011">
        <ele>52.53</ele>
        <time>2019-05-22T13:23:44Z</time>
      </trkpt>
      <trkpt lat="40.37429" lon="-8.45007">
        <ele>52.53</ele>
        <time>2019-05-22T13:23:57Z</time>
      </trkpt>
      <trkpt lat="40.37447" lon="-8.45003">
        <ele>52.05</ele>
        <time>2019-05-22T13:24:13Z</time>
      </trkpt>
      <trkpt lat="40.37451" lon="-8.45003">
        <ele>51.09</ele>
        <time>2019-05-22T13:24:20Z</time>
      </trkpt>
      <trkpt lat="40.37465" lon="-8.44999">
        <ele>52.53</ele>
        <time>2019-05-22T13:24:35Z</time>
      </trkpt>
      <trkpt lat="40.3748" lon="-8.44995">
        <ele>53.01</ele>
        <time>2019-05-22T13:24:50Z</time>
      </trkpt>
      <trkpt lat="40.37494" lon="-8.44996">
        <ele>51.09</ele>
        <time>2019-05-22T13:25:04Z</time>
      </trkpt>
      <trkpt lat="40.37506" lon="-8.44992">
        <ele>51.57</ele>
        <time>2019-05-22T13:25:17Z</time>
      </trkpt>
      <trkpt lat="40.37514" lon="-8.44988">
        <ele>52.53</ele>
        <time>2019-05-22T13:25:24Z</time>
      </trkpt>
      <trkpt lat="40.37518" lon="-8.44985">
        <ele>52.05</ele>
        <time>2019-05-22T13:25:28Z</time>
      </trkpt>
      <trkpt lat="40.3753" lon="-8.44976">
        <ele>53.01</ele>
        <time>2019-05-22T13:25:43Z</time>
      </trkpt>
      <trkpt lat="40.37534" lon="-8.44973">
        <ele>53.01</ele>
        <time>2019-05-22T13:25:46Z</time>
      </trkpt>
      <trkpt lat="40.37544" lon="-8.44968">
        <ele>53.01</ele>
        <time>2019-05-22T13:25:56Z</time>
      </trkpt>
      <trkpt lat="40.37547" lon="-8.44967">
        <ele>53.49</ele>
        <time>2019-05-22T13:25:59Z</time>
      </trkpt>
      <trkpt lat="40.37565" lon="-8.44966">
        <ele>53.01</ele>
        <time>2019-05-22T13:26:14Z</time>
      </trkpt>
      <trkpt lat="40.37575" lon="-8.44967">
        <ele>53.49</ele>
        <time>2019-05-22T13:26:29Z</time>
      </trkpt>
      <trkpt lat="40.37589" lon="-8.44967">
        <ele>53.01</ele>
        <time>2019-05-22T13:26:42Z</time>
      </trkpt>
      <trkpt lat="40.376" lon="-8.44962">
        <ele>52.53</ele>
        <time>2019-05-22T13:26:55Z</time>
      </trkpt>
      <trkpt lat="40.37602" lon="-8.44962">
        <ele>52.53</ele>
        <time>2019-05-22T13:27:16Z</time>
      </trkpt>
      <trkpt lat="40.37604" lon="-8.44961">
        <ele>53.01</ele>
        <time>2019-05-22T13:27:18Z</time>
      </trkpt>
      <trkpt lat="40.37619" lon="-8.44957">
        <ele>52.53</ele>
        <time>2019-05-22T13:27:32Z</time>
      </trkpt>
      <trkpt lat="40.37619" lon="-8.44956">
        <ele>52.53</ele>
        <time>2019-05-22T13:27:33Z</time>
      </trkpt>
      <trkpt lat="40.37631" lon="-8.44953">
        <ele>52.53</ele>
        <time>2019-05-22T13:27:46Z</time>
      </trkpt>
      <trkpt lat="40.37647" lon="-8.44951">
        <ele>52.53</ele>
        <time>2019-05-22T13:28:00Z</time>
      </trkpt>
      <trkpt lat="40.37663" lon="-8.44949">
        <ele>53.01</ele>
        <time>2019-05-22T13:28:14Z</time>
      </trkpt>
      <trkpt lat="40.37681" lon="-8.44947">
        <ele>53.01</ele>
        <time>2019-05-22T13:28:29Z</time>
      </trkpt>
      <trkpt lat="40.37696" lon="-8.44945">
        <ele>53.01</ele>
        <time>2019-05-22T13:28:42Z</time>
      </trkpt>
      <trkpt lat="40.3771" lon="-8.44949">
        <ele>53.01</ele>
        <time>2019-05-22T13:28:55Z</time>
      </trkpt>
      <trkpt lat="40.37721" lon="-8.44959">
        <ele>53.01</ele>
        <time>2019-05-22T13:29:07Z</time>
      </trkpt>
      <trkpt lat="40.37741" lon="-8.44958">
        <ele>53.49</ele>
        <time>2019-05-22T13:29:22Z</time>
      </trkpt>
      <trkpt lat="40.37759" lon="-8.44957">
        <ele>53.49</ele>
        <time>2019-05-22T13:29:35Z</time>
      </trkpt>
      <trkpt lat="40.37776" lon="-8.44949">
        <ele>53.01</ele>
        <time>2019-05-22T13:29:50Z</time>
      </trkpt>
      <trkpt lat="40.3779" lon="-8.44942">
        <ele>53.49</ele>
        <time>2019-05-22T13:30:05Z</time>
      </trkpt>
      <trkpt lat="40.37802" lon="-8.4494">
        <ele>53.97</ele>
        <time>2019-05-22T13:30:19Z</time>
      </trkpt>
      <trkpt lat="40.37812" lon="-8.4494">
        <ele>53.01</ele>
        <time>2019-05-22T13:30:31Z</time>
      </trkpt>
      <trkpt lat="40.37814" lon="-8.4494">
        <ele>53.49</ele>
        <time>2019-05-22T13:30:33Z</time>
      </trkpt>
      <trkpt lat="40.3782" lon="-8.44941">
        <ele>53.01</ele>
        <time>2019-05-22T13:30:38Z</time>
      </trkpt>
      <trkpt lat="40.37828" lon="-8.44944">
        <ele>53.49</ele>
        <time>2019-05-22T13:30:52Z</time>
      </trkpt>
      <trkpt lat="40.37843" lon="-8.44942">
        <ele>53.49</ele>
        <time>2019-05-22T13:31:07Z</time>
      </trkpt>
      <trkpt lat="40.37855" lon="-8.44941">
        <ele>53.01</ele>
        <time>2019-05-22T13:31:20Z</time>
      </trkpt>
      <trkpt lat="40.37867" lon="-8.44939">
        <ele>52.53</ele>
        <time>2019-05-22T13:31:33Z</time>
      </trkpt>
      <trkpt lat="40.37885" lon="-8.44935">
        <ele>52.05</ele>
        <time>2019-05-22T13:31:47Z</time>
      </trkpt>
      <trkpt lat="40.37903" lon="-8.44931">
        <ele>52.53</ele>
        <time>2019-05-22T13:32:01Z</time>
      </trkpt>
      <trkpt lat="40.37922" lon="-8.44929">
        <ele>52.05</ele>
        <time>2019-05-22T13:32:16Z</time>
      </trkpt>
      <trkpt lat="40.37944" lon="-8.44925">
        <ele>51.57</ele>
        <time>2019-05-22T13:32:32Z</time>
      </trkpt>
      <trkpt lat="40.37957" lon="-8.44922">
        <ele>51.57</ele>
        <time>2019-05-22T13:32:45Z</time>
      </trkpt>
      <trkpt lat="40.37972" lon="-8.44922">
        <ele>51.09</ele>
        <time>2019-05-22T13:32:59Z</time>
      </trkpt>
      <trkpt lat="40.37983" lon="-8.44921">
        <ele>50.61</ele>
        <time>2019-05-22T13:33:12Z</time>
      </trkpt>
      <trkpt lat="40.37994" lon="-8.44919">
        <ele>50.13</ele>
        <time>2019-05-22T13:33:22Z</time>
      </trkpt>
      <trkpt lat="40.38011" lon="-8.44919">
        <ele>50.61</ele>
        <time>2019-05-22T13:33:37Z</time>
      </trkpt>
      <trkpt lat="40.38022" lon="-8.44919">
        <ele>50.61</ele>
        <time>2019-05-22T13:33:48Z</time>
      </trkpt>
      <trkpt lat="40.38042" lon="-8.44922">
        <ele>50.61</ele>
        <time>2019-05-22T13:34:04Z</time>
      </trkpt>
      <trkpt lat="40.38047" lon="-8.44923">
        <ele>50.13</ele>
        <time>2019-05-22T13:34:09Z</time>
      </trkpt>
      <trkpt lat="40.38067" lon="-8.44916">
        <ele>50.61</ele>
        <time>2019-05-22T13:34:26Z</time>
      </trkpt>
      <trkpt lat="40.38078" lon="-8.44906">
        <ele>48.68</ele>
        <time>2019-05-22T13:34:38Z</time>
      </trkpt>
      <trkpt lat="40.38091" lon="-8.44909">
        <ele>48.2</ele>
        <time>2019-05-22T13:34:51Z</time>
      </trkpt>
      <trkpt lat="40.38098" lon="-8.44922">
        <ele>48.68</ele>
        <time>2019-05-22T13:35:03Z</time>
      </trkpt>
      <trkpt lat="40.38102" lon="-8.44928">
        <ele>49.16</ele>
        <time>2019-05-22T13:35:10Z</time>
      </trkpt>
      <trkpt lat="40.38123" lon="-8.44936">
        <ele>47.24</ele>
        <time>2019-05-22T13:35:28Z</time>
      </trkpt>
      <trkpt lat="40.38135" lon="-8.44938">
        <ele>48.68</ele>
        <time>2019-05-22T13:35:41Z</time>
      </trkpt>
      <trkpt lat="40.38153" lon="-8.44944">
        <ele>48.68</ele>
        <time>2019-05-22T13:35:59Z</time>
      </trkpt>
      <trkpt lat="40.38167" lon="-8.44944">
        <ele>48.68</ele>
        <time>2019-05-22T13:36:13Z</time>
      </trkpt>
      <trkpt lat="40.38171" lon="-8.44945">
        <ele>48.68</ele>
        <time>2019-05-22T13:36:27Z</time>
      </trkpt>
      <trkpt lat="40.38175" lon="-8.44948">
        <ele>48.2</ele>
        <time>2019-05-22T13:36:45Z</time>
      </trkpt>
      <trkpt lat="40.38186" lon="-8.44951">
        <ele>47.72</ele>
        <time>2019-05-22T13:36:56Z</time>
      </trkpt>
      <trkpt lat="40.38195" lon="-8.4495">
        <ele>48.68</ele>
        <time>2019-05-22T13:37:11Z</time>
      </trkpt>
      <trkpt lat="40.38201" lon="-8.4495">
        <ele>48.2</ele>
        <time>2019-05-22T13:37:18Z</time>
      </trkpt>
      <trkpt lat="40.38218" lon="-8.44954">
        <ele>47.72</ele>
        <time>2019-05-22T13:37:34Z</time>
      </trkpt>
      <trkpt lat="40.3823" lon="-8.44957">
        <ele>48.68</ele>
        <time>2019-05-22T13:37:47Z</time>
      </trkpt>
      <trkpt lat="40.38249" lon="-8.44963">
        <ele>48.68</ele>
        <time>2019-05-22T13:38:03Z</time>
      </trkpt>
      <trkpt lat="40.38261" lon="-8.44967">
        <ele>48.68</ele>
        <time>2019-05-22T13:38:15Z</time>
      </trkpt>
      <trkpt lat="40.38263" lon="-8.44967">
        <ele>48.2</ele>
        <time>2019-05-22T13:38:17Z</time>
      </trkpt>
      <trkpt lat="40.3828" lon="-8.4497">
        <ele>48.68</ele>
        <time>2019-05-22T13:38:34Z</time>
      </trkpt>
      <trkpt lat="40.38292" lon="-8.44974">
        <ele>47.72</ele>
        <time>2019-05-22T13:38:46Z</time>
      </trkpt>
      <trkpt lat="40.38309" lon="-8.44978">
        <ele>48.68</ele>
        <time>2019-05-22T13:39:02Z</time>
      </trkpt>
      <trkpt lat="40.38323" lon="-8.44981">
        <ele>48.68</ele>
        <time>2019-05-22T13:39:16Z</time>
      </trkpt>
      <trkpt lat="40.38341" lon="-8.44984">
        <ele>48.2</ele>
        <time>2019-05-22T13:39:31Z</time>
      </trkpt>
      <trkpt lat="40.38361" lon="-8.44991">
        <ele>49.16</ele>
        <time>2019-05-22T13:39:48Z</time>
      </trkpt>
      <trkpt lat="40.38375" lon="-8.44994">
        <ele>48.68</ele>
        <time>2019-05-22T13:40:01Z</time>
      </trkpt>
      <trkpt lat="40.38385" lon="-8.44996">
        <ele>48.68</ele>
        <time>2019-05-22T13:40:11Z</time>
      </trkpt>
      <trkpt lat="40.384" lon="-8.45001">
        <ele>49.16</ele>
        <time>2019-05-22T13:40:24Z</time>
      </trkpt>
      <trkpt lat="40.38416" lon="-8.45004">
        <ele>48.68</ele>
        <time>2019-05-22T13:40:38Z</time>
      </trkpt>
      <trkpt lat="40.38431" lon="-8.45007">
        <ele>49.16</ele>
        <time>2019-05-22T13:40:52Z</time>
      </trkpt>
      <trkpt lat="40.38448" lon="-8.4501">
        <ele>48.2</ele>
        <time>2019-05-22T13:41:07Z</time>
      </trkpt>
      <trkpt lat="40.3846" lon="-8.45016">
        <ele>48.2</ele>
        <time>2019-05-22T13:41:19Z</time>
      </trkpt>
      <trkpt lat="40.38464" lon="-8.45016">
        <ele>48.2</ele>
        <time>2019-05-22T13:41:23Z</time>
      </trkpt>
      <trkpt lat="40.38482" lon="-8.4502">
        <ele>48.68</ele>
        <time>2019-05-22T13:41:38Z</time>
      </trkpt>
      <trkpt lat="40.38491" lon="-8.45022">
        <ele>49.16</ele>
        <time>2019-05-22T13:41:59Z</time>
      </trkpt>
      <trkpt lat="40.38495" lon="-8.45023">
        <ele>48.2</ele>
        <time>2019-05-22T13:42:03Z</time>
      </trkpt>
      <trkpt lat="40.38509" lon="-8.45027">
        <ele>48.2</ele>
        <time>2019-05-22T13:42:17Z</time>
      </trkpt>
      <trkpt lat="40.38517" lon="-8.4503">
        <ele>47.72</ele>
        <time>2019-05-22T13:42:23Z</time>
      </trkpt>
      <trkpt lat="40.38536" lon="-8.45035">
        <ele>47.24</ele>
        <time>2019-05-22T13:42:38Z</time>
      </trkpt>
      <trkpt lat="40.38541" lon="-8.45036">
        <ele>47.24</ele>
        <time>2019-05-22T13:42:43Z</time>
      </trkpt>
      <trkpt lat="40.38551" lon="-8.45037">
        <ele>48.68</ele>
        <time>2019-05-22T13:42:59Z</time>
      </trkpt>
      <trkpt lat="40.38552" lon="-8.45036">
        <ele>47.24</ele>
        <time>2019-05-22T13:43:07Z</time>
      </trkpt>
      <trkpt lat="40.38559" lon="-8.45037">
        <ele>47.24</ele>
        <time>2019-05-22T13:43:14Z</time>
      </trkpt>
      <trkpt lat="40.38574" lon="-8.45038">
        <ele>47.24</ele>
        <time>2019-05-22T13:43:28Z</time>
      </trkpt>
      <trkpt lat="40.3859" lon="-8.45039">
        <ele>47.24</ele>
        <time>2019-05-22T13:43:43Z</time>
      </trkpt>
      <trkpt lat="40.38604" lon="-8.45041">
        <ele>48.2</ele>
        <time>2019-05-22T13:43:54Z</time>
      </trkpt>
      <trkpt lat="40.38621" lon="-8.45043">
        <ele>48.2</ele>
        <time>2019-05-22T13:44:08Z</time>
      </trkpt>
      <trkpt lat="40.38645" lon="-8.45046">
        <ele>48.68</ele>
        <time>2019-05-22T13:44:23Z</time>
      </trkpt>
      <trkpt lat="40.3866" lon="-8.45045">
        <ele>48.2</ele>
        <time>2019-05-22T13:44:37Z</time>
      </trkpt>
      <trkpt lat="40.38672" lon="-8.4505">
        <ele>47.72</ele>
        <time>2019-05-22T13:44:49Z</time>
      </trkpt>
      <trkpt lat="40.3869" lon="-8.45044">
        <ele>46.76</ele>
        <time>2019-05-22T13:45:04Z</time>
      </trkpt>
      <trkpt lat="40.38702" lon="-8.45047">
        <ele>47.24</ele>
        <time>2019-05-22T13:45:14Z</time>
      </trkpt>
      <trkpt lat="40.38708" lon="-8.45047">
        <ele>47.24</ele>
        <time>2019-05-22T13:45:18Z</time>
      </trkpt>
      <trkpt lat="40.38719" lon="-8.45048">
        <ele>48.2</ele>
        <time>2019-05-22T13:45:30Z</time>
      </trkpt>
      <trkpt lat="40.3872" lon="-8.45048">
        <ele>46.28</ele>
        <time>2019-05-22T13:45:38Z</time>
      </trkpt>
      <trkpt lat="40.38737" lon="-8.45048">
        <ele>46.76</ele>
        <time>2019-05-22T13:45:52Z</time>
      </trkpt>
      <trkpt lat="40.38754" lon="-8.45049">
        <ele>46.76</ele>
        <time>2019-05-22T13:46:07Z</time>
      </trkpt>
      <trkpt lat="40.38775" lon="-8.4505">
        <ele>46.76</ele>
        <time>2019-05-22T13:46:23Z</time>
      </trkpt>
      <trkpt lat="40.38796" lon="-8.45052">
        <ele>45.8</ele>
        <time>2019-05-22T13:46:38Z</time>
      </trkpt>
      <trkpt lat="40.38813" lon="-8.45052">
        <ele>46.76</ele>
        <time>2019-05-22T13:46:51Z</time>
      </trkpt>
      <trkpt lat="40.38818" lon="-8.45052">
        <ele>46.76</ele>
        <time>2019-05-22T13:46:56Z</time>
      </trkpt>
      <trkpt lat="40.38828" lon="-8.4505">
        <ele>45.8</ele>
        <time>2019-05-22T13:47:09Z</time>
      </trkpt>
      <trkpt lat="40.38845" lon="-8.45047">
        <ele>45.8</ele>
        <time>2019-05-22T13:47:24Z</time>
      </trkpt>
      <trkpt lat="40.3886" lon="-8.45041">
        <ele>45.8</ele>
        <time>2019-05-22T13:47:39Z</time>
      </trkpt>
      <trkpt lat="40.38878" lon="-8.45038">
        <ele>45.32</ele>
        <time>2019-05-22T13:47:54Z</time>
      </trkpt>
      <trkpt lat="40.38896" lon="-8.45038">
        <ele>45.8</ele>
        <time>2019-05-22T13:48:08Z</time>
      </trkpt>
      <trkpt lat="40.38907" lon="-8.45042">
        <ele>44.36</ele>
        <time>2019-05-22T13:48:18Z</time>
      </trkpt>
      <trkpt lat="40.38919" lon="-8.45047">
        <ele>44.36</ele>
        <time>2019-05-22T13:48:32Z</time>
      </trkpt>
      <trkpt lat="40.38926" lon="-8.45051">
        <ele>43.88</ele>
        <time>2019-05-22T13:48:47Z</time>
      </trkpt>
      <trkpt lat="40.38942" lon="-8.45053">
        <ele>44.36</ele>
        <time>2019-05-22T13:49:03Z</time>
      </trkpt>
      <trkpt lat="40.38955" lon="-8.45053">
        <ele>44.36</ele>
        <time>2019-05-22T13:49:15Z</time>
      </trkpt>
      <trkpt lat="40.38976" lon="-8.45054">
        <ele>43.88</ele>
        <time>2019-05-22T13:49:32Z</time>
      </trkpt>
      <trkpt lat="40.3899" lon="-8.45054">
        <ele>44.36</ele>
        <time>2019-05-22T13:49:45Z</time>
      </trkpt>
      <trkpt lat="40.39003" lon="-8.45052">
        <ele>43.88</ele>
        <time>2019-05-22T13:49:58Z</time>
      </trkpt>
      <trkpt lat="40.39005" lon="-8.4505">
        <ele>44.84</ele>
        <time>2019-05-22T13:50:01Z</time>
      </trkpt>
      <trkpt lat="40.39012" lon="-8.45047">
        <ele>44.36</ele>
        <time>2019-05-22T13:50:09Z</time>
      </trkpt>
      <trkpt lat="40.39024" lon="-8.45041">
        <ele>44.36</ele>
        <time>2019-05-22T13:50:23Z</time>
      </trkpt>
      <trkpt lat="40.39024" lon="-8.45044">
        <ele>44.36</ele>
        <time>2019-05-22T13:50:35Z</time>
      </trkpt>
      <trkpt lat="40.39027" lon="-8.45051">
        <ele>44.36</ele>
        <time>2019-05-22T13:50:43Z</time>
      </trkpt>
      <trkpt lat="40.39033" lon="-8.45056">
        <ele>42.92</ele>
        <time>2019-05-22T13:50:55Z</time>
      </trkpt>
      <trkpt lat="40.39037" lon="-8.45055">
        <ele>43.88</ele>
        <time>2019-05-22T13:50:58Z</time>
      </trkpt>
      <trkpt lat="40.3905" lon="-8.45053">
        <ele>43.4</ele>
        <time>2019-05-22T13:51:10Z</time>
      </trkpt>
      <trkpt lat="40.39067" lon="-8.45055">
        <ele>43.4</ele>
        <time>2019-05-22T13:51:23Z</time>
      </trkpt>
      <trkpt lat="40.39084" lon="-8.45054">
        <ele>43.4</ele>
        <time>2019-05-22T13:51:37Z</time>
      </trkpt>
      <trkpt lat="40.39091" lon="-8.45051">
        <ele>43.4</ele>
        <time>2019-05-22T13:51:49Z</time>
      </trkpt>
      <trkpt lat="40.39096" lon="-8.45049">
        <ele>43.4</ele>
        <time>2019-05-22T13:52:04Z</time>
      </trkpt>
      <trkpt lat="40.39104" lon="-8.45043">
        <ele>42.92</ele>
        <time>2019-05-22T13:52:15Z</time>
      </trkpt>
      <trkpt lat="40.39109" lon="-8.45028">
        <ele>43.4</ele>
        <time>2019-05-22T13:52:31Z</time>
      </trkpt>
      <trkpt lat="40.39101" lon="-8.45017">
        <ele>43.4</ele>
        <time>2019-05-22T13:52:46Z</time>
      </trkpt>
      <trkpt lat="40.39098" lon="-8.45012">
        <ele>42.92</ele>
        <time>2019-05-22T13:53:02Z</time>
      </trkpt>
      <trkpt lat="40.39104" lon="-8.45013">
        <ele>43.4</ele>
        <time>2019-05-22T13:53:27Z</time>
      </trkpt>
      <trkpt lat="40.39103" lon="-8.4501">
        <ele>42.92</ele>
        <time>2019-05-22T13:53:49Z</time>
      </trkpt>
      <trkpt lat="40.39104" lon="-8.45012">
        <ele>42.44</ele>
        <time>2019-05-22T13:54:06Z</time>
      </trkpt>
      <trkpt lat="40.39103" lon="-8.45014">
        <ele>42.92</ele>
        <time>2019-05-22T13:54:38Z</time>
      </trkpt>
      <trkpt lat="40.39102" lon="-8.45015">
        <ele>42.44</ele>
        <time>2019-05-22T13:55:03Z</time>
      </trkpt>
      <trkpt lat="40.39098" lon="-8.45013">
        <ele>42.44</ele>
        <time>2019-05-22T13:55:35Z</time>
      </trkpt>
      <trkpt lat="40.39101" lon="-8.45011">
        <ele>42.92</ele>
        <time>2019-05-22T13:56:06Z</time>
      </trkpt>
      <trkpt lat="40.39104" lon="-8.45009">
        <ele>42.44</ele>
        <time>2019-05-22T13:56:40Z</time>
      </trkpt>
      <trkpt lat="40.39106" lon="-8.45017">
        <ele>42.44</ele>
        <time>2019-05-22T13:57:20Z</time>
      </trkpt>
      <trkpt lat="40.39108" lon="-8.4502">
        <ele>42.44</ele>
        <time>2019-05-22T13:57:51Z</time>
      </trkpt>
      <trkpt lat="40.39108" lon="-8.4502">
        <ele>42.44</ele>
        <time>2019-05-22T13:58:29Z</time>
      </trkpt>
      <trkpt lat="40.39105" lon="-8.4502">
        <ele>42.44</ele>
        <time>2019-05-22T13:58:52Z</time>
      </trkpt>
      <trkpt lat="40.39103" lon="-8.4502">
        <ele>42.92</ele>
        <time>2019-05-22T13:59:22Z</time>
      </trkpt>
      <trkpt lat="40.39103" lon="-8.45022">
        <ele>42.44</ele>
        <time>2019-05-22T13:59:41Z</time>
      </trkpt>
      <trkpt lat="40.39104" lon="-8.45021">
        <ele>43.88</ele>
        <time>2019-05-22T14:00:04Z</time>
      </trkpt>
      <trkpt lat="40.39104" lon="-8.4502">
        <ele>43.88</ele>
        <time>2019-05-22T14:00:18Z</time>
      </trkpt>
      <trkpt lat="40.39101" lon="-8.45013">
        <ele>43.88</ele>
        <time>2019-05-22T14:00:37Z</time>
      </trkpt>
      <trkpt lat="40.39105" lon="-8.45004">
        <ele>44.36</ele>
        <time>2019-05-22T14:00:51Z</time>
      </trkpt>
      <trkpt lat="40.39105" lon="-8.44985">
        <ele>45.32</ele>
        <time>2019-05-22T14:01:06Z</time>
      </trkpt>
      <trkpt lat="40.39095" lon="-8.44984">
        <ele>46.28</ele>
        <time>2019-05-22T14:01:20Z</time>
      </trkpt>
      <trkpt lat="40.39092" lon="-8.44969">
        <ele>45.8</ele>
        <time>2019-05-22T14:01:46Z</time>
      </trkpt>
      <trkpt lat="40.3909" lon="-8.44962">
        <ele>45.32</ele>
        <time>2019-05-22T14:02:12Z</time>
      </trkpt>
      <trkpt lat="40.39087" lon="-8.4496">
        <ele>44.84</ele>
        <time>2019-05-22T14:02:37Z</time>
      </trkpt>
      <trkpt lat="40.3909" lon="-8.44964">
        <ele>44.36</ele>
        <time>2019-05-22T14:03:05Z</time>
      </trkpt>
      <trkpt lat="40.39092" lon="-8.44964">
        <ele>44.36</ele>
        <time>2019-05-22T14:03:36Z</time>
      </trkpt>
      <trkpt lat="40.39098" lon="-8.44968">
        <ele>44.36</ele>
        <time>2019-05-22T14:04:05Z</time>
      </trkpt>
      <trkpt lat="40.39103" lon="-8.44969">
        <ele>44.84</ele>
        <time>2019-05-22T14:04:23Z</time>
      </trkpt>
      <trkpt lat="40.39105" lon="-8.44973">
        <ele>44.84</ele>
        <time>2019-05-22T14:04:30Z</time>
      </trkpt>
      <trkpt lat="40.39106" lon="-8.44974">
        <ele>44.84</ele>
        <time>2019-05-22T14:04:31Z</time>
      </trkpt>
      <trkpt lat="40.3909" lon="-8.44965">
        <ele>44.84</ele>
        <time>2019-05-22T14:04:48Z</time>
      </trkpt>
      <trkpt lat="40.39086" lon="-8.44962">
        <ele>45.32</ele>
        <time>2019-05-22T14:05:22Z</time>
      </trkpt>
      <trkpt lat="40.39091" lon="-8.44966">
        <ele>45.8</ele>
        <time>2019-05-22T14:05:58Z</time>
      </trkpt>
      <trkpt lat="40.39091" lon="-8.44966">
        <ele>45.32</ele>
        <time>2019-05-22T14:06:34Z</time>
      </trkpt>
      <trkpt lat="40.39092" lon="-8.44967">
        <ele>45.8</ele>
        <time>2019-05-22T14:07:09Z</time>
      </trkpt>
      <trkpt lat="40.39091" lon="-8.44967">
        <ele>45.32</ele>
        <time>2019-05-22T14:07:42Z</time>
      </trkpt>
      <trkpt lat="40.3909" lon="-8.4497">
        <ele>45.8</ele>
        <time>2019-05-22T14:08:15Z</time>
      </trkpt>
      <trkpt lat="40.39091" lon="-8.4497">
        <ele>46.28</ele>
        <time>2019-05-22T14:08:49Z</time>
      </trkpt>
      <trkpt lat="40.3909" lon="-8.44965">
        <ele>46.76</ele>
        <time>2019-05-22T14:09:27Z</time>
      </trkpt>
      <trkpt lat="40.39089" lon="-8.44966">
        <ele>46.76</ele>
        <time>2019-05-22T14:09:56Z</time>
      </trkpt>
      <trkpt lat="40.39092" lon="-8.44961">
        <ele>45.32</ele>
        <time>2019-05-22T14:10:24Z</time>
      </trkpt>
      <trkpt lat="40.39091" lon="-8.44961">
        <ele>45.32</ele>
        <time>2019-05-22T14:10:52Z</time>
      </trkpt>
      <trkpt lat="40.3909" lon="-8.44967">
        <ele>45.32</ele>
        <time>2019-05-22T14:11:18Z</time>
      </trkpt>
      <trkpt lat="40.39091" lon="-8.44965">
        <ele>44.84</ele>
        <time>2019-05-22T14:11:49Z</time>
      </trkpt>
      <trkpt lat="40.39092" lon="-8.44963">
        <ele>45.32</ele>
        <time>2019-05-22T14:12:23Z</time>
      </trkpt>
      <trkpt lat="40.39092" lon="-8.44965">
        <ele>45.32</ele>
        <time>2019-05-22T14:12:54Z</time>
      </trkpt>
      <trkpt lat="40.3909" lon="-8.44964">
        <ele>45.8</ele>
        <time>2019-05-22T14:13:25Z</time>
      </trkpt>
      <trkpt lat="40.39087" lon="-8.44965">
        <ele>45.32</ele>
        <time>2019-05-22T14:13:56Z</time>
      </trkpt>
      <trkpt lat="40.39092" lon="-8.44956">
        <ele>45.32</ele>
        <time>2019-05-22T14:14:29Z</time>
      </trkpt>
      <trkpt lat="40.39089" lon="-8.44966">
        <ele>45.32</ele>
        <time>2019-05-22T14:15:04Z</time>
      </trkpt>
      <trkpt lat="40.39089" lon="-8.44958">
        <ele>45.8</ele>
        <time>2019-05-22T14:15:35Z</time>
      </trkpt>
      <trkpt lat="40.39084" lon="-8.44959">
        <ele>46.28</ele>
        <time>2019-05-22T14:16:06Z</time>
      </trkpt>
      <trkpt lat="40.39085" lon="-8.44943">
        <ele>45.8</ele>
        <time>2019-05-22T14:16:35Z</time>
      </trkpt>
      <trkpt lat="40.39081" lon="-8.44932">
        <ele>46.76</ele>
        <time>2019-05-22T14:17:01Z</time>
      </trkpt>
      <trkpt lat="40.39096" lon="-8.44935">
        <ele>46.28</ele>
        <time>2019-05-22T14:17:23Z</time>
      </trkpt>
      <trkpt lat="40.39101" lon="-8.44943">
        <ele>46.76</ele>
        <time>2019-05-22T14:17:50Z</time>
      </trkpt>
      <trkpt lat="40.39101" lon="-8.44946">
        <ele>47.72</ele>
        <time>2019-05-22T14:18:17Z</time>
      </trkpt>
      <trkpt lat="40.39096" lon="-8.44949">
        <ele>47.72</ele>
        <time>2019-05-22T14:18:42Z</time>
      </trkpt>
      <trkpt lat="40.39093" lon="-8.44956">
        <ele>48.2</ele>
        <time>2019-05-22T14:19:12Z</time>
      </trkpt>
      <trkpt lat="40.39096" lon="-8.44956">
        <ele>49.16</ele>
        <time>2019-05-22T14:19:43Z</time>
      </trkpt>
      <trkpt lat="40.39093" lon="-8.44955">
        <ele>49.16</ele>
        <time>2019-05-22T14:20:10Z</time>
      </trkpt>
      <trkpt lat="40.3909" lon="-8.44955">
        <ele>49.65</ele>
        <time>2019-05-22T14:20:37Z</time>
      </trkpt>
      <trkpt lat="40.39085" lon="-8.44956">
        <ele>49.65</ele>
        <time>2019-05-22T14:21:06Z</time>
      </trkpt>
      <trkpt lat="40.39098" lon="-8.44956">
        <ele>50.13</ele>
        <time>2019-05-22T14:21:27Z</time>
      </trkpt>
      <trkpt lat="40.39093" lon="-8.44956">
        <ele>50.13</ele>
        <time>2019-05-22T14:21:54Z</time>
      </trkpt>
      <trkpt lat="40.39094" lon="-8.44953">
        <ele>49.16</ele>
        <time>2019-05-22T14:22:22Z</time>
      </trkpt>
      <trkpt lat="40.39093" lon="-8.4495">
        <ele>48.68</ele>
        <time>2019-05-22T14:22:55Z</time>
      </trkpt>
      <trkpt lat="40.391" lon="-8.44937">
        <ele>50.13</ele>
        <time>2019-05-22T14:23:32Z</time>
      </trkpt>
      <trkpt lat="40.39105" lon="-8.44931">
        <ele>50.13</ele>
        <time>2019-05-22T14:23:59Z</time>
      </trkpt>
      <trkpt lat="40.39095" lon="-8.44945">
        <ele>49.65</ele>
        <time>2019-05-22T14:24:30Z</time>
      </trkpt>
      <trkpt lat="40.39087" lon="-8.44956">
        <ele>50.61</ele>
        <time>2019-05-22T14:25:02Z</time>
      </trkpt>
      <trkpt lat="40.39085" lon="-8.44957">
        <ele>51.09</ele>
        <time>2019-05-22T14:25:36Z</time>
      </trkpt>
      <trkpt lat="40.39089" lon="-8.44957">
        <ele>51.57</ele>
        <time>2019-05-22T14:26:11Z</time>
      </trkpt>
      <trkpt lat="40.39097" lon="-8.4496">
        <ele>51.09</ele>
        <time>2019-05-22T14:26:46Z</time>
      </trkpt>
      <trkpt lat="40.39098" lon="-8.4496">
        <ele>51.57</ele>
        <time>2019-05-22T14:27:18Z</time>
      </trkpt>
      <trkpt lat="40.3909" lon="-8.4496">
        <ele>53.01</ele>
        <time>2019-05-22T14:27:39Z</time>
      </trkpt>
    </trkseg>
  </trk>
</gpx>